Darstellungsparameter: Aktuell verwendete Einstellungen:
Skalierung der Graphiken ... ?
xyx+y,   Skalierungsfaktor:      Skalierung: Modus: x, Faktor: 1
Darstellungszeitraum ... ?
Vom - - bis: - -   Zeitraum: 18.01.2018 - 17.01.2021
Min/Max/Avg-Anzeige ... ?
Zeige MMA aktuell
Zeige MMA Monat
Zeige MMA alles
Zeige --A aktuell
Zeige --A Monat
Zeige --A alles
Keine MMA-Anzeige
MMA:
Average (ber die Originaldaten)
MMA-Basis: 23.02.2003 - 03.08.2020
Quicknavigation für Darstellung... ?
Tage:      1T, 2T, 3T, 5T -1T -2T -3T -5T +1T +2T +3T +5T
Wochen: 1W, 2W, 3W -1W -2W -3W +1W +2W +3W
Monate: 1M, 3M, 6M -1M -3M -6M +1M +3M +6M
Jahre:    1J, 3J, 5J, 10J -1J -3J -5J -10J +1J +3J +5J +10J
Nutze für die Darstellung ... ?
Originaldaten oder ...
Mittelwerte Minima Maxima auf...
Stundenbasis Tagesbasis Wochenbasis
Monatsbasis Jahresbasis      Datenbasis: Mittelwerte auf Stundenbasis
Darstellen als:
Statistik (Auto) Statistik J:M      Darstellung:
Zur Graphik,    zurück zur Übersicht aller Sensoren.
 
Tabellarische Datenbersicht: ?
 
Sensor: Nr:Datum:Temp:Abs-Feuchte:Windchill:Wind:
Aussen-T/F 1 18-01-2018 00:00:00 3.40833 C 5.34 g/m*3 0.8 C 9.80833 km/h
2 18-01-2018 01:00:00 3.825 C 5.46 g/m*3 1.26 C 9.96667 km/h
3 18-01-2018 02:00:00 4.05833 C 5.59 g/m*3 1.6 C 9.69167 km/h
4 18-01-2018 03:00:00 4.2 C 5.7 g/m*3 1.93 C 9.01667 km/h
5 18-01-2018 04:00:00 4.91667 C 5.91 g/m*3 2.06 C 12.5 km/h
6 18-01-2018 05:00:00 4.66667 C 5.97 g/m*3 3.57 C 5.35833 km/h
7 18-01-2018 06:00:00 4.29167 C 5.96 g/m*3 0.23 C 19.56667 km/h
8 18-01-2018 07:00:00 4.70833 C 6.05 g/m*3 0.03 C 26.15 km/h
9 18-01-2018 08:00:00 5.36667 C 6.33 g/m*3 2.18 C 15.16667 km/h
10 18-01-2018 09:00:00 6.73333 C 6.97 g/m*3 3.9 C 14.9 km/h
11 18-01-2018 10:00:00 8.55 C 7.67 g/m*3 5.34 C 22.11667 km/h
12 18-01-2018 11:00:00 9.825 C 7.6 g/m*3 6.58 C 26.81667 km/h
13 18-01-2018 12:00:00 10.96667 C 6.46 g/m*3 7.58 C 34.2 km/h
14 18-01-2018 13:00:00 9.29167 C 5.91 g/m*3 5.58 C 30.96667 km/h
15 18-01-2018 14:00:00 7.975 C 5.67 g/m*3 4.67 C 21.45 km/h
16 18-01-2018 15:00:00 8.25 C 5.45 g/m*3 5.2 C 19.70833 km/h
17 18-01-2018 16:00:00 7.84167 C 5.26 g/m*3 4.73 C 19.3 km/h
18 18-01-2018 17:00:00 6.88333 C 5.2 g/m*3 4.71 C 11.03333 km/h
19 18-01-2018 18:00:00 5.96667 C 5.26 g/m*3 4.58 C 6.83333 km/h
20 18-01-2018 19:00:00 4.575 C 5.32 g/m*3 4.58 C 4.26667 km/h
21 18-01-2018 20:00:00 3.75 C 5.34 g/m*3 3.75 C 4 km/h
22 18-01-2018 21:00:00 4.175 C 5.58 g/m*3 4.18 C 1.46667 km/h
23 18-01-2018 22:00:00 4.01667 C 5.63 g/m*3 4.02 C 1.74167 km/h
24 18-01-2018 23:00:00 4.35833 C 6.04 g/m*3 4.36 C 2.66667 km/h
25 19-01-2018 00:00:00 4.26667 C 6.07 g/m*3 2.82 C 6.175 km/h
Sensor: Nr:Datum:Temp:Abs-Feuchte:Windchill:Wind:
Aussen-T/F 26 19-01-2018 01:00:00 4.24167 C 5.97 g/m*3 1.68 C 10.34167 km/h
27 19-01-2018 02:00:00 3.75 C 5.78 g/m*3 3.75 C 1.33333 km/h
28 19-01-2018 03:00:00 3.55 C 5.77 g/m*3 3.55 C 3.34167 km/h
29 19-01-2018 04:00:00 3.38333 C 5.64 g/m*3 2.21 C 5.08333 km/h
30 19-01-2018 05:00:00 3.75 C 5.64 g/m*3 1.37 C 9.125 km/h
31 19-01-2018 06:00:00 3.70833 C 5.55 g/m*3 1.45 C 8.60833 km/h
32 19-01-2018 07:00:00 3.66667 C 5.45 g/m*3 0.73 C 11.56667 km/h
33 19-01-2018 08:00:00 3.7 C 5.56 g/m*3 1.28 C 9.26667 km/h
34 19-01-2018 09:00:00 3.825 C 5.63 g/m*3 1.33 C 9.65833 km/h
35 19-01-2018 10:00:00 4 C 5.43 g/m*3 1.18 C 11.3 km/h
36 19-01-2018 11:00:00 4.45 C 5.45 g/m*3 1.52 C 12.35833 km/h
37 19-01-2018 12:00:00 4.675 C 5.36 g/m*3 1.56 C 13.7 km/h
38 19-01-2018 13:00:00 5.30833 C 5.55 g/m*3 3.25 C 9.01667 km/h
39 19-01-2018 14:00:00 5.625 C 5.56 g/m*3 5.63 C 4.95833 km/h
40 19-01-2018 15:00:00 6.04167 C 5.4 g/m*3 4.75 C 6.56667 km/h
41 19-01-2018 16:00:00 5.40833 C 5.22 g/m*3 5.41 C 4.15 km/h
42 19-01-2018 17:00:00 4.175 C 5.41 g/m*3 4.18 C 1.6 km/h
43 19-01-2018 18:00:00 3.85 C 5.44 g/m*3 3.85 C 2.40833 km/h
44 19-01-2018 19:00:00 2.66667 C 5.15 g/m*3 2.67 C 2 km/h
45 19-01-2018 20:00:00 2.24167 C 5.11 g/m*3 2.24 C 3.74167 km/h
46 19-01-2018 21:00:00 2.40833 C 5.14 g/m*3 0.54 C 6.55833 km/h
47 19-01-2018 22:00:00 3.24167 C 5.23 g/m*3 0.42 C 10.625 km/h
48 19-01-2018 23:00:00 3.14167 C 5.21 g/m*3 0.48 C 9.81667 km/h
49 20-01-2018 00:00:00 3.075 C 5.2 g/m*3 0.6 C 9.01667 km/h
50 20-01-2018 01:00:00 3.29167 C 5.26 g/m*3 1.19 C 7.79167 km/h
Sensor: Nr:Datum:Temp:Abs-Feuchte:Windchill:Wind:
Aussen-T/F 51 20-01-2018 02:00:00 3.56667 C 5.37 g/m*3 1.59 C 7.51667 km/h
52 20-01-2018 03:00:00 3.49167 C 5.32 g/m*3 0.72 C 10.625 km/h
53 20-01-2018 04:00:00 3.26667 C 5.27 g/m*3 0.9 C 8.74167 km/h
54 20-01-2018 05:00:00 2.525 C 5.15 g/m*3 0.68 C 6.56667 km/h
55 20-01-2018 06:00:00 2.375 C 5.13 g/m*3 2.38 C 4.14167 km/h
56 20-01-2018 07:00:00 2.41667 C 5.15 g/m*3 0.96 C 5.475 km/h
57 20-01-2018 08:00:00 2.7 C 5.21 g/m*3 2.7 C 4.15 km/h
58 20-01-2018 09:00:00 3.30833 C 5.4 g/m*3 2.02 C 5.35 km/h
59 20-01-2018 10:00:00 4.275 C 5.66 g/m*3 2.41 C 7.525 km/h
60 20-01-2018 11:00:00 4.85 C 5.8 g/m*3 3.36 C 6.58333 km/h
61 20-01-2018 12:00:00 4.99167 C 6.01 g/m*3 4.99 C 0.93333 km/h
62 20-01-2018 13:00:00 4.65 C 6.05 g/m*3 4.65 C 1.6 km/h
63 20-01-2018 14:00:00 4.1 C 5.92 g/m*3 4.1 C 0.93333 km/h
64 20-01-2018 15:00:00 3.325 C 5.69 g/m*3 3.33 C 1.33333 km/h
65 20-01-2018 16:00:00 2.40833 C 5.36 g/m*3 2.41 C 0.13333 km/h
66 20-01-2018 17:00:00 2.2 C 5.35 g/m*3 2.2 C 0.93333 km/h
67 20-01-2018 18:00:00 2.14167 C 5.33 g/m*3 2.14 C 0.13333 km/h
68 20-01-2018 19:00:00 2.10833 C 5.36 g/m*3 2.11 C 0 km/h
69 20-01-2018 20:00:00 2.13333 C 5.38 g/m*3 2.13 C 0 km/h
70 20-01-2018 21:00:00 2.2 C 5.41 g/m*3 2.2 C 0 km/h
71 20-01-2018 22:00:00 2.08333 C 5.36 g/m*3 2.08 C 0 km/h
72 20-01-2018 23:00:00 1.94167 C 5.31 g/m*3 1.94 C 0 km/h
73 21-01-2018 00:00:00 2.25833 C 5.43 g/m*3 2.26 C 3.75 km/h
74 21-01-2018 01:00:00 2.425 C 5.49 g/m*3 1.06 C 5.24167 km/h
75 21-01-2018 02:00:00 2.58333 C 5.55 g/m*3 1.13 C 5.51667 km/h
Sensor: Nr:Datum:Temp:Abs-Feuchte:Windchill:Wind:
Aussen-T/F 76 21-01-2018 03:00:00 2.6 C 5.56 g/m*3 0.37 C 7.8 km/h
77 21-01-2018 04:00:00 2.68333 C 5.54 g/m*3 0.68 C 7.11667 km/h
78 21-01-2018 05:00:00 2.775 C 5.56 g/m*3 0.32 C 8.73333 km/h
79 21-01-2018 06:00:00 2.875 C 5.52 g/m*3 0.62 C 8.05833 km/h
80 21-01-2018 07:00:00 2.8 C 5.46 g/m*3 1.09 C 6.29167 km/h
81 21-01-2018 08:00:00 2.34167 C 5.32 g/m*3 2.34 C 3.20833 km/h
82 21-01-2018 09:00:00 2.425 C 5.42 g/m*3 2.42 C 2.40833 km/h
83 21-01-2018 10:00:00 2.83333 C 5.53 g/m*3 2.83 C 4.95833 km/h
84 21-01-2018 11:00:00 3.50833 C 5.69 g/m*3 2.36 C 5.075 km/h
85 21-01-2018 12:00:00 3.83333 C 5.87 g/m*3 3.83 C 2.94167 km/h
86 21-01-2018 13:00:00 3.85 C 5.69 g/m*3 2.12 C 6.84167 km/h
87 21-01-2018 14:00:00 4.075 C 5.81 g/m*3 2.22 C 7.38333 km/h
88 21-01-2018 15:00:00 4.40833 C 5.68 g/m*3 2.25 C 8.74167 km/h
89 21-01-2018 16:00:00 3.69167 C 5.55 g/m*3 3.69 C 3.875 km/h
90 21-01-2018 17:00:00 2.64167 C 5.35 g/m*3 2.64 C 2.26667 km/h
91 21-01-2018 18:00:00 1.94167 C 5.18 g/m*3 1.94 C 2 km/h
92 21-01-2018 19:00:00 1.60833 C 5.09 g/m*3 1.61 C 0.53333 km/h
93 21-01-2018 20:00:00 1.51667 C 5.08 g/m*3 1.52 C 1.06667 km/h
94 21-01-2018 21:00:00 1.7 C 5.17 g/m*3 1.7 C 0 km/h
95 21-01-2018 22:00:00 1.90833 C 5.23 g/m*3 1.91 C 0 km/h
96 21-01-2018 23:00:00 2.225 C 5.35 g/m*3 2.23 C 0 km/h
97 22-01-2018 00:00:00 2 C 5.28 g/m*3 2 C 0 km/h
98 22-01-2018 01:00:00 1.475 C 5.11 g/m*3 1.48 C 0 km/h
99 22-01-2018 02:00:00 1.725 C 5.24 g/m*3 1.73 C 0 km/h
100 22-01-2018 03:00:00 2 C 5.33 g/m*3 2 C 0 km/h
Sensor: Nr:Datum:Temp:Abs-Feuchte:Windchill:Wind:
Aussen-T/F 101 22-01-2018 04:00:00 2.175 C 5.4 g/m*3 2.17 C 0 km/h
102 22-01-2018 05:00:00 2.28333 C 5.44 g/m*3 2.28 C 0 km/h
103 22-01-2018 06:00:00 2.33333 C 5.46 g/m*3 2.33 C 0 km/h
104 22-01-2018 07:00:00 2.63333 C 5.62 g/m*3 2.63 C 0.26667 km/h
105 22-01-2018 08:00:00 3.16667 C 5.83 g/m*3 3.17 C 1.6 km/h
106 22-01-2018 09:00:00 4.3 C 6.29 g/m*3 2.22 C 8.34167 km/h
107 22-01-2018 10:00:00 5.30833 C 6.73 g/m*3 2.92 C 10.49167 km/h
108 22-01-2018 11:00:00 6.2 C 7.06 g/m*3 4.19 C 9.54167 km/h
109 22-01-2018 12:00:00 6.91667 C 7.33 g/m*3 5.54 C 7.38333 km/h
110 22-01-2018 13:00:00 7.73333 C 7.65 g/m*3 6.74 C 6.425 km/h
111 22-01-2018 14:00:00 7.94167 C 7.67 g/m*3 7.94 C 4.54167 km/h
112 22-01-2018 15:00:00 8.05 C 7.71 g/m*3 8.05 C 2.13333 km/h
113 22-01-2018 16:00:00 7.65 C 7.59 g/m*3 7.65 C 0.66667 km/h
114 22-01-2018 17:00:00 7.175 C 7.38 g/m*3 7.18 C 1.86667 km/h
115 22-01-2018 18:00:00 7.125 C 7.3 g/m*3 7.13 C 2.4 km/h
116 22-01-2018 19:00:00 7.18333 C 7.1 g/m*3 7.18 C 4.68333 km/h
117 22-01-2018 20:00:00 7.05 C 6.85 g/m*3 7.05 C 4.81667 km/h
118 22-01-2018 21:00:00 6.90833 C 6.64 g/m*3 5.5 C 7.51667 km/h
119 22-01-2018 22:00:00 6.85 C 6.56 g/m*3 5.42 C 7.53333 km/h
120 22-01-2018 23:00:00 6.59167 C 6.72 g/m*3 5.54 C 6.05 km/h
121 23-01-2018 00:00:00 6.25 C 6.68 g/m*3 5.24 C 5.76667 km/h
122 23-01-2018 01:00:00 6.075 C 6.69 g/m*3 6.08 C 4.80833 km/h
123 23-01-2018 02:00:00 5.825 C 6.64 g/m*3 5.83 C 4.95 km/h
124 23-01-2018 03:00:00 5.81667 C 6.67 g/m*3 4.52 C 6.44167 km/h
125 23-01-2018 04:00:00 5.86667 C 6.63 g/m*3 5.87 C 4.94167 km/h
Sensor: Nr:Datum:Temp:Abs-Feuchte:Windchill:Wind:
Aussen-T/F 126 23-01-2018 05:00:00 5.8 C 6.58 g/m*3 4.63 C 6.05 km/h
127 23-01-2018 06:00:00 5.7 C 6.55 g/m*3 5.7 C 3.73333 km/h
128 23-01-2018 07:00:00 5.8 C 6.65 g/m*3 5.8 C 4.41667 km/h
129 23-01-2018 08:00:00 5.89167 C 6.68 g/m*3 5.89 C 3.33333 km/h
130 23-01-2018 09:00:00 5.94167 C 6.72 g/m*3 5.94 C 2.93333 km/h
131 23-01-2018 10:00:00 6.35833 C 6.91 g/m*3 6.36 C 2.66667 km/h
132 23-01-2018 11:00:00 7.05833 C 7.16 g/m*3 7.06 C 0.26667 km/h
133 23-01-2018 12:00:00 7.70833 C 7.29 g/m*3 7.71 C 1.06667 km/h
134 23-01-2018 13:00:00 8.48333 C 7.35 g/m*3 7.4 C 7.25833 km/h
135 23-01-2018 14:00:00 8.91667 C 7.36 g/m*3 7.81 C 7.65 km/h
136 23-01-2018 15:00:00 9.05 C 7.16 g/m*3 7.53 C 9.80833 km/h
137 23-01-2018 16:00:00 8.65833 C 7.09 g/m*3 7.39 C 8.2 km/h
138 23-01-2018 17:00:00 8.225 C 6.96 g/m*3 6.91 C 8.05833 km/h
139 23-01-2018 18:00:00 8.55 C 7.05 g/m*3 7.72 C 6.31667 km/h
140 23-01-2018 19:00:00 8.225 C 7.2 g/m*3 8.23 C 4.40833 km/h
141 23-01-2018 20:00:00 8.66667 C 7.35 g/m*3 7.28 C 8.74167 km/h
142 23-01-2018 21:00:00 9.15833 C 7.61 g/m*3 7.32 C 11.825 km/h
143 23-01-2018 22:00:00 9.425 C 7.84 g/m*3 7.25 C 14.63333 km/h
144 23-01-2018 23:00:00 9.44167 C 8.01 g/m*3 7.86 C 10.63333 km/h
145 24-01-2018 00:00:00 9.675 C 8.21 g/m*3 7.26 C 17.175 km/h
146 24-01-2018 01:00:00 9.95 C 8.37 g/m*3 7.6 C 17.16667 km/h
147 24-01-2018 02:00:00 10.16667 C 8.54 g/m*3 8.41 C 12.75833 km/h
148 24-01-2018 03:00:00 10.31667 C 8.63 g/m*3 8.47 C 13.7 km/h
149 24-01-2018 04:00:00 10.59167 C 8.78 g/m*3 9.12 C 11.425 km/h
150 24-01-2018 05:00:00 10.65 C 8.86 g/m*3 9.63 C 8.73333 km/h
Sensor: Nr:Datum:Temp:Abs-Feuchte:Windchill:Wind:
Aussen-T/F 151 24-01-2018 06:00:00 10.65833 C 8.9 g/m*3 10.66 C 1.6 km/h
152 24-01-2018 07:00:00 10.91667 C 8.96 g/m*3 10.92 C 4.00833 km/h
153 24-01-2018 08:00:00 10.875 C 8.94 g/m*3 10.88 C 3.2 km/h
154 24-01-2018 09:00:00 11.21667 C 9.11 g/m*3 11.22 C 3.06667 km/h
155 24-01-2018 10:00:00 11.675 C 9.27 g/m*3 11.68 C 1.73333 km/h
156 24-01-2018 11:00:00 11.91667 C 9.29 g/m*3 11.92 C 3.46667 km/h
157 24-01-2018 12:00:00 11.70833 C 9.36 g/m*3 11.71 C 2.53333 km/h
158 24-01-2018 13:00:00 12.075 C 9.48 g/m*3 12.08 C 3.73333 km/h
159 24-01-2018 14:00:00 12.83333 C 9.56 g/m*3 12.83 C 7.39167 km/h
160 24-01-2018 15:00:00 12.74167 C 9.39 g/m*3 12.74 C 10.875 km/h
161 24-01-2018 16:00:00 12.35833 C 9.26 g/m*3 12.36 C 4.41667 km/h
162 24-01-2018 17:00:00 12.05 C 9.01 g/m*3 12.05 C 6.04167 km/h
163 24-01-2018 18:00:00 11.825 C 8.73 g/m*3 11.83 C 8.59167 km/h
164 24-01-2018 19:00:00 11.91667 C 8.58 g/m*3 11.92 C 6.7 km/h
165 24-01-2018 20:00:00 11.775 C 8.47 g/m*3 11.78 C 9.95833 km/h
166 24-01-2018 21:00:00 11.91667 C 8.35 g/m*3 11.92 C 17.56667 km/h
167 24-01-2018 22:00:00 11.825 C 8.25 g/m*3 11.83 C 17.03333 km/h
168 24-01-2018 23:00:00 11.49167 C 8.2 g/m*3 11.49 C 14.23333 km/h
169 25-01-2018 00:00:00 11 C 8.15 g/m*3 10.71 C 5.64167 km/h
170 25-01-2018 01:00:00 10.81667 C 8.19 g/m*3 10.82 C 3.48333 km/h
171 25-01-2018 02:00:00 11.71667 C 8.44 g/m*3 11.72 C 9.81667 km/h
172 25-01-2018 03:00:00 11.65 C 8.75 g/m*3 11.65 C 10.875 km/h
173 25-01-2018 04:00:00 11.1 C 8.79 g/m*3 11.1 C 8.60833 km/h
174 25-01-2018 05:00:00 10.93333 C 8.76 g/m*3 10.14 C 7.79167 km/h
175 25-01-2018 06:00:00 10.96667 C 8.86 g/m*3 10.24 C 7.51667 km/h
Sensor: Nr:Datum:Temp:Abs-Feuchte:Windchill:Wind:
Aussen-T/F 176 25-01-2018 07:00:00 11.13333 C 8.98 g/m*3 11.13 C 9.16667 km/h
177 25-01-2018 08:00:00 11.025 C 9.04 g/m*3 11.03 C 6.56667 km/h
178 25-01-2018 09:00:00 10.18333 C 8.91 g/m*3 10.18 C 0.4 km/h
179 25-01-2018 10:00:00 9.75833 C 8.78 g/m*3 9.76 C 0.66667 km/h
180 25-01-2018 11:00:00 9.425 C 8.61 g/m*3 9.43 C 3.60833 km/h
181 25-01-2018 12:00:00 9.84167 C 8.93 g/m*3 9.84 C 0.4 km/h
182 25-01-2018 13:00:00 10.18333 C 9.13 g/m*3 10.18 C 0.66667 km/h
183 25-01-2018 14:00:00 10.35833 C 9.18 g/m*3 10.36 C 0.4 km/h
184 25-01-2018 15:00:00 9.94167 C 8.91 g/m*3 9.94 C 0 km/h
185 25-01-2018 16:00:00 9.55833 C 8.77 g/m*3 9.56 C 0 km/h
186 25-01-2018 17:00:00 9.09167 C 8.51 g/m*3 9.09 C 0 km/h
187 25-01-2018 18:00:00 8.65 C 8.28 g/m*3 8.65 C 1.46667 km/h
188 25-01-2018 19:00:00 8.34167 C 8.11 g/m*3 8.34 C 0 km/h
189 25-01-2018 20:00:00 8.25 C 8.09 g/m*3 8.25 C 0 km/h
190 25-01-2018 21:00:00 8.025 C 7.99 g/m*3 8.03 C 0.26667 km/h
191 25-01-2018 22:00:00 7.64167 C 7.82 g/m*3 7.64 C 0 km/h
192 25-01-2018 23:00:00 7.4 C 7.71 g/m*3 7.4 C 0.4 km/h
193 26-01-2018 00:00:00 7.16667 C 7.6 g/m*3 7.17 C 1.2 km/h
194 26-01-2018 01:00:00 6.95833 C 7.5 g/m*3 6.96 C 0.8 km/h
195 26-01-2018 02:00:00 6.73333 C 7.39 g/m*3 6.73 C 0.13333 km/h
196 26-01-2018 03:00:00 6.6 C 7.32 g/m*3 6.6 C 0 km/h
197 26-01-2018 04:00:00 6.34167 C 7.2 g/m*3 6.34 C 0 km/h
198 26-01-2018 05:00:00 6.61667 C 7.33 g/m*3 6.62 C 1.06667 km/h
199 26-01-2018 06:00:00 6.54167 C 7.29 g/m*3 6.54 C 0 km/h
200 26-01-2018 07:00:00 6.36667 C 7.21 g/m*3 6.37 C 0 km/h
Sensor: Nr:Datum:Temp:Abs-Feuchte:Windchill:Wind:
Aussen-T/F 201 26-01-2018 08:00:00 6.34167 C 7.2 g/m*3 6.34 C 0 km/h
202 26-01-2018 09:00:00 6.68333 C 7.38 g/m*3 6.68 C 0 km/h
203 26-01-2018 10:00:00 7.31667 C 7.69 g/m*3 7.32 C 2.4 km/h
204 26-01-2018 11:00:00 7.56667 C 7.8 g/m*3 7.57 C 3.46667 km/h
205 26-01-2018 12:00:00 7.73333 C 7.8 g/m*3 7.73 C 3.2 km/h
206 26-01-2018 13:00:00 8.41667 C 8.03 g/m*3 8.42 C 2.8 km/h
207 26-01-2018 14:00:00 8.775 C 7.94 g/m*3 8.78 C 2.26667 km/h
208 26-01-2018 15:00:00 8.725 C 7.83 g/m*3 8.73 C 0.26667 km/h
209 26-01-2018 16:00:00 8.38333 C 7.82 g/m*3 8.38 C 0.13333 km/h
210 26-01-2018 17:00:00 7.075 C 7.29 g/m*3 7.08 C 2.53333 km/h
211 26-01-2018 18:00:00 6.125 C 6.95 g/m*3 6.13 C 0.4 km/h
212 26-01-2018 19:00:00 5.14167 C 6.53 g/m*3 5.14 C 0 km/h
213 26-01-2018 20:00:00 4.40833 C 6.24 g/m*3 4.41 C 0 km/h
214 26-01-2018 21:00:00 4.36667 C 6.25 g/m*3 4.37 C 0 km/h
215 26-01-2018 22:00:00 4.175 C 6.2 g/m*3 4.18 C 0 km/h
216 26-01-2018 23:00:00 4.375 C 6.32 g/m*3 4.38 C 0.93333 km/h
217 27-01-2018 00:00:00 4.36667 C 6.32 g/m*3 4.37 C 0.13333 km/h
218 27-01-2018 01:00:00 4.175 C 6.24 g/m*3 4.18 C 0.26667 km/h
219 27-01-2018 02:00:00 4.15833 C 6.23 g/m*3 4.16 C 2 km/h
220 27-01-2018 03:00:00 4.1 C 6.21 g/m*3 4.1 C 2.8 km/h
221 27-01-2018 04:00:00 4.08333 C 6.2 g/m*3 4.08 C 3.2 km/h
222 27-01-2018 05:00:00 4.04167 C 6.18 g/m*3 4.04 C 0.93333 km/h
223 27-01-2018 06:00:00 4.10833 C 6.21 g/m*3 4.11 C 2 km/h
224 27-01-2018 07:00:00 4.025 C 6.18 g/m*3 4.03 C 1.2 km/h
225 27-01-2018 08:00:00 3.83333 C 6.1 g/m*3 3.83 C 1.46667 km/h
Sensor: Nr:Datum:Temp:Abs-Feuchte:Windchill:Wind:
Aussen-T/F 226 27-01-2018 09:00:00 3.56667 C 5.99 g/m*3 3.57 C 4.4 km/h
227 27-01-2018 10:00:00 3.96667 C 6.15 g/m*3 3.97 C 2.13333 km/h
228 27-01-2018 11:00:00 4.51667 C 6.38 g/m*3 4.52 C 2.8 km/h
229 27-01-2018 12:00:00 4.96667 C 6.58 g/m*3 4.97 C 2.53333 km/h
230 27-01-2018 13:00:00 5.31667 C 6.67 g/m*3 5.32 C 3.06667 km/h
231 27-01-2018 14:00:00 5.58333 C 6.67 g/m*3 4.39 C 6.01667 km/h
232 27-01-2018 15:00:00 5.375 C 6.53 g/m*3 5.38 C 2 km/h
233 27-01-2018 16:00:00 5.60833 C 6.66 g/m*3 5.61 C 4.83333 km/h
234 27-01-2018 17:00:00 5.34167 C 6.52 g/m*3 3.94 C 6.55833 km/h
235 27-01-2018 18:00:00 5.21667 C 6.46 g/m*3 5.22 C 3.20833 km/h
236 27-01-2018 19:00:00 5.36667 C 6.47 g/m*3 5.37 C 2.80833 km/h
237 27-01-2018 20:00:00 5.325 C 6.41 g/m*3 5.33 C 2.275 km/h
238 27-01-2018 21:00:00 5.45 C 6.47 g/m*3 5.45 C 3.61667 km/h
239 27-01-2018 22:00:00 5.59167 C 6.38 g/m*3 3.65 C 8.73333 km/h
240 27-01-2018 23:00:00 5.50833 C 6.28 g/m*3 3.93 C 7.25 km/h
241 28-01-2018 00:00:00 5.61667 C 6.39 g/m*3 4.26 C 6.56667 km/h
242 28-01-2018 01:00:00 5.11667 C 6.3 g/m*3 3.23 C 8.175 km/h
243 28-01-2018 02:00:00 5.16667 C 6.22 g/m*3 2.23 C 13.3 km/h
244 28-01-2018 03:00:00 5.525 C 6.27 g/m*3 2.27 C 15.83333 km/h
245 28-01-2018 04:00:00 5.725 C 6.37 g/m*3 2.39 C 16.76667 km/h
246 28-01-2018 05:00:00 5.86667 C 6.41 g/m*3 2.21 C 19.59167 km/h
247 28-01-2018 06:00:00 5.95 C 6.5 g/m*3 2.29 C 19.83333 km/h
248 28-01-2018 07:00:00 6.075 C 6.58 g/m*3 2.22 C 21.83333 km/h
249 28-01-2018 08:00:00 6.125 C 6.71 g/m*3 2.89 C 16.76667 km/h
250 28-01-2018 09:00:00 6.4 C 6.78 g/m*3 3.69 C 13.56667 km/h
Sensor: Nr:Datum:Temp:Abs-Feuchte:Windchill:Wind:
Aussen-T/F 251 28-01-2018 10:00:00 6.925 C 6.95 g/m*3 3.87 C 16.9 km/h
252 28-01-2018 11:00:00 7.51667 C 7.16 g/m*3 4.78 C 15.56667 km/h
253 28-01-2018 12:00:00 7.89167 C 7.29 g/m*3 5.26 C 15.43333 km/h
254 28-01-2018 13:00:00 8.075 C 7.37 g/m*3 6.17 C 10.89167 km/h
255 28-01-2018 14:00:00 8.29167 C 7.5 g/m*3 6.55 C 10.21667 km/h
256 28-01-2018 15:00:00 8.85833 C 7.63 g/m*3 6.85 C 12.5 km/h
257 28-01-2018 16:00:00 8.81667 C 7.58 g/m*3 7.04 C 11.025 km/h
258 28-01-2018 17:00:00 8.71667 C 7.6 g/m*3 7.11 C 9.95 km/h
259 28-01-2018 18:00:00 8.68333 C 7.69 g/m*3 6.73 C 11.95 km/h
260 28-01-2018 19:00:00 8.725 C 7.79 g/m*3 6.56 C 13.43333 km/h
261 28-01-2018 20:00:00 8.675 C 7.77 g/m*3 6.53 C 13.15833 km/h
262 28-01-2018 21:00:00 8.7 C 7.78 g/m*3 7.19 C 9.39167 km/h
263 28-01-2018 22:00:00 8.725 C 7.83 g/m*3 6.95 C 10.9 km/h
264 28-01-2018 23:00:00 8.8 C 7.88 g/m*3 6.8 C 12.36667 km/h
265 29-01-2018 00:00:00 9.05 C 7.93 g/m*3 7.36 C 10.75833 km/h
266 29-01-2018 01:00:00 9.23333 C 7.96 g/m*3 7.93 C 8.875 km/h
267 29-01-2018 02:00:00 9.2 C 8.03 g/m*3 7.91 C 8.75 km/h
268 29-01-2018 03:00:00 9.225 C 8.14 g/m*3 8.21 C 7.50833 km/h
269 29-01-2018 04:00:00 9.48333 C 8.14 g/m*3 7.93 C 10.49167 km/h
270 29-01-2018 05:00:00 9.63333 C 8.21 g/m*3 7.27 C 16.63333 km/h
271 29-01-2018 06:00:00 9.625 C 8.14 g/m*3 7.87 C 11.95833 km/h
272 29-01-2018 07:00:00 9.725 C 8.12 g/m*3 8.03 C 11.69167 km/h
273 29-01-2018 08:00:00 9.8 C 8.07 g/m*3 8.33 C 10.35 km/h
274 29-01-2018 09:00:00 10.01667 C 8.11 g/m*3 7.85 C 15.7 km/h
275 29-01-2018 10:00:00 10.275 C 8.1 g/m*3 8.1 C 16.36667 km/h
Sensor: Nr:Datum:Temp:Abs-Feuchte:Windchill:Wind:
Aussen-T/F 276 29-01-2018 11:00:00 10.4 C 8.08 g/m*3 8.19 C 16.9 km/h
277 29-01-2018 12:00:00 10.41667 C 7.96 g/m*3 8.49 C 14.5 km/h
278 29-01-2018 13:00:00 10.40833 C 7.91 g/m*3 8.72 C 12.63333 km/h
279 29-01-2018 14:00:00 10.60833 C 7.93 g/m*3 9.16 C 11.29167 km/h
280 29-01-2018 15:00:00 10.75 C 7.78 g/m*3 8.88 C 14.63333 km/h
281 29-01-2018 16:00:00 10.475 C 7.8 g/m*3 8.79 C 12.75 km/h
282 29-01-2018 17:00:00 10.31667 C 7.71 g/m*3 8.47 C 13.68333 km/h
283 29-01-2018 18:00:00 10.3 C 7.53 g/m*3 7.86 C 18.91667 km/h
284 29-01-2018 19:00:00 10.1 C 7.66 g/m*3 7.65 C 18.50833 km/h
285 29-01-2018 20:00:00 9.725 C 7.86 g/m*3 6.98 C 20.5 km/h
286 29-01-2018 21:00:00 9.525 C 8.03 g/m*3 6.96 C 18.23333 km/h
287 29-01-2018 22:00:00 9.025 C 8.16 g/m*3 7.4 C 10.35 km/h
288 29-01-2018 23:00:00 8.575 C 7.76 g/m*3 6.73 C 11.15 km/h
289 30-01-2018 00:00:00 7.73333 C 7.22 g/m*3 6.43 C 7.65 km/h
290 30-01-2018 01:00:00 6.80833 C 6.75 g/m*3 5.71 C 6.3 km/h
291 30-01-2018 02:00:00 6.375 C 6.58 g/m*3 6.38 C 3.86667 km/h
292 30-01-2018 03:00:00 6.39167 C 6.65 g/m*3 6.39 C 1.73333 km/h
293 30-01-2018 04:00:00 6.225 C 6.6 g/m*3 6.23 C 1.86667 km/h
294 30-01-2018 05:00:00 5.675 C 6.47 g/m*3 5.68 C 0.4 km/h
295 30-01-2018 06:00:00 5.175 C 6.36 g/m*3 5.18 C 1.46667 km/h
296 30-01-2018 07:00:00 4.725 C 6.25 g/m*3 4.72 C 1.33333 km/h
297 30-01-2018 08:00:00 4.6 C 6.19 g/m*3 4.6 C 1.33333 km/h
298 30-01-2018 09:00:00 3.825 C 5.89 g/m*3 3.83 C 3.35833 km/h
299 30-01-2018 10:00:00 3.64167 C 5.87 g/m*3 3.64 C 2.675 km/h
300 30-01-2018 11:00:00 3.975 C 6.03 g/m*3 3.98 C 1.46667 km/h
Sensor: Nr:Datum:Temp:Abs-Feuchte:Windchill:Wind:
Aussen-T/F 301 30-01-2018 12:00:00 4.85 C 6.36 g/m*3 4.85 C 1.33333 km/h
302 30-01-2018 13:00:00 5.89167 C 6.62 g/m*3 5.89 C 2.4 km/h
303 30-01-2018 14:00:00 7.425 C 6.9 g/m*3 7.43 C 4 km/h
304 30-01-2018 15:00:00 7.90833 C 6.81 g/m*3 7.91 C 4.53333 km/h
305 30-01-2018 16:00:00 7.76667 C 6.32 g/m*3 6.47 C 7.63333 km/h
306 30-01-2018 17:00:00 6.34167 C 6.17 g/m*3 6.34 C 4.8 km/h
307 30-01-2018 18:00:00 4.71667 C 5.98 g/m*3 4.72 C 3.33333 km/h
308 30-01-2018 19:00:00 4.225 C 5.92 g/m*3 4.22 C 0.93333 km/h
309 30-01-2018 20:00:00 3.90833 C 5.88 g/m*3 3.91 C 0 km/h
310 30-01-2018 21:00:00 4.03333 C 5.98 g/m*3 4.03 C 1.06667 km/h
311 30-01-2018 22:00:00 3.89167 C 5.93 g/m*3 3.89 C 0.26667 km/h
312 30-01-2018 23:00:00 3.75833 C 5.93 g/m*3 3.76 C 0.26667 km/h
313 31-01-2018 00:00:00 3.84167 C 5.98 g/m*3 3.84 C 0.13333 km/h
314 31-01-2018 01:00:00 3.96667 C 6.07 g/m*3 3.97 C 1.06667 km/h
315 31-01-2018 02:00:00 4.61667 C 6.36 g/m*3 4.62 C 0.8 km/h
316 31-01-2018 03:00:00 6.50833 C 7.26 g/m*3 6.51 C 2.8 km/h
317 31-01-2018 04:00:00 8.40833 C 8.03 g/m*3 7.79 C 5.49167 km/h
318 31-01-2018 05:00:00 9.40833 C 8.23 g/m*3 8.13 C 8.88333 km/h
319 31-01-2018 06:00:00 9.625 C 8.26 g/m*3 7.85 C 12.09167 km/h
320 31-01-2018 07:00:00 9.31667 C 8.18 g/m*3 7.03 C 15.3 km/h
321 31-01-2018 08:00:00 9.075 C 8.11 g/m*3 6.24 C 19.70833 km/h
322 31-01-2018 09:00:00 8.875 C 8.04 g/m*3 6.04 C 19.175 km/h
323 31-01-2018 10:00:00 9.40833 C 7.97 g/m*3 6.23 C 24.39167 km/h
324 31-01-2018 11:00:00 9.34167 C 7.88 g/m*3 6.73 C 18.23333 km/h
325 31-01-2018 12:00:00 9.38333 C 7.97 g/m*3 7.13 C 15.16667 km/h
Sensor: Nr:Datum:Temp:Abs-Feuchte:Windchill:Wind:
Aussen-T/F 326 31-01-2018 13:00:00 9.11667 C 7.93 g/m*3 7 C 13.7 km/h
327 31-01-2018 14:00:00 8.9 C 7.8 g/m*3 6.85 C 12.9 km/h
328 31-01-2018 15:00:00 8.78333 C 7.7 g/m*3 6.85 C 11.96667 km/h
329 31-01-2018 16:00:00 8.30833 C 7.58 g/m*3 5.7 C 15.96667 km/h
330 31-01-2018 17:00:00 7.56667 C 7.25 g/m*3 4.57 C 17.7 km/h
331 31-01-2018 18:00:00 7.23333 C 7.13 g/m*3 4.82 C 12.9 km/h
332 31-01-2018 19:00:00 6.575 C 6.87 g/m*3 4.39 C 10.75833 km/h
333 31-01-2018 20:00:00 5.83333 C 6.48 g/m*3 3.5 C 10.75 km/h
334 31-01-2018 21:00:00 5.65833 C 6.39 g/m*3 2.81 C 13.43333 km/h
335 31-01-2018 22:00:00 5.60833 C 6.38 g/m*3 3.05 C 11.69167 km/h
336 31-01-2018 23:00:00 5.15833 C 6.17 g/m*3 2.26 C 13.03333 km/h
337 01-02-2018 00:00:00 3.53333 C 5.76 g/m*3 3.53 C 4.275 km/h
338 01-02-2018 01:00:00 3.28333 C 5.73 g/m*3 3.28 C 2.8 km/h
339 01-02-2018 02:00:00 2.8 C 5.57 g/m*3 2.8 C 3.46667 km/h
340 01-02-2018 03:00:00 2.49167 C 5.46 g/m*3 2.49 C 2.4 km/h
341 01-02-2018 04:00:00 1.98333 C 5.31 g/m*3 1.98 C 1.73333 km/h
342 01-02-2018 05:00:00 1.625 C 5.17 g/m*3 1.63 C 1.46667 km/h
343 01-02-2018 06:00:00 1.54167 C 5.16 g/m*3 1.54 C 2.66667 km/h
344 01-02-2018 07:00:00 1.25 C 5.02 g/m*3 1.25 C 2.13333 km/h
345 01-02-2018 08:00:00 1.525 C 5.11 g/m*3 -1.41 C 9.675 km/h
346 01-02-2018 09:00:00 2.43333 C 5.34 g/m*3 0.35 C 7.25 km/h
347 01-02-2018 10:00:00 3.10833 C 5.39 g/m*3 -0.13 C 12.49167 km/h
348 01-02-2018 11:00:00 3.8 C 5.43 g/m*3 0.35 C 14.49167 km/h
349 01-02-2018 12:00:00 4.74167 C 5.52 g/m*3 2.06 C 11.40833 km/h
350 01-02-2018 13:00:00 5.275 C 5.6 g/m*3 2.97 C 10.075 km/h
Sensor: Nr:Datum:Temp:Abs-Feuchte:Windchill:Wind:
Aussen-T/F 351 01-02-2018 14:00:00 5.50833 C 5.53 g/m*3 2.95 C 11.56667 km/h
352 01-02-2018 15:00:00 5.34167 C 5.68 g/m*3 2.83 C 11.15833 km/h
353 01-02-2018 16:00:00 4.9 C 5.73 g/m*3 2.17 C 11.825 km/h
354 01-02-2018 17:00:00 4.225 C 5.62 g/m*3 2.03 C 8.74167 km/h
355 01-02-2018 18:00:00 3.625 C 5.57 g/m*3 3.63 C 3.73333 km/h
356 01-02-2018 19:00:00 2.58333 C 5.28 g/m*3 2.58 C 3.06667 km/h
357 01-02-2018 20:00:00 2.61667 C 5.23 g/m*3 2.62 C 3.46667 km/h
358 01-02-2018 21:00:00 2.25 C 5.09 g/m*3 0.18 C 7.10833 km/h
359 01-02-2018 22:00:00 2.175 C 5.1 g/m*3 -0.08 C 7.64167 km/h
360 01-02-2018 23:00:00 1.84167 C 4.99 g/m*3 1.84 C 4.95833 km/h
361 02-02-2018 00:00:00 1.5 C 4.95 g/m*3 1.5 C 4.95 km/h
362 02-02-2018 01:00:00 1.725 C 5.02 g/m*3 -0.39 C 6.975 km/h
363 02-02-2018 02:00:00 1.60833 C 4.96 g/m*3 1.61 C 3.46667 km/h
364 02-02-2018 03:00:00 1.86667 C 5.02 g/m*3 -0.97 C 9.525 km/h
365 02-02-2018 04:00:00 2.28333 C 5.07 g/m*3 0.34 C 6.725 km/h
366 02-02-2018 05:00:00 2.65 C 5.2 g/m*3 -0.32 C 10.75833 km/h
367 02-02-2018 06:00:00 3.13333 C 5.36 g/m*3 -0.71 C 15.96667 km/h
368 02-02-2018 07:00:00 2.825 C 5.36 g/m*3 -0.53 C 12.76667 km/h
369 02-02-2018 08:00:00 2.65833 C 5.3 g/m*3 0.45 C 7.76667 km/h
370 02-02-2018 09:00:00 2.98333 C 5.34 g/m*3 -0.18 C 11.96667 km/h
371 02-02-2018 10:00:00 3.98333 C 5.58 g/m*3 0.43 C 15.43333 km/h
372 02-02-2018 11:00:00 4.65833 C 5.73 g/m*3 1.39 C 14.63333 km/h
373 02-02-2018 12:00:00 4.28333 C 5.8 g/m*3 0.92 C 14.63333 km/h
374 02-02-2018 13:00:00 4.81667 C 5.92 g/m*3 1.58 C 14.63333 km/h
375 02-02-2018 14:00:00 5.21667 C 5.96 g/m*3 2.34 C 13.03333 km/h
Sensor: Nr:Datum:Temp:Abs-Feuchte:Windchill:Wind:
Aussen-T/F 376 02-02-2018 15:00:00 4.89167 C 6.04 g/m*3 2.89 C 8.46667 km/h
377 02-02-2018 16:00:00 4.60833 C 6.05 g/m*3 4.61 C 4.69167 km/h
378 02-02-2018 17:00:00 4.38333 C 6 g/m*3 2.96 C 6.16667 km/h
379 02-02-2018 18:00:00 3.575 C 5.72 g/m*3 3.58 C 1.6 km/h
380 02-02-2018 19:00:00 3.625 C 5.82 g/m*3 3.63 C 2.53333 km/h
381 02-02-2018 20:00:00 3.75 C 5.81 g/m*3 3.75 C 2.275 km/h
382 02-02-2018 21:00:00 3.68333 C 5.83 g/m*3 3.68 C 0 km/h
383 02-02-2018 22:00:00 3.6 C 5.84 g/m*3 3.6 C 0.4 km/h
384 02-02-2018 23:00:00 3.6 C 5.88 g/m*3 3.6 C 0 km/h
385 03-02-2018 00:00:00 3.5 C 5.84 g/m*3 3.5 C 0.66667 km/h
386 03-02-2018 01:00:00 3.35 C 5.78 g/m*3 3.35 C 0.26667 km/h
387 03-02-2018 02:00:00 3.3 C 5.71 g/m*3 3.3 C 2.53333 km/h
388 03-02-2018 03:00:00 3.3 C 5.7 g/m*3 3.3 C 2.13333 km/h
389 03-02-2018 04:00:00 3.24167 C 5.63 g/m*3 3.24 C 3.46667 km/h
390 03-02-2018 05:00:00 3.26667 C 5.58 g/m*3 1.91 C 5.50833 km/h
391 03-02-2018 06:00:00 3.3 C 5.45 g/m*3 3.3 C 4.95 km/h
392 03-02-2018 07:00:00 3.16667 C 5.34 g/m*3 3.17 C 2.66667 km/h
393 03-02-2018 08:00:00 2.90833 C 5.32 g/m*3 2.91 C 0.13333 km/h
394 03-02-2018 09:00:00 3.075 C 5.44 g/m*3 3.08 C 0.13333 km/h
395 03-02-2018 10:00:00 3.75 C 5.43 g/m*3 3.75 C 2.13333 km/h
396 03-02-2018 11:00:00 4.55 C 5.39 g/m*3 3.54 C 5.08333 km/h
397 03-02-2018 12:00:00 4.69167 C 5.18 g/m*3 3.14 C 6.71667 km/h
398 03-02-2018 13:00:00 5.1 C 5.15 g/m*3 5.1 C 3.75833 km/h
399 03-02-2018 14:00:00 4.93333 C 5.05 g/m*3 4.93 C 1.075 km/h
400 03-02-2018 15:00:00 4.81667 C 5.15 g/m*3 3.01 C 7.65833 km/h
Sensor: Nr:Datum:Temp:Abs-Feuchte:Windchill:Wind:
Aussen-T/F 401 03-02-2018 16:00:00 4.59167 C 5.2 g/m*3 4.59 C 1.46667 km/h
402 03-02-2018 17:00:00 3.91667 C 5.33 g/m*3 3.92 C 0.4 km/h
403 03-02-2018 18:00:00 2.825 C 5.2 g/m*3 2.83 C 0 km/h
404 03-02-2018 19:00:00 2.65 C 5.27 g/m*3 2.65 C 0 km/h
405 03-02-2018 20:00:00 2.44167 C 5.22 g/m*3 2.44 C 0.4 km/h
406 03-02-2018 21:00:00 2.475 C 5.23 g/m*3 2.48 C 1.73333 km/h
407 03-02-2018 22:00:00 1.99167 C 5.09 g/m*3 1.99 C 0.13333 km/h
408 03-02-2018 23:00:00 2.16667 C 5.23 g/m*3 2.17 C 1.6 km/h
409 04-02-2018 00:00:00 2.41667 C 5.27 g/m*3 2.42 C 4.66667 km/h
410 04-02-2018 01:00:00 2.54167 C 5.33 g/m*3 2.54 C 1.46667 km/h
411 04-02-2018 02:00:00 2.45 C 5.33 g/m*3 2.45 C 0.66667 km/h
412 04-02-2018 03:00:00 2.4 C 5.36 g/m*3 2.4 C 1.46667 km/h
413 04-02-2018 04:00:00 2.4 C 5.37 g/m*3 2.4 C 2.4 km/h
414 04-02-2018 05:00:00 2.475 C 5.39 g/m*3 2.48 C 1.73333 km/h
415 04-02-2018 06:00:00 2.14167 C 5.26 g/m*3 -0.84 C 10.35 km/h
416 04-02-2018 07:00:00 1.54167 C 4.92 g/m*3 -1.92 C 11.95833 km/h
417 04-02-2018 08:00:00 0.94167 C 4.51 g/m*3 -3.45 C 16.1 km/h
418 04-02-2018 09:00:00 0.525 C 4.29 g/m*3 -2.78 C 10.35833 km/h
419 04-02-2018 10:00:00 0.23333 C 4.29 g/m*3 -2.73 C 8.875 km/h
420 04-02-2018 11:00:00 0.41667 C 4.18 g/m*3 -3.23 C 11.69167 km/h
421 04-02-2018 12:00:00 0.65833 C 3.95 g/m*3 -3.2 C 12.9 km/h
422 04-02-2018 13:00:00 1.04167 C 3.93 g/m*3 -2.53 C 11.96667 km/h
423 04-02-2018 14:00:00 1.54167 C 3.85 g/m*3 -1.87 C 11.7 km/h
424 04-02-2018 15:00:00 1.49167 C 3.93 g/m*3 -1.65 C 10.48333 km/h
425 04-02-2018 16:00:00 1.3 C 4.11 g/m*3 -1.98 C 10.89167 km/h
Sensor: Nr:Datum:Temp:Abs-Feuchte:Windchill:Wind:
Aussen-T/F 426 04-02-2018 17:00:00 0.8 C 4.21 g/m*3 -2.7 C 11.425 km/h
427 04-02-2018 18:00:00 0.30833 C 4.35 g/m*3 -2.68 C 9.00833 km/h
428 04-02-2018 19:00:00 -0.05833 C 4.39 g/m*3 -2.56 C 7.24167 km/h
429 04-02-2018 20:00:00 -0.05833 C 4.39 g/m*3 -0.06 C 3.35 km/h
430 04-02-2018 21:00:00 0 C 4.41 g/m*3 0 C 4.40833 km/h
431 04-02-2018 22:00:00 -0.09167 C 4.37 g/m*3 -0.09 C 0.4 km/h
432 04-02-2018 23:00:00 0.025 C 4.4 g/m*3 0.03 C 1.06667 km/h
433 05-02-2018 00:00:00 0.14167 C 4.32 g/m*3 0.14 C 1.73333 km/h
434 05-02-2018 01:00:00 0.34167 C 4.24 g/m*3 0.34 C 4.55833 km/h
435 05-02-2018 02:00:00 0.4 C 4.23 g/m*3 0.4 C 2.4 km/h
436 05-02-2018 03:00:00 0.4 C 4.21 g/m*3 0.4 C 2.675 km/h
437 05-02-2018 04:00:00 0.4 C 4.23 g/m*3 0.4 C 3.48333 km/h
438 05-02-2018 05:00:00 0.38333 C 4.23 g/m*3 -1.42 C 5.60833 km/h
439 05-02-2018 06:00:00 0.3 C 4.25 g/m*3 0.3 C 1.2 km/h
440 05-02-2018 07:00:00 0.18333 C 4.21 g/m*3 0.18 C 2.40833 km/h
441 05-02-2018 08:00:00 -0.525 C 4.01 g/m*3 -0.53 C 4.54167 km/h
442 05-02-2018 09:00:00 -1.04167 C 3.95 g/m*3 -1.04 C 0.66667 km/h
443 05-02-2018 10:00:00 -0.875 C 4.01 g/m*3 -0.88 C 2.275 km/h
444 05-02-2018 11:00:00 0.325 C 4.09 g/m*3 -1.83 C 6.45 km/h
445 05-02-2018 12:00:00 1.19167 C 4.12 g/m*3 -1.05 C 7.10833 km/h
446 05-02-2018 13:00:00 1.85833 C 4.16 g/m*3 -0.05 C 6.43333 km/h
447 05-02-2018 14:00:00 2.49167 C 4.21 g/m*3 1.15 C 5.21667 km/h
448 05-02-2018 15:00:00 2.88333 C 4.21 g/m*3 0.79 C 7.525 km/h
449 05-02-2018 16:00:00 2.6 C 4.23 g/m*3 0.67 C 6.85 km/h
450 05-02-2018 17:00:00 1.05 C 4.21 g/m*3 1.05 C 2.4 km/h
Sensor: Nr:Datum:Temp:Abs-Feuchte:Windchill:Wind:
Aussen-T/F 451 05-02-2018 18:00:00 -0.05833 C 4.11 g/m*3 -0.06 C 2 km/h
452 05-02-2018 19:00:00 -0.225 C 4.03 g/m*3 -2.13 C 5.64167 km/h
453 05-02-2018 20:00:00 -0.56667 C 3.9 g/m*3 -0.57 C 3.73333 km/h
454 05-02-2018 21:00:00 -0.56667 C 3.88 g/m*3 -0.57 C 2.93333 km/h
455 05-02-2018 22:00:00 -1.45 C 3.75 g/m*3 -1.45 C 1.2 km/h
456 05-02-2018 23:00:00 -1.85833 C 3.69 g/m*3 -1.86 C 1.2 km/h
457 06-02-2018 00:00:00 -2.16667 C 3.62 g/m*3 -2.17 C 1.2 km/h
458 06-02-2018 01:00:00 -2.275 C 3.63 g/m*3 -2.28 C 0.26667 km/h
459 06-02-2018 02:00:00 -1.775 C 3.69 g/m*3 -1.78 C 2.40833 km/h
460 06-02-2018 03:00:00 -1.3 C 3.7 g/m*3 -1.3 C 2.53333 km/h
461 06-02-2018 04:00:00 -1.23333 C 3.68 g/m*3 -1.23 C 2.54167 km/h
462 06-02-2018 05:00:00 -1.05 C 3.75 g/m*3 -1.05 C 2 km/h
463 06-02-2018 06:00:00 -0.83333 C 3.78 g/m*3 -0.83 C 4.81667 km/h
464 06-02-2018 07:00:00 -0.8 C 3.79 g/m*3 -0.8 C 4.28333 km/h
465 06-02-2018 08:00:00 -0.86667 C 3.89 g/m*3 -0.87 C 4.69167 km/h
466 06-02-2018 09:00:00 -1.075 C 4.04 g/m*3 -3.38 C 6.3 km/h
467 06-02-2018 10:00:00 -0.85 C 4.13 g/m*3 -2.71 C 5.34167 km/h
468 06-02-2018 11:00:00 -0.58333 C 4.22 g/m*3 -2.71 C 6.03333 km/h
469 06-02-2018 12:00:00 -0.46667 C 4.27 g/m*3 -2.72 C 6.40833 km/h
470 06-02-2018 13:00:00 -0.55 C 4.31 g/m*3 -2.66 C 6.00833 km/h
471 06-02-2018 14:00:00 -0.325 C 4.43 g/m*3 -2.18 C 5.48333 km/h
472 06-02-2018 15:00:00 -0.06667 C 4.47 g/m*3 -0.07 C 4.13333 km/h
473 06-02-2018 16:00:00 0.15 C 4.43 g/m*3 -1.52 C 5.21667 km/h
474 06-02-2018 17:00:00 0.13333 C 4.42 g/m*3 0.13 C 0.13333 km/h
475 06-02-2018 18:00:00 -0.15833 C 4.39 g/m*3 -0.16 C 0 km/h
Sensor: Nr:Datum:Temp:Abs-Feuchte:Windchill:Wind:
Aussen-T/F 476 06-02-2018 19:00:00 -0.075 C 4.43 g/m*3 -0.08 C 0.53333 km/h
477 06-02-2018 20:00:00 -0.31667 C 4.36 g/m*3 -0.32 C 0.26667 km/h
478 06-02-2018 21:00:00 -0.45833 C 4.35 g/m*3 -0.46 C 0 km/h
479 06-02-2018 22:00:00 -0.54167 C 4.34 g/m*3 -0.54 C 0 km/h
480 06-02-2018 23:00:00 -1.25 C 4.12 g/m*3 -1.25 C 0.53333 km/h
481 07-02-2018 00:00:00 -1.28333 C 4.17 g/m*3 -1.28 C 0.26667 km/h
482 07-02-2018 01:00:00 -0.69167 C 4.35 g/m*3 -0.69 C 0.13333 km/h
483 07-02-2018 02:00:00 -0.6 C 4.37 g/m*3 -0.6 C 0 km/h
484 07-02-2018 03:00:00 -0.6 C 4.37 g/m*3 -0.6 C 0 km/h
485 07-02-2018 04:00:00 -0.68333 C 4.34 g/m*3 -0.68 C 0.4 km/h
486 07-02-2018 05:00:00 -1.03333 C 4.26 g/m*3 -1.03 C 0.66667 km/h
487 07-02-2018 06:00:00 -0.76667 C 4.36 g/m*3 -0.77 C 0.13333 km/h
488 07-02-2018 07:00:00 -0.675 C 4.37 g/m*3 -0.68 C 0.4 km/h
489 07-02-2018 08:00:00 -0.63333 C 4.37 g/m*3 -0.63 C 0 km/h
490 07-02-2018 09:00:00 -0.025 C 4.55 g/m*3 -0.03 C 0.4 km/h
491 07-02-2018 10:00:00 0.48333 C 4.65 g/m*3 0.48 C 1.6 km/h
492 07-02-2018 11:00:00 0.8 C 4.66 g/m*3 0.8 C 1.86667 km/h
493 07-02-2018 12:00:00 1.44167 C 4.74 g/m*3 1.44 C 3.73333 km/h
494 07-02-2018 13:00:00 1.51667 C 4.73 g/m*3 -1.01 C 8.19167 km/h
495 07-02-2018 14:00:00 1.36667 C 4.68 g/m*3 -1.6 C 9.66667 km/h
496 07-02-2018 15:00:00 1.11667 C 4.63 g/m*3 -1.28 C 7.51667 km/h
497 07-02-2018 16:00:00 0.7 C 4.52 g/m*3 -2.54 C 10.225 km/h
498 07-02-2018 17:00:00 0.44167 C 4.46 g/m*3 0.44 C 4.95833 km/h
499 07-02-2018 18:00:00 0.40833 C 4.47 g/m*3 0.41 C 2.13333 km/h
500 07-02-2018 19:00:00 0.05833 C 4.38 g/m*3 0.06 C 0.93333 km/h
Sensor: Nr:Datum:Temp:Abs-Feuchte:Windchill:Wind:
Aussen-T/F 501 07-02-2018 20:00:00 -0.46667 C 4.22 g/m*3 -0.47 C 2.93333 km/h
502 07-02-2018 21:00:00 -0.9 C 4.13 g/m*3 -0.9 C 2.4 km/h
503 07-02-2018 22:00:00 -0.74167 C 4.14 g/m*3 -0.74 C 1.20833 km/h
504 07-02-2018 23:00:00 -0.7 C 4.15 g/m*3 -0.7 C 0.26667 km/h
505 08-02-2018 00:00:00 -0.88333 C 4.06 g/m*3 -0.88 C 1.46667 km/h
506 08-02-2018 01:00:00 -1.03333 C 3.97 g/m*3 -1.03 C 2 km/h
507 08-02-2018 02:00:00 -1.34167 C 3.89 g/m*3 -1.34 C 0.53333 km/h
508 08-02-2018 03:00:00 -2.21667 C 3.72 g/m*3 -2.22 C 0.4 km/h
509 08-02-2018 04:00:00 -2.81667 C 3.59 g/m*3 -2.82 C 1.06667 km/h
510 08-02-2018 05:00:00 -3.18333 C 3.53 g/m*3 -3.18 C 1.6 km/h
511 08-02-2018 06:00:00 -3.33333 C 3.47 g/m*3 -3.33 C 4.28333 km/h
512 08-02-2018 07:00:00 -3.99167 C 3.31 g/m*3 -3.99 C 1.6 km/h
513 08-02-2018 08:00:00 -4.33333 C 3.29 g/m*3 -4.33 C 0.93333 km/h
514 08-02-2018 09:00:00 -3.95833 C 3.41 g/m*3 -3.96 C 0.13333 km/h
515 08-02-2018 10:00:00 -3.18333 C 3.57 g/m*3 -3.18 C 0.4 km/h
516 08-02-2018 11:00:00 -1.91667 C 3.77 g/m*3 -1.92 C 1.86667 km/h
517 08-02-2018 12:00:00 -1 C 3.84 g/m*3 -1 C 3.06667 km/h
518 08-02-2018 13:00:00 -0.45 C 3.94 g/m*3 -0.45 C 0.4 km/h
519 08-02-2018 14:00:00 0.29167 C 4.03 g/m*3 0.29 C 0.8 km/h
520 08-02-2018 15:00:00 0.8 C 4.06 g/m*3 0.8 C 1.06667 km/h
521 08-02-2018 16:00:00 0.56667 C 4.11 g/m*3 0.57 C 0.13333 km/h
522 08-02-2018 17:00:00 -0.79167 C 4 g/m*3 -0.79 C 4.13333 km/h
523 08-02-2018 18:00:00 -1.61667 C 3.85 g/m*3 -1.62 C 3.33333 km/h
524 08-02-2018 19:00:00 -2.39167 C 3.72 g/m*3 -2.39 C 0 km/h
525 08-02-2018 20:00:00 -3.125 C 3.57 g/m*3 -3.13 C 0 km/h
Sensor: Nr:Datum:Temp:Abs-Feuchte:Windchill:Wind:
Aussen-T/F 526 08-02-2018 21:00:00 -3.79167 C 3.42 g/m*3 -3.79 C 0 km/h
527 08-02-2018 22:00:00 -4.225 C 3.32 g/m*3 -4.22 C 0 km/h
528 08-02-2018 23:00:00 -4.59167 C 3.26 g/m*3 -4.59 C 0 km/h
529 09-02-2018 00:00:00 -4.90833 C 3.19 g/m*3 -4.91 C 0 km/h
530 09-02-2018 01:00:00 -5.00833 C 3.2 g/m*3 -5.01 C 0 km/h
531 09-02-2018 02:00:00 -5.31667 C 3.13 g/m*3 -5.32 C 0 km/h
532 09-02-2018 03:00:00 -5.54167 C 3.08 g/m*3 -5.54 C 0.4 km/h
533 09-02-2018 04:00:00 -5.81667 C 3.02 g/m*3 -5.82 C 0 km/h
534 09-02-2018 05:00:00 -5.55833 C 3.1 g/m*3 -5.56 C 0 km/h
535 09-02-2018 06:00:00 -5.13333 C 3.2 g/m*3 -5.13 C 0 km/h
536 09-02-2018 07:00:00 -4.75833 C 3.29 g/m*3 -4.76 C 0.66667 km/h
537 09-02-2018 08:00:00 -3.79167 C 3.53 g/m*3 -3.79 C 0.13333 km/h
538 09-02-2018 09:00:00 -2.65 C 3.84 g/m*3 -2.65 C 0 km/h
539 09-02-2018 10:00:00 -1.625 C 4.11 g/m*3 -1.63 C 0 km/h
540 09-02-2018 11:00:00 -0.54167 C 4.4 g/m*3 -0.54 C 0.13333 km/h
541 09-02-2018 12:00:00 0.24167 C 4.42 g/m*3 -1.81 C 6.16667 km/h
542 09-02-2018 13:00:00 0.675 C 4.41 g/m*3 -1.36 C 6.29167 km/h
543 09-02-2018 14:00:00 0.8 C 4.43 g/m*3 0.8 C 4.8 km/h
544 09-02-2018 15:00:00 0.8 C 4.47 g/m*3 0.8 C 2.66667 km/h
545 09-02-2018 16:00:00 0.78333 C 4.53 g/m*3 0.78 C 2.8 km/h
546 09-02-2018 17:00:00 0.65 C 4.56 g/m*3 0.65 C 0 km/h
547 09-02-2018 18:00:00 0.525 C 4.57 g/m*3 0.53 C 0.53333 km/h
548 09-02-2018 19:00:00 0.16667 C 4.48 g/m*3 0.17 C 1.2 km/h
549 09-02-2018 20:00:00 -0.50833 C 4.31 g/m*3 -0.51 C 0.93333 km/h
550 09-02-2018 21:00:00 -0.325 C 4.41 g/m*3 -0.33 C 0 km/h
Sensor: Nr:Datum:Temp:Abs-Feuchte:Windchill:Wind:
Aussen-T/F 551 09-02-2018 22:00:00 -0.175 C 4.46 g/m*3 -0.18 C 0 km/h
552 09-02-2018 23:00:00 -0.025 C 4.55 g/m*3 -0.03 C 0 km/h
553 10-02-2018 00:00:00 0.25 C 4.59 g/m*3 0.25 C 0.66667 km/h
554 10-02-2018 01:00:00 0.61667 C 4.61 g/m*3 0.62 C 1.86667 km/h
555 10-02-2018 02:00:00 1.01667 C 4.69 g/m*3 1.02 C 2.8 km/h
556 10-02-2018 03:00:00 1.14167 C 4.72 g/m*3 1.14 C 2.80833 km/h
557 10-02-2018 04:00:00 1.275 C 4.81 g/m*3 1.27 C 3.60833 km/h
558 10-02-2018 05:00:00 1.2 C 4.83 g/m*3 1.2 C 2.00833 km/h
559 10-02-2018 06:00:00 1.33333 C 4.86 g/m*3 -0.4 C 5.75833 km/h
560 10-02-2018 07:00:00 1.49167 C 4.88 g/m*3 -0.66 C 6.975 km/h
561 10-02-2018 08:00:00 1.39167 C 4.85 g/m*3 -0.22 C 5.49167 km/h
562 10-02-2018 09:00:00 1.55 C 4.9 g/m*3 1.55 C 4.15833 km/h
563 10-02-2018 10:00:00 2.04167 C 4.95 g/m*3 0.02 C 6.84167 km/h
564 10-02-2018 11:00:00 2.775 C 5.04 g/m*3 1.26 C 5.75833 km/h
565 10-02-2018 12:00:00 3.4 C 5.15 g/m*3 0.67 C 10.35833 km/h
566 10-02-2018 13:00:00 3.85833 C 5.24 g/m*3 0.68 C 13.03333 km/h
567 10-02-2018 14:00:00 4.31667 C 5.36 g/m*3 1.17 C 13.43333 km/h
568 10-02-2018 15:00:00 4.26667 C 5.4 g/m*3 2.37 C 7.65833 km/h
569 10-02-2018 16:00:00 3.96667 C 5.39 g/m*3 2.26 C 6.84167 km/h
570 10-02-2018 17:00:00 3.35 C 5.33 g/m*3 1.18 C 8.05833 km/h
571 10-02-2018 18:00:00 3.025 C 5.3 g/m*3 1.59 C 5.625 km/h
572 10-02-2018 19:00:00 3.10833 C 5.29 g/m*3 0.97 C 7.79167 km/h
573 10-02-2018 20:00:00 2.83333 C 5.09 g/m*3 0.98 C 6.71667 km/h
574 10-02-2018 21:00:00 1.9 C 4.77 g/m*3 1.9 C 3.2 km/h
575 10-02-2018 22:00:00 1.51667 C 4.62 g/m*3 1.52 C 4.41667 km/h
Sensor: Nr:Datum:Temp:Abs-Feuchte:Windchill:Wind:
Aussen-T/F 576 10-02-2018 23:00:00 1.71667 C 4.62 g/m*3 -0.74 C 8.05833 km/h
577 11-02-2018 00:00:00 1.95 C 4.61 g/m*3 0.42 C 5.49167 km/h
578 11-02-2018 01:00:00 1.98333 C 4.66 g/m*3 1.98 C 4.13333 km/h
579 11-02-2018 02:00:00 2.225 C 4.64 g/m*3 2.23 C 4.55 km/h
580 11-02-2018 03:00:00 2.35 C 4.59 g/m*3 0.62 C 6.16667 km/h
581 11-02-2018 04:00:00 2.525 C 4.64 g/m*3 0.92 C 5.88333 km/h
582 11-02-2018 05:00:00 2.63333 C 4.79 g/m*3 0.85 C 6.44167 km/h
583 11-02-2018 06:00:00 2.08333 C 4.91 g/m*3 2.08 C 3.06667 km/h
584 11-02-2018 07:00:00 2.24167 C 4.97 g/m*3 2.24 C 3.075 km/h
585 11-02-2018 08:00:00 2.98333 C 5.16 g/m*3 0.68 C 8.31667 km/h
586 11-02-2018 09:00:00 3.4 C 5.29 g/m*3 3.4 C 4.68333 km/h
587 11-02-2018 10:00:00 3.80833 C 5.45 g/m*3 0.07 C 16.35833 km/h
588 11-02-2018 11:00:00 4.125 C 5.53 g/m*3 -0.38 C 22.90833 km/h
589 11-02-2018 12:00:00 5.05 C 5.77 g/m*3 2.06 C 13.425 km/h
590 11-02-2018 13:00:00 5.81667 C 5.81 g/m*3 2.71 C 15.3 km/h
591 11-02-2018 14:00:00 5.94167 C 5.95 g/m*3 3.43 C 11.83333 km/h
592 11-02-2018 15:00:00 5.86667 C 6 g/m*3 2.81 C 15.03333 km/h
593 11-02-2018 16:00:00 5.56667 C 5.97 g/m*3 3 C 11.69167 km/h
594 11-02-2018 17:00:00 4.94167 C 5.77 g/m*3 2.98 C 8.31667 km/h
595 11-02-2018 18:00:00 3.8 C 5.49 g/m*3 2.29 C 6.16667 km/h
596 11-02-2018 19:00:00 2.86667 C 5.37 g/m*3 0.94 C 6.96667 km/h
597 11-02-2018 20:00:00 2.4 C 5.26 g/m*3 2.4 C 4.825 km/h
598 11-02-2018 21:00:00 2.00833 C 5.25 g/m*3 2.01 C 2.8 km/h
599 11-02-2018 22:00:00 1.5 C 5.09 g/m*3 1.5 C 2.4 km/h
600 11-02-2018 23:00:00 1.74167 C 5.19 g/m*3 1.74 C 3.46667 km/h
Sensor: Nr:Datum:Temp:Abs-Feuchte:Windchill:Wind:
Aussen-T/F 601 12-02-2018 00:00:00 1.78333 C 5.23 g/m*3 -0.78 C 8.46667 km/h
602 12-02-2018 01:00:00 1.68333 C 5.17 g/m*3 1.68 C 4.425 km/h
603 12-02-2018 02:00:00 1.475 C 5.12 g/m*3 1.48 C 1.33333 km/h
604 12-02-2018 03:00:00 1.35 C 5.09 g/m*3 1.35 C 3.34167 km/h
605 12-02-2018 04:00:00 1.25 C 5.07 g/m*3 1.25 C 3.46667 km/h
606 12-02-2018 05:00:00 1.13333 C 5.03 g/m*3 1.13 C 4.41667 km/h
607 12-02-2018 06:00:00 1.11667 C 5.02 g/m*3 1.12 C 1.46667 km/h
608 12-02-2018 07:00:00 1.05 C 5 g/m*3 1.05 C 3.34167 km/h
609 12-02-2018 08:00:00 1.14167 C 5 g/m*3 -0.97 C 6.69167 km/h
610 12-02-2018 09:00:00 1.725 C 5.14 g/m*3 -0.6 C 7.64167 km/h
611 12-02-2018 10:00:00 2.44167 C 5.25 g/m*3 -0.01 C 8.48333 km/h
612 12-02-2018 11:00:00 3.04167 C 5.17 g/m*3 0.03 C 11.3 km/h
613 12-02-2018 12:00:00 3.59167 C 4.94 g/m*3 0.33 C 13.16667 km/h
614 12-02-2018 13:00:00 4.71667 C 4.85 g/m*3 1.29 C 15.7 km/h
615 12-02-2018 14:00:00 4.7 C 4.42 g/m*3 1.5 C 14.23333 km/h
616 12-02-2018 15:00:00 4.74167 C 4.38 g/m*3 1.34 C 15.56667 km/h
617 12-02-2018 16:00:00 4.50833 C 4.32 g/m*3 1.8 C 11.3 km/h
618 12-02-2018 17:00:00 3.43333 C 4.4 g/m*3 1.59 C 6.98333 km/h
619 12-02-2018 18:00:00 2.20833 C 4.37 g/m*3 0.88 C 5.08333 km/h
620 12-02-2018 19:00:00 1.69167 C 4.43 g/m*3 1.69 C 3.60833 km/h
621 12-02-2018 20:00:00 0.90833 C 4.38 g/m*3 0.91 C 2.8 km/h
622 12-02-2018 21:00:00 0.40833 C 4.36 g/m*3 0.41 C 3.875 km/h
623 12-02-2018 22:00:00 0.61667 C 4.36 g/m*3 0.62 C 2 km/h
624 12-02-2018 23:00:00 -0.175 C 4.26 g/m*3 -0.18 C 0 km/h
625 13-02-2018 00:00:00 -0.81667 C 4.13 g/m*3 -0.82 C 0 km/h
Sensor: Nr:Datum:Temp:Abs-Feuchte:Windchill:Wind:
Aussen-T/F 626 13-02-2018 01:00:00 -1.46667 C 3.98 g/m*3 -1.47 C 0.26667 km/h
627 13-02-2018 02:00:00 -1.71667 C 3.93 g/m*3 -1.72 C 0.4 km/h
628 13-02-2018 03:00:00 -1.23333 C 4.1 g/m*3 -1.23 C 2 km/h
629 13-02-2018 04:00:00 -1.1 C 4.05 g/m*3 -1.1 C 0.4 km/h
630 13-02-2018 05:00:00 -2.01667 C 3.83 g/m*3 -2.02 C 0 km/h
631 13-02-2018 06:00:00 -2.55833 C 3.76 g/m*3 -2.56 C 0 km/h
632 13-02-2018 07:00:00 -2.94167 C 3.7 g/m*3 -2.94 C 0 km/h
633 13-02-2018 08:00:00 -3.08333 C 3.67 g/m*3 -3.08 C 0 km/h
634 13-02-2018 09:00:00 -2.775 C 3.78 g/m*3 -2.78 C 0 km/h
635 13-02-2018 10:00:00 -2.05 C 3.99 g/m*3 -2.05 C 0.66667 km/h
636 13-02-2018 11:00:00 0.19167 C 4.6 g/m*3 0.19 C 3.475 km/h
637 13-02-2018 12:00:00 3.075 C 4.56 g/m*3 1.02 C 7.5 km/h
638 13-02-2018 13:00:00 4.35833 C 4.31 g/m*3 2.97 C 6.03333 km/h
639 13-02-2018 14:00:00 4.46667 C 4.17 g/m*3 2.8 C 6.975 km/h
640 13-02-2018 15:00:00 4.14167 C 4.23 g/m*3 2.87 C 5.63333 km/h
641 13-02-2018 16:00:00 3.125 C 4.44 g/m*3 3.13 C 2.26667 km/h
642 13-02-2018 17:00:00 1.81667 C 4.27 g/m*3 1.82 C 2 km/h
643 13-02-2018 18:00:00 0.14167 C 4.05 g/m*3 0.14 C 1.73333 km/h
644 13-02-2018 19:00:00 -0.6 C 3.91 g/m*3 -0.6 C 4.26667 km/h
645 13-02-2018 20:00:00 -1.11667 C 3.8 g/m*3 -1.12 C 0.53333 km/h
646 13-02-2018 21:00:00 -1.49167 C 3.75 g/m*3 -1.49 C 2.53333 km/h
647 13-02-2018 22:00:00 -1.76667 C 3.7 g/m*3 -1.77 C 1.86667 km/h
648 13-02-2018 23:00:00 -2.425 C 3.58 g/m*3 -2.42 C 0.13333 km/h
649 14-02-2018 00:00:00 -3.00833 C 3.51 g/m*3 -3.01 C 0.66667 km/h
650 14-02-2018 01:00:00 -3.31667 C 3.46 g/m*3 -3.32 C 0 km/h
Sensor: Nr:Datum:Temp:Abs-Feuchte:Windchill:Wind:
Aussen-T/F 651 14-02-2018 02:00:00 -3.79167 C 3.36 g/m*3 -3.79 C 0 km/h
652 14-02-2018 03:00:00 -4.10833 C 3.31 g/m*3 -4.11 C 0 km/h
653 14-02-2018 04:00:00 -4.425 C 3.26 g/m*3 -4.43 C 0 km/h
654 14-02-2018 05:00:00 -4.75833 C 3.19 g/m*3 -4.76 C 0 km/h
655 14-02-2018 06:00:00 -5.15833 C 3.11 g/m*3 -5.16 C 0 km/h
656 14-02-2018 07:00:00 -5.35833 C 3.09 g/m*3 -5.36 C 0 km/h
657 14-02-2018 08:00:00 -5.45 C 3.09 g/m*3 -5.45 C 0 km/h
658 14-02-2018 09:00:00 -5.05833 C 3.19 g/m*3 -5.06 C 0 km/h
659 14-02-2018 10:00:00 -3.84167 C 3.51 g/m*3 -3.84 C 0.8 km/h
660 14-02-2018 11:00:00 -1.35833 C 4.07 g/m*3 -1.36 C 1.06667 km/h
661 14-02-2018 12:00:00 1.69167 C 4.08 g/m*3 -0.6 C 7.51667 km/h
662 14-02-2018 13:00:00 3.7 C 3.73 g/m*3 1.31 C 9.14167 km/h
663 14-02-2018 14:00:00 4.15833 C 3.6 g/m*3 2.24 C 7.65 km/h
664 14-02-2018 15:00:00 4.325 C 3.81 g/m*3 2.89 C 6.175 km/h
665 14-02-2018 16:00:00 3.625 C 4.02 g/m*3 3.63 C 2.26667 km/h
666 14-02-2018 17:00:00 1.38333 C 4.06 g/m*3 1.38 C 4.93333 km/h
667 14-02-2018 18:00:00 -0.25833 C 3.93 g/m*3 -1.91 C 5.06667 km/h
668 14-02-2018 19:00:00 -0.7 C 3.85 g/m*3 -0.7 C 3.86667 km/h
669 14-02-2018 20:00:00 -1.05 C 3.81 g/m*3 -1.05 C 0.4 km/h
670 14-02-2018 21:00:00 -1.2 C 3.8 g/m*3 -1.2 C 1.33333 km/h
671 14-02-2018 22:00:00 -1.40833 C 3.79 g/m*3 -1.41 C 1.06667 km/h
672 14-02-2018 23:00:00 -1.16667 C 3.85 g/m*3 -1.17 C 1.33333 km/h
673 15-02-2018 00:00:00 -0.06667 C 3.92 g/m*3 -0.07 C 3.60833 km/h
674 15-02-2018 01:00:00 1.10833 C 3.89 g/m*3 -0.49 C 5.35833 km/h
675 15-02-2018 02:00:00 1.39167 C 3.85 g/m*3 -0.59 C 6.43333 km/h
Sensor: Nr:Datum:Temp:Abs-Feuchte:Windchill:Wind:
Aussen-T/F 676 15-02-2018 03:00:00 1.49167 C 3.82 g/m*3 0.01 C 5.21667 km/h
677 15-02-2018 04:00:00 1.425 C 3.85 g/m*3 -0.34 C 5.89167 km/h
678 15-02-2018 05:00:00 1.48333 C 3.97 g/m*3 1.48 C 4.675 km/h
679 15-02-2018 06:00:00 0.60833 C 4.4 g/m*3 0.61 C 4.94167 km/h
680 15-02-2018 07:00:00 0.05 C 4.51 g/m*3 0.05 C 2.80833 km/h
681 15-02-2018 08:00:00 0.00833 C 4.56 g/m*3 0.01 C 1.6 km/h
682 15-02-2018 09:00:00 0.375 C 4.67 g/m*3 0.38 C 2.26667 km/h
683 15-02-2018 10:00:00 1.13333 C 4.87 g/m*3 1.13 C 0.13333 km/h
684 15-02-2018 11:00:00 1.84167 C 5.07 g/m*3 1.84 C 0.26667 km/h
685 15-02-2018 12:00:00 2.23333 C 5.25 g/m*3 2.23 C 0.53333 km/h
686 15-02-2018 13:00:00 2.58333 C 5.42 g/m*3 2.58 C 0 km/h
687 15-02-2018 14:00:00 2.69167 C 5.48 g/m*3 2.69 C 0.13333 km/h
688 15-02-2018 15:00:00 2.775 C 5.55 g/m*3 2.78 C 0 km/h
689 15-02-2018 16:00:00 2.59167 C 5.49 g/m*3 2.59 C 0.13333 km/h
690 15-02-2018 17:00:00 2.51667 C 5.5 g/m*3 2.52 C 1.73333 km/h
691 15-02-2018 18:00:00 2.63333 C 5.57 g/m*3 2.63 C 2 km/h
692 15-02-2018 19:00:00 2.83333 C 5.64 g/m*3 2.83 C 2.26667 km/h
693 15-02-2018 20:00:00 2.95 C 5.7 g/m*3 2.95 C 3.33333 km/h
694 15-02-2018 21:00:00 2.99167 C 5.7 g/m*3 2.99 C 2.13333 km/h
695 15-02-2018 22:00:00 3.31667 C 5.87 g/m*3 3.32 C 3.2 km/h
696 15-02-2018 23:00:00 3.025 C 5.77 g/m*3 3.03 C 0.93333 km/h
697 16-02-2018 00:00:00 2.93333 C 5.74 g/m*3 2.93 C 1.86667 km/h
698 16-02-2018 01:00:00 2.125 C 5.4 g/m*3 2.13 C 0.26667 km/h
699 16-02-2018 02:00:00 1.63333 C 5.23 g/m*3 1.63 C 0.4 km/h
700 16-02-2018 03:00:00 1.69167 C 5.28 g/m*3 1.69 C 0.53333 km/h
Sensor: Nr:Datum:Temp:Abs-Feuchte:Windchill:Wind:
Aussen-T/F 701 16-02-2018 04:00:00 1.65833 C 5.27 g/m*3 1.66 C 0 km/h
702 16-02-2018 05:00:00 1.43333 C 5.19 g/m*3 1.43 C 0 km/h
703 16-02-2018 06:00:00 1.125 C 5.08 g/m*3 1.13 C 0.93333 km/h
704 16-02-2018 07:00:00 0.98333 C 5.03 g/m*3 0.98 C 0.93333 km/h
705 16-02-2018 08:00:00 1.06667 C 5.06 g/m*3 1.07 C 1.86667 km/h
706 16-02-2018 09:00:00 1.60833 C 5.25 g/m*3 1.61 C 0.8 km/h
707 16-02-2018 10:00:00 2.60833 C 5.63 g/m*3 2.61 C 0.93333 km/h
708 16-02-2018 11:00:00 3.05833 C 5.79 g/m*3 3.06 C 3.86667 km/h
709 16-02-2018 12:00:00 3.55 C 5.98 g/m*3 3.55 C 4 km/h
710 16-02-2018 13:00:00 4.13333 C 6.22 g/m*3 4.13 C 1.86667 km/h
711 16-02-2018 14:00:00 4.45 C 6.31 g/m*3 4.45 C 1.86667 km/h
712 16-02-2018 15:00:00 4.3 C 6.23 g/m*3 4.3 C 3.33333 km/h
713 16-02-2018 16:00:00 4.33333 C 6.2 g/m*3 4.33 C 4.4 km/h
714 16-02-2018 17:00:00 3.46667 C 5.8 g/m*3 1.82 C 6.4 km/h
715 16-02-2018 18:00:00 2.2 C 5.3 g/m*3 0.88 C 5.06667 km/h
716 16-02-2018 19:00:00 1.31667 C 5.03 g/m*3 1.32 C 0.93333 km/h
717 16-02-2018 20:00:00 0.51667 C 4.77 g/m*3 0.52 C 0.13333 km/h
718 16-02-2018 21:00:00 -0.25833 C 4.52 g/m*3 -0.26 C 0 km/h
719 16-02-2018 22:00:00 -0.59167 C 4.46 g/m*3 -0.59 C 0 km/h
720 16-02-2018 23:00:00 -0.95833 C 4.35 g/m*3 -0.96 C 0 km/h
721 17-02-2018 00:00:00 -1.275 C 4.26 g/m*3 -1.27 C 0 km/h
722 17-02-2018 01:00:00 -1.59167 C 4.16 g/m*3 -1.59 C 0 km/h
723 17-02-2018 02:00:00 -1.58333 C 4.17 g/m*3 -1.58 C 0 km/h
724 17-02-2018 03:00:00 -1.23333 C 4.29 g/m*3 -1.23 C 0.13333 km/h
725 17-02-2018 04:00:00 -1.15833 C 4.33 g/m*3 -1.16 C 0 km/h
Sensor: Nr:Datum:Temp:Abs-Feuchte:Windchill:Wind:
Aussen-T/F 726 17-02-2018 05:00:00 -0.83333 C 4.44 g/m*3 -0.83 C 0.66667 km/h
727 17-02-2018 06:00:00 -0.65833 C 4.49 g/m*3 -0.66 C 0.66667 km/h
728 17-02-2018 07:00:00 -0.50833 C 4.54 g/m*3 -0.51 C 0.53333 km/h
729 17-02-2018 08:00:00 -0.275 C 4.61 g/m*3 -0.28 C 0 km/h
730 17-02-2018 09:00:00 0.38333 C 4.83 g/m*3 0.38 C 0.26667 km/h
731 17-02-2018 10:00:00 0.875 C 4.99 g/m*3 0.88 C 0.13333 km/h
732 17-02-2018 11:00:00 1.40833 C 5.18 g/m*3 1.41 C 0.53333 km/h
733 17-02-2018 12:00:00 1.99167 C 5.31 g/m*3 1.99 C 2.93333 km/h
734 17-02-2018 13:00:00 2.775 C 5.33 g/m*3 2.78 C 2.93333 km/h
735 17-02-2018 14:00:00 3.45833 C 5.33 g/m*3 3.46 C 2.8 km/h
736 17-02-2018 15:00:00 3.84167 C 5.28 g/m*3 3.84 C 4.13333 km/h
737 17-02-2018 16:00:00 4.04167 C 5.37 g/m*3 4.04 C 0.13333 km/h
738 17-02-2018 17:00:00 3.05833 C 5.28 g/m*3 3.06 C 3.46667 km/h
739 17-02-2018 18:00:00 1.49167 C 4.85 g/m*3 1.49 C 4.26667 km/h
740 17-02-2018 19:00:00 0.40833 C 4.56 g/m*3 0.41 C 1.33333 km/h
741 17-02-2018 20:00:00 -0.45833 C 4.35 g/m*3 -0.46 C 0 km/h
742 17-02-2018 21:00:00 -1.05833 C 4.22 g/m*3 -1.06 C 0 km/h
743 17-02-2018 22:00:00 -1.44167 C 4.12 g/m*3 -1.44 C 0 km/h
744 17-02-2018 23:00:00 -1.93333 C 3.98 g/m*3 -1.93 C 0.13333 km/h
745 18-02-2018 00:00:00 -2.13333 C 3.95 g/m*3 -2.13 C 0 km/h
746 18-02-2018 01:00:00 -2.65 C 3.81 g/m*3 -2.65 C 0 km/h
747 18-02-2018 02:00:00 -2.94167 C 3.75 g/m*3 -2.94 C 0 km/h
748 18-02-2018 03:00:00 -3.29167 C 3.66 g/m*3 -3.29 C 0 km/h
749 18-02-2018 04:00:00 -3.425 C 3.64 g/m*3 -3.43 C 0 km/h
750 18-02-2018 05:00:00 -3.59167 C 3.59 g/m*3 -3.59 C 0.13333 km/h
Sensor: Nr:Datum:Temp:Abs-Feuchte:Windchill:Wind:
Aussen-T/F 751 18-02-2018 06:00:00 -3.675 C 3.59 g/m*3 -3.68 C 0.26667 km/h
752 18-02-2018 07:00:00 -3.69167 C 3.59 g/m*3 -3.69 C 0.53333 km/h
753 18-02-2018 08:00:00 -3.71667 C 3.58 g/m*3 -3.72 C 1.46667 km/h
754 18-02-2018 09:00:00 -3.45833 C 3.65 g/m*3 -3.46 C 2.26667 km/h
755 18-02-2018 10:00:00 -2.85833 C 3.81 g/m*3 -2.86 C 1.2 km/h
756 18-02-2018 11:00:00 -1.83333 C 4.11 g/m*3 -1.83 C 0.53333 km/h
757 18-02-2018 12:00:00 -0.55 C 4.5 g/m*3 -0.55 C 1.46667 km/h
758 18-02-2018 13:00:00 1.60833 C 5.23 g/m*3 1.61 C 1.6 km/h
759 18-02-2018 14:00:00 3.275 C 5.48 g/m*3 3.28 C 3.06667 km/h
760 18-02-2018 15:00:00 4.61667 C 5.19 g/m*3 3.32 C 5.88333 km/h
761 18-02-2018 16:00:00 4.225 C 5.09 g/m*3 4.22 C 4.53333 km/h
762 18-02-2018 17:00:00 2.29167 C 4.81 g/m*3 2.29 C 4.53333 km/h
763 18-02-2018 18:00:00 0.93333 C 4.58 g/m*3 -0.62 C 5.2 km/h
764 18-02-2018 19:00:00 0.50833 C 4.54 g/m*3 0.51 C 4.53333 km/h
765 18-02-2018 20:00:00 -0.25833 C 4.37 g/m*3 -0.26 C 0.53333 km/h
766 18-02-2018 21:00:00 -1.075 C 4.18 g/m*3 -1.08 C 0 km/h
767 18-02-2018 22:00:00 -1.36667 C 4.14 g/m*3 -1.37 C 0 km/h
768 18-02-2018 23:00:00 -1.35 C 4.15 g/m*3 -1.35 C 0.66667 km/h
769 19-02-2018 00:00:00 -0.875 C 4.32 g/m*3 -0.88 C 0 km/h
770 19-02-2018 01:00:00 -1.675 C 4.06 g/m*3 -1.68 C 0.26667 km/h
771 19-02-2018 02:00:00 -1.40833 C 4.17 g/m*3 -1.41 C 1.33333 km/h
772 19-02-2018 03:00:00 -1.04167 C 4.28 g/m*3 -1.04 C 0 km/h
773 19-02-2018 04:00:00 -0.83333 C 4.34 g/m*3 -0.83 C 0 km/h
774 19-02-2018 05:00:00 -0.68333 C 4.39 g/m*3 -0.68 C 0 km/h
775 19-02-2018 06:00:00 -0.56667 C 4.43 g/m*3 -0.57 C 0 km/h
Sensor: Nr:Datum:Temp:Abs-Feuchte:Windchill:Wind:
Aussen-T/F 776 19-02-2018 07:00:00 -0.4 C 4.48 g/m*3 -0.4 C 0 km/h
777 19-02-2018 08:00:00 -0.10833 C 4.57 g/m*3 -0.11 C 0.13333 km/h
778 19-02-2018 09:00:00 0.525 C 4.76 g/m*3 0.53 C 0.13333 km/h
779 19-02-2018 10:00:00 1.36667 C 4.9 g/m*3 1.37 C 0.66667 km/h
780 19-02-2018 11:00:00 2.425 C 4.86 g/m*3 2.42 C 3.075 km/h
781 19-02-2018 12:00:00 2.96667 C 4.85 g/m*3 2.97 C 3.2 km/h
782 19-02-2018 13:00:00 4.04167 C 4.9 g/m*3 4.04 C 4 km/h
783 19-02-2018 14:00:00 4.675 C 4.92 g/m*3 4.68 C 3.06667 km/h
784 19-02-2018 15:00:00 4.5 C 4.91 g/m*3 4.5 C 3.46667 km/h
785 19-02-2018 16:00:00 4.45 C 4.93 g/m*3 4.45 C 3.2 km/h
786 19-02-2018 17:00:00 3.375 C 4.94 g/m*3 3.38 C 0.4 km/h
787 19-02-2018 18:00:00 1.70833 C 4.76 g/m*3 1.71 C 1.86667 km/h
788 19-02-2018 19:00:00 1.35833 C 4.76 g/m*3 1.36 C 0.66667 km/h
789 19-02-2018 20:00:00 1.20833 C 4.74 g/m*3 1.21 C 0 km/h
790 19-02-2018 21:00:00 1.00833 C 4.71 g/m*3 1.01 C 0 km/h
791 19-02-2018 22:00:00 0.63333 C 4.61 g/m*3 0.63 C 0 km/h
792 19-02-2018 23:00:00 0.15 C 4.45 g/m*3 0.15 C 0 km/h
793 20-02-2018 00:00:00 -0.50833 C 4.28 g/m*3 -0.51 C 0 km/h
794 20-02-2018 01:00:00 -0.74167 C 4.25 g/m*3 -0.74 C 0 km/h
795 20-02-2018 02:00:00 -0.74167 C 4.27 g/m*3 -0.74 C 0 km/h
796 20-02-2018 03:00:00 -1.38333 C 4.09 g/m*3 -1.38 C 0 km/h
797 20-02-2018 04:00:00 -1.825 C 3.98 g/m*3 -1.83 C 0 km/h
798 20-02-2018 05:00:00 -2.24167 C 3.9 g/m*3 -2.24 C 0 km/h
799 20-02-2018 06:00:00 -2.19167 C 3.93 g/m*3 -2.19 C 0 km/h
800 20-02-2018 07:00:00 -1.89167 C 4.03 g/m*3 -1.89 C 0 km/h
Sensor: Nr:Datum:Temp:Abs-Feuchte:Windchill:Wind:
Aussen-T/F 801 20-02-2018 08:00:00 -1.425 C 4.17 g/m*3 -1.43 C 0.4 km/h
802 20-02-2018 09:00:00 -1.16667 C 4.24 g/m*3 -1.17 C 0 km/h
803 20-02-2018 10:00:00 -0.81667 C 4.36 g/m*3 -0.82 C 0 km/h
804 20-02-2018 11:00:00 0.625 C 4.76 g/m*3 0.63 C 0.13333 km/h
805 20-02-2018 12:00:00 2.25833 C 5.12 g/m*3 2.26 C 0.4 km/h
806 20-02-2018 13:00:00 4.10833 C 5.12 g/m*3 4.11 C 1.73333 km/h
807 20-02-2018 14:00:00 4.85833 C 4.74 g/m*3 4.86 C 3.6 km/h
808 20-02-2018 15:00:00 5.36667 C 4.83 g/m*3 5.37 C 3.34167 km/h
809 20-02-2018 16:00:00 5.20833 C 4.82 g/m*3 5.21 C 2.675 km/h
810 20-02-2018 17:00:00 3.54167 C 4.8 g/m*3 3.54 C 3.86667 km/h
811 20-02-2018 18:00:00 2.54167 C 4.75 g/m*3 2.54 C 2 km/h
812 20-02-2018 19:00:00 2.225 C 4.61 g/m*3 2.23 C 3.075 km/h
813 20-02-2018 20:00:00 2.20833 C 4.57 g/m*3 2.21 C 1.33333 km/h
814 20-02-2018 21:00:00 0.825 C 4.34 g/m*3 0.83 C 4 km/h
815 20-02-2018 22:00:00 -0.16667 C 4.14 g/m*3 -0.17 C 1.2 km/h
816 20-02-2018 23:00:00 -0.84167 C 4.06 g/m*3 -0.84 C 0 km/h
817 21-02-2018 00:00:00 -0.475 C 4.21 g/m*3 -0.48 C 1.73333 km/h
818 21-02-2018 01:00:00 0.96667 C 4.18 g/m*3 0.97 C 4.69167 km/h
819 21-02-2018 02:00:00 -0.125 C 3.95 g/m*3 -0.13 C 1.06667 km/h
820 21-02-2018 03:00:00 -0.575 C 4 g/m*3 -0.57 C 0.26667 km/h
821 21-02-2018 04:00:00 -0.6 C 3.95 g/m*3 -0.6 C 1.46667 km/h
822 21-02-2018 05:00:00 -1.39167 C 3.85 g/m*3 -1.39 C 1.6 km/h
823 21-02-2018 06:00:00 -1.7 C 3.84 g/m*3 -1.7 C 0.66667 km/h
824 21-02-2018 07:00:00 -1.68333 C 3.88 g/m*3 -1.68 C 0.53333 km/h
825 21-02-2018 08:00:00 -1.61667 C 3.92 g/m*3 -1.62 C 1.46667 km/h
Sensor: Nr:Datum:Temp:Abs-Feuchte:Windchill:Wind:
Aussen-T/F 826 21-02-2018 09:00:00 -0.95833 C 4.03 g/m*3 -0.96 C 1.06667 km/h
827 21-02-2018 10:00:00 -0.29167 C 4.23 g/m*3 -0.29 C 0.8 km/h
828 21-02-2018 11:00:00 1.50833 C 4.51 g/m*3 1.51 C 0.93333 km/h
829 21-02-2018 12:00:00 3.275 C 4.2 g/m*3 1.5 C 6.70833 km/h
830 21-02-2018 13:00:00 4.98333 C 3.88 g/m*3 2.8 C 9.26667 km/h
831 21-02-2018 14:00:00 5.69167 C 3.72 g/m*3 3.31 C 10.875 km/h
832 21-02-2018 15:00:00 6.13333 C 3.64 g/m*3 3.37 C 13.56667 km/h
833 21-02-2018 16:00:00 6.29167 C 3.68 g/m*3 3.9 C 11.55833 km/h
834 21-02-2018 17:00:00 5.35 C 4.14 g/m*3 5.35 C 4.15833 km/h
835 21-02-2018 18:00:00 2.70833 C 4.19 g/m*3 2.71 C 3.6 km/h
836 21-02-2018 19:00:00 1.51667 C 4.16 g/m*3 1.52 C 4.13333 km/h
837 21-02-2018 20:00:00 0.775 C 4.07 g/m*3 0.78 C 1.86667 km/h
838 21-02-2018 21:00:00 0.10833 C 4.01 g/m*3 0.11 C 1.475 km/h
839 21-02-2018 22:00:00 -0.30833 C 3.85 g/m*3 -0.31 C 2.53333 km/h
840 21-02-2018 23:00:00 -0.5 C 3.7 g/m*3 -0.5 C 4.15833 km/h
841 22-02-2018 00:00:00 -1.15 C 3.67 g/m*3 -1.15 C 1.2 km/h
842 22-02-2018 01:00:00 -1.63333 C 3.65 g/m*3 -1.63 C 0.4 km/h
843 22-02-2018 02:00:00 -1.90833 C 3.63 g/m*3 -1.91 C 0 km/h
844 22-02-2018 03:00:00 -1.975 C 3.65 g/m*3 -1.98 C 0.66667 km/h
845 22-02-2018 04:00:00 -2.125 C 3.64 g/m*3 -2.13 C 1.33333 km/h
846 22-02-2018 05:00:00 -2.025 C 3.68 g/m*3 -2.03 C 1.2 km/h
847 22-02-2018 06:00:00 -2.16667 C 3.67 g/m*3 -2.17 C 1.06667 km/h
848 22-02-2018 07:00:00 -2.25833 C 3.64 g/m*3 -2.26 C 1.6 km/h
849 22-02-2018 08:00:00 -1.825 C 3.69 g/m*3 -1.83 C 1.46667 km/h
850 22-02-2018 09:00:00 -1.04167 C 3.76 g/m*3 -2.82 C 5.1 km/h
Sensor: Nr:Datum:Temp:Abs-Feuchte:Windchill:Wind:
Aussen-T/F 851 22-02-2018 10:00:00 0.75 C 3.77 g/m*3 -2.47 C 10.20833 km/h
852 22-02-2018 11:00:00 1.76667 C 3.64 g/m*3 -2.36 C 15.7 km/h
853 22-02-2018 12:00:00 2.46667 C 3.57 g/m*3 -1.8 C 17.7 km/h
854 22-02-2018 13:00:00 3.40833 C 3.49 g/m*3 -1.04 C 20.775 km/h
855 22-02-2018 14:00:00 3.15833 C 3.4 g/m*3 -1.09 C 18.76667 km/h
856 22-02-2018 15:00:00 3.38333 C 3.28 g/m*3 -1.17 C 21.56667 km/h
857 22-02-2018 16:00:00 3.475 C 3.34 g/m*3 0.11 C 13.56667 km/h
858 22-02-2018 17:00:00 2.94167 C 3.41 g/m*3 0.28 C 9.66667 km/h
859 22-02-2018 18:00:00 0.96667 C 3.37 g/m*3 0.97 C 4.43333 km/h
860 22-02-2018 19:00:00 -0.45 C 3.44 g/m*3 -0.45 C 1.73333 km/h
861 22-02-2018 20:00:00 -0.98333 C 3.41 g/m*3 -0.98 C 1.33333 km/h
862 22-02-2018 21:00:00 -1.14167 C 3.35 g/m*3 -1.14 C 3.74167 km/h
863 22-02-2018 22:00:00 -1.175 C 3.33 g/m*3 -1.18 C 4.68333 km/h
864 22-02-2018 23:00:00 -1.3 C 3.29 g/m*3 -1.3 C 3.06667 km/h
865 23-02-2018 00:00:00 -1.59167 C 3.27 g/m*3 -1.59 C 2.54167 km/h
866 23-02-2018 01:00:00 -2.08333 C 3.24 g/m*3 -2.08 C 2.93333 km/h
867 23-02-2018 02:00:00 -2.10833 C 3.19 g/m*3 -2.11 C 3.35 km/h
868 23-02-2018 03:00:00 -2.15 C 3.11 g/m*3 -4.51 C 6.025 km/h
869 23-02-2018 04:00:00 -1.96667 C 3.06 g/m*3 -4.06 C 5.5 km/h
870 23-02-2018 05:00:00 -2.33333 C 2.99 g/m*3 -2.33 C 4.28333 km/h
871 23-02-2018 06:00:00 -2.85833 C 2.9 g/m*3 -2.86 C 2.93333 km/h
872 23-02-2018 07:00:00 -3.275 C 2.8 g/m*3 -3.28 C 3.075 km/h
873 23-02-2018 08:00:00 -3.05833 C 2.81 g/m*3 -3.06 C 4.83333 km/h
874 23-02-2018 09:00:00 -2.225 C 2.78 g/m*3 -5.64 C 8.86667 km/h
875 23-02-2018 10:00:00 -1.3 C 2.81 g/m*3 -4.74 C 9.53333 km/h
Sensor: Nr:Datum:Temp:Abs-Feuchte:Windchill:Wind:
Aussen-T/F 876 23-02-2018 11:00:00 0.05833 C 2.81 g/m*3 -3.04 C 9.25833 km/h
877 23-02-2018 12:00:00 0.83333 C 2.75 g/m*3 -3.51 C 15.7 km/h
878 23-02-2018 13:00:00 1.875 C 2.73 g/m*3 -2.36 C 16.5 km/h
879 23-02-2018 14:00:00 2.26667 C 2.62 g/m*3 -1.93 C 16.89167 km/h
880 23-02-2018 15:00:00 2.875 C 2.62 g/m*3 -0.69 C 13.95833 km/h
881 23-02-2018 16:00:00 3.15833 C 2.61 g/m*3 -0.27 C 13.56667 km/h
882 23-02-2018 17:00:00 2.68333 C 2.63 g/m*3 0.36 C 8.19167 km/h
883 23-02-2018 18:00:00 0.11667 C 2.91 g/m*3 0.12 C 0.4 km/h
884 23-02-2018 19:00:00 -0.80833 C 2.73 g/m*3 -0.81 C 3.33333 km/h
885 23-02-2018 20:00:00 -1.15833 C 2.65 g/m*3 -1.16 C 4.01667 km/h
886 23-02-2018 21:00:00 -1.23333 C 2.55 g/m*3 -3.77 C 6.83333 km/h
887 23-02-2018 22:00:00 -1.26667 C 2.62 g/m*3 -4.33 C 8.325 km/h
888 23-02-2018 23:00:00 -1.85 C 2.68 g/m*3 -3.86 C 5.35833 km/h
889 24-02-2018 00:00:00 -3.09167 C 2.72 g/m*3 -3.09 C 3.33333 km/h
890 24-02-2018 01:00:00 -3.5 C 2.68 g/m*3 -3.5 C 3.6 km/h
891 24-02-2018 02:00:00 -4.21667 C 2.64 g/m*3 -4.22 C 2 km/h
892 24-02-2018 03:00:00 -5.16667 C 2.57 g/m*3 -5.17 C 0.13333 km/h
893 24-02-2018 04:00:00 -5.26667 C 2.55 g/m*3 -5.27 C 2.53333 km/h
894 24-02-2018 05:00:00 -4.875 C 2.49 g/m*3 -4.88 C 3.88333 km/h
895 24-02-2018 06:00:00 -5.34167 C 2.47 g/m*3 -5.34 C 2.8 km/h
896 24-02-2018 07:00:00 -5.98333 C 2.45 g/m*3 -5.98 C 1.06667 km/h
897 24-02-2018 08:00:00 -5.49167 C 2.49 g/m*3 -5.49 C 1.88333 km/h
898 24-02-2018 09:00:00 -4.24167 C 2.59 g/m*3 -4.24 C 0.8 km/h
899 24-02-2018 10:00:00 -2.30833 C 2.61 g/m*3 -2.31 C 4.55 km/h
900 24-02-2018 11:00:00 0.51667 C 2.64 g/m*3 -1.97 C 7.5 km/h
Sensor: Nr:Datum:Temp:Abs-Feuchte:Windchill:Wind:
Aussen-T/F 901 24-02-2018 12:00:00 2.38333 C 2.72 g/m*3 -1.04 C 12.63333 km/h
902 24-02-2018 13:00:00 3.2 C 2.82 g/m*3 -1.06 C 18.9 km/h
903 24-02-2018 14:00:00 3.275 C 3.08 g/m*3 -0.93 C 18.63333 km/h
904 24-02-2018 15:00:00 3.2 C 3.34 g/m*3 -1.13 C 19.43333 km/h
905 24-02-2018 16:00:00 2.45833 C 3.05 g/m*3 -2.35 C 21.575 km/h
906 24-02-2018 17:00:00 1.63333 C 2.9 g/m*3 -2.55 C 15.83333 km/h
907 24-02-2018 18:00:00 -0.03333 C 2.88 g/m*3 -3.58 C 10.88333 km/h
908 24-02-2018 19:00:00 -0.45 C 2.88 g/m*3 -3.41 C 8.45 km/h
909 24-02-2018 20:00:00 -0.71667 C 2.79 g/m*3 -3.73 C 8.45833 km/h
910 24-02-2018 21:00:00 -0.825 C 2.58 g/m*3 -5.03 C 13.025 km/h
911 24-02-2018 22:00:00 -1.23333 C 2.55 g/m*3 -5.41 C 12.48333 km/h
912 24-02-2018 23:00:00 -1.61667 C 2.46 g/m*3 -5.07 C 9.4 km/h
913 25-02-2018 00:00:00 -2.14167 C 2.48 g/m*3 -6.12 C 10.89167 km/h
914 25-02-2018 01:00:00 -2.6 C 2.45 g/m*3 -6.12 C 9.00833 km/h
915 25-02-2018 02:00:00 -3.075 C 2.4 g/m*3 -7.2 C 10.74167 km/h
916 25-02-2018 03:00:00 -3.71667 C 2.36 g/m*3 -7.08 C 7.94167 km/h
917 25-02-2018 04:00:00 -4.39167 C 2.35 g/m*3 -4.39 C 4.00833 km/h
918 25-02-2018 05:00:00 -4.95833 C 2.33 g/m*3 -7.61 C 5.76667 km/h
919 25-02-2018 06:00:00 -5.38333 C 2.26 g/m*3 -8.65 C 6.975 km/h
920 25-02-2018 07:00:00 -5.78333 C 2.23 g/m*3 -8.2 C 5.09167 km/h
921 25-02-2018 08:00:00 -5.875 C 2.24 g/m*3 -5.88 C 3.60833 km/h
922 25-02-2018 09:00:00 -5.03333 C 2.22 g/m*3 -9.23 C 9.68333 km/h
923 25-02-2018 10:00:00 -4.00833 C 2.18 g/m*3 -8.24 C 10.45833 km/h
924 25-02-2018 11:00:00 -2.63333 C 2.09 g/m*3 -6.52 C 10.20833 km/h
925 25-02-2018 12:00:00 -1.61667 C 1.94 g/m*3 -5.65 C 11.55833 km/h
Sensor: Nr:Datum:Temp:Abs-Feuchte:Windchill:Wind:
Aussen-T/F 926 25-02-2018 13:00:00 -0.7 C 1.82 g/m*3 -5.93 C 18.76667 km/h
927 25-02-2018 14:00:00 -0.38333 C 1.64 g/m*3 -4.63 C 13.68333 km/h
928 25-02-2018 15:00:00 0.18333 C 1.65 g/m*3 -4.39 C 16.1 km/h
929 25-02-2018 16:00:00 0.28333 C 1.76 g/m*3 -4.31 C 16.36667 km/h
930 25-02-2018 17:00:00 0.01667 C 1.78 g/m*3 -3.83 C 12.225 km/h
931 25-02-2018 18:00:00 -1.46667 C 1.82 g/m*3 -3.78 C 6.15833 km/h
932 25-02-2018 19:00:00 -1.74167 C 1.73 g/m*3 -4.67 C 7.66667 km/h
933 25-02-2018 20:00:00 -1.98333 C 1.75 g/m*3 -5.77 C 10.325 km/h
934 25-02-2018 21:00:00 -2.45 C 1.95 g/m*3 -5.85 C 8.71667 km/h
935 25-02-2018 22:00:00 -2.66667 C 2.08 g/m*3 -6.71 C 10.74167 km/h
936 25-02-2018 23:00:00 -2.85 C 2.12 g/m*3 -7.04 C 11.15 km/h
937 26-02-2018 00:00:00 -3.28333 C 2.17 g/m*3 -7.44 C 10.71667 km/h
938 26-02-2018 01:00:00 -4.4 C 2.2 g/m*3 -4.4 C 4.28333 km/h
939 26-02-2018 02:00:00 -5.19167 C 2.25 g/m*3 -5.19 C 2 km/h
940 26-02-2018 03:00:00 -6.08333 C 2.32 g/m*3 -6.08 C 2 km/h
941 26-02-2018 04:00:00 -6.19167 C 2.33 g/m*3 -6.19 C 3.08333 km/h
942 26-02-2018 05:00:00 -6.60833 C 2.26 g/m*3 -6.61 C 0.93333 km/h
943 26-02-2018 06:00:00 -7.16667 C 2.24 g/m*3 -7.17 C 0.66667 km/h
944 26-02-2018 07:00:00 -7.375 C 2.24 g/m*3 -7.38 C 0.13333 km/h
945 26-02-2018 08:00:00 -7.3 C 2.31 g/m*3 -7.3 C 0.13333 km/h
946 26-02-2018 09:00:00 -5.40833 C 2.47 g/m*3 -9.31 C 8.6 km/h
947 26-02-2018 10:00:00 -4.03333 C 2.53 g/m*3 -8.68 C 11.95833 km/h
948 26-02-2018 11:00:00 -3.025 C 2.44 g/m*3 -9.12 C 20.375 km/h
949 26-02-2018 12:00:00 -2.74167 C 2.45 g/m*3 -8.48 C 18.64167 km/h
950 26-02-2018 13:00:00 -2.025 C 2.44 g/m*3 -7.62 C 18.9 km/h
Sensor: Nr:Datum:Temp:Abs-Feuchte:Windchill:Wind:
Aussen-T/F 951 26-02-2018 14:00:00 -1.63333 C 2.34 g/m*3 -7 C 18.10833 km/h
952 26-02-2018 15:00:00 -1.825 C 2.34 g/m*3 -7.44 C 19.30833 km/h
953 26-02-2018 16:00:00 -2.15 C 2.22 g/m*3 -8.22 C 21.71667 km/h
954 26-02-2018 17:00:00 -2.23333 C 2.24 g/m*3 -7.36 C 15.96667 km/h
955 26-02-2018 18:00:00 -2.89167 C 2.33 g/m*3 -7.02 C 10.88333 km/h
956 26-02-2018 19:00:00 -3.64167 C 2.51 g/m*3 -3.64 C 4.55833 km/h
957 26-02-2018 20:00:00 -4.01667 C 2.65 g/m*3 -4.02 C 3.075 km/h
958 26-02-2018 21:00:00 -3.73333 C 2.63 g/m*3 -7 C 7.66667 km/h
959 26-02-2018 22:00:00 -3.54167 C 2.67 g/m*3 -7.41 C 9.55 km/h
960 26-02-2018 23:00:00 -4.025 C 3 g/m*3 -6.21 C 5.10833 km/h
961 27-02-2018 00:00:00 -4.4 C 3.11 g/m*3 -4.4 C 1.06667 km/h
962 27-02-2018 01:00:00 -4.9 C 3.07 g/m*3 -4.9 C 0 km/h
963 27-02-2018 02:00:00 -4.99167 C 3.07 g/m*3 -4.99 C 2.54167 km/h
964 27-02-2018 03:00:00 -5.275 C 2.93 g/m*3 -9.76 C 10.475 km/h
965 27-02-2018 04:00:00 -7.025 C 2.49 g/m*3 -7.03 C 2.94167 km/h
966 27-02-2018 05:00:00 -8.7 C 2.22 g/m*3 -8.7 C 1.46667 km/h
967 27-02-2018 06:00:00 -9.55 C 2.08 g/m*3 -9.55 C 0.66667 km/h
968 27-02-2018 07:00:00 -10.16667 C 2.01 g/m*3 -10.17 C 0 km/h
969 27-02-2018 08:00:00 -9.41667 C 2.12 g/m*3 -9.42 C 1.73333 km/h
970 27-02-2018 09:00:00 -8.53333 C 2.17 g/m*3 -11.78 C 5.9 km/h
971 27-02-2018 10:00:00 -7.16667 C 2.06 g/m*3 -12.07 C 10.60833 km/h
972 27-02-2018 11:00:00 -5.90833 C 1.99 g/m*3 -11.36 C 13.55 km/h
973 27-02-2018 12:00:00 -4.80833 C 1.97 g/m*3 -9.69 C 12.225 km/h
974 27-02-2018 13:00:00 -3.73333 C 1.92 g/m*3 -8.58 C 13.03333 km/h
975 27-02-2018 14:00:00 -3.08333 C 1.83 g/m*3 -7.72 C 12.75833 km/h
Sensor: Nr:Datum:Temp:Abs-Feuchte:Windchill:Wind:
Aussen-T/F 976 27-02-2018 15:00:00 -2.80833 C 1.82 g/m*3 -8.47 C 18.10833 km/h
977 27-02-2018 16:00:00 -2.38333 C 1.86 g/m*3 -7.36 C 15.03333 km/h
978 27-02-2018 17:00:00 -2.20833 C 1.92 g/m*3 -6.37 C 11.55 km/h
979 27-02-2018 18:00:00 -4.15833 C 2.13 g/m*3 -4.16 C 3.20833 km/h
980 27-02-2018 19:00:00 -5.775 C 2.25 g/m*3 -5.78 C 1.33333 km/h
981 27-02-2018 20:00:00 -6.39167 C 2.14 g/m*3 -6.39 C 3.86667 km/h
982 27-02-2018 21:00:00 -7.05 C 2.01 g/m*3 -7.05 C 4.93333 km/h
983 27-02-2018 22:00:00 -7.48333 C 1.98 g/m*3 -7.48 C 2.53333 km/h
984 27-02-2018 23:00:00 -8.18333 C 1.94 g/m*3 -8.18 C 2 km/h
985 28-02-2018 00:00:00 -8.35 C 1.96 g/m*3 -8.35 C 2.53333 km/h
986 28-02-2018 01:00:00 -8.575 C 1.93 g/m*3 -8.57 C 3.06667 km/h
987 28-02-2018 02:00:00 -8.98333 C 1.89 g/m*3 -8.98 C 4.26667 km/h
988 28-02-2018 03:00:00 -9.23333 C 1.88 g/m*3 -9.23 C 4.26667 km/h
989 28-02-2018 04:00:00 -9.425 C 1.87 g/m*3 -9.43 C 3.86667 km/h
990 28-02-2018 05:00:00 -9.625 C 1.88 g/m*3 -9.63 C 1.73333 km/h
991 28-02-2018 06:00:00 -9.975 C 1.86 g/m*3 -9.98 C 1.2 km/h
992 28-02-2018 07:00:00 -10.09167 C 1.85 g/m*3 -10.09 C 0.8 km/h
993 28-02-2018 08:00:00 -9.41667 C 1.91 g/m*3 -9.42 C 3.21667 km/h
994 28-02-2018 09:00:00 -8.15833 C 1.96 g/m*3 -11.28 C 5.76667 km/h
995 28-02-2018 10:00:00 -7.025 C 1.97 g/m*3 -11.6 C 9.66667 km/h
996 28-02-2018 11:00:00 -5.78333 C 1.99 g/m*3 -10.58 C 11.16667 km/h
997 28-02-2018 12:00:00 -4.65833 C 2 g/m*3 -9.74 C 13.16667 km/h
998 28-02-2018 13:00:00 -3.59167 C 1.96 g/m*3 -8.68 C 14.23333 km/h
999 28-02-2018 14:00:00 -3.21667 C 1.89 g/m*3 -8.28 C 14.5 km/h
1000 28-02-2018 15:00:00 -2.78333 C 1.99 g/m*3 -7.54 C 13.56667 km/h
Sensor: Nr:Datum:Temp:Abs-Feuchte:Windchill:Wind:
Aussen-T/F 1001 28-02-2018 16:00:00 -2.63333 C 2.03 g/m*3 -7.24 C 13.025 km/h
1002 28-02-2018 17:00:00 -3.44167 C 2.01 g/m*3 -6.7 C 7.78333 km/h
1003 28-02-2018 18:00:00 -4.73333 C 2 g/m*3 -8.26 C 7.90833 km/h
1004 28-02-2018 19:00:00 -5.71667 C 2.02 g/m*3 -10.12 C 9.93333 km/h
1005 28-02-2018 20:00:00 -6.19167 C 2.03 g/m*3 -9.98 C 7.925 km/h
1006 28-02-2018 21:00:00 -6.33333 C 2.04 g/m*3 -10.1 C 7.8 km/h
1007 28-02-2018 22:00:00 -6.51667 C 2.03 g/m*3 -9.86 C 6.71667 km/h
1008 28-02-2018 23:00:00 -6.5 C 2.04 g/m*3 -9.16 C 5.35 km/h
1009 01-03-2018 00:00:00 -6.60833 C 2.01 g/m*3 -9.14 C 5.1 km/h
1010 01-03-2018 01:00:00 -6.10833 C 2 g/m*3 -10.92 C 11 km/h
1011 01-03-2018 02:00:00 -5.80833 C 2 g/m*3 -9.68 C 8.325 km/h
1012 01-03-2018 03:00:00 -5.78333 C 2.01 g/m*3 -9.8 C 8.725 km/h
1013 01-03-2018 04:00:00 -5.79167 C 2 g/m*3 -9.95 C 9.125 km/h
1014 01-03-2018 05:00:00 -5.86667 C 2.01 g/m*3 -9.85 C 8.58333 km/h
1015 01-03-2018 06:00:00 -5.775 C 2.03 g/m*3 -9.83 C 8.85 km/h
1016 01-03-2018 07:00:00 -5.73333 C 2.05 g/m*3 -10.14 C 9.925 km/h
1017 01-03-2018 08:00:00 -5.84167 C 2.05 g/m*3 -10.87 C 11.96667 km/h
1018 01-03-2018 09:00:00 -5.71667 C 2.04 g/m*3 -10.79 C 12.21667 km/h
1019 01-03-2018 10:00:00 -5 C 2.07 g/m*3 -10.25 C 13.55833 km/h
1020 01-03-2018 11:00:00 -3.38333 C 2.12 g/m*3 -8.05 C 12.625 km/h
1021 01-03-2018 12:00:00 -1.75 C 2.12 g/m*3 -6.36 C 13.96667 km/h
1022 01-03-2018 13:00:00 -0.10833 C 2.12 g/m*3 -4.35 C 13.96667 km/h
1023 01-03-2018 14:00:00 1.20833 C 2.05 g/m*3 -2.91 C 14.9 km/h
1024 01-03-2018 15:00:00 1.71667 C 2.02 g/m*3 -1.99 C 13.3 km/h
1025 01-03-2018 16:00:00 1.65 C 2.07 g/m*3 -1.65 C 11.29167 km/h
Sensor: Nr:Datum:Temp:Abs-Feuchte:Windchill:Wind:
Aussen-T/F 1026 01-03-2018 17:00:00 1.075 C 2.26 g/m*3 -1.46 C 7.93333 km/h
1027 01-03-2018 18:00:00 0.15833 C 2.34 g/m*3 -2.7 C 8.46667 km/h
1028 01-03-2018 19:00:00 -0.34167 C 2.34 g/m*3 -3.45 C 9.01667 km/h
1029 01-03-2018 20:00:00 -0.73333 C 2.32 g/m*3 -3.91 C 9 km/h
1030 01-03-2018 21:00:00 -1.24167 C 2.29 g/m*3 -5.54 C 13.01667 km/h
1031 01-03-2018 22:00:00 -1.80833 C 2.27 g/m*3 -5.53 C 10.21667 km/h
1032 01-03-2018 23:00:00 -2.35 C 2.24 g/m*3 -5.57 C 8.2 km/h
1033 02-03-2018 00:00:00 -2.675 C 2.25 g/m*3 -4.99 C 5.75 km/h
1034 02-03-2018 01:00:00 -2.84167 C 2.25 g/m*3 -5.91 C 7.525 km/h
1035 02-03-2018 02:00:00 -3.00833 C 2.25 g/m*3 -6.73 C 9.4 km/h
1036 02-03-2018 03:00:00 -3.38333 C 2.24 g/m*3 -7.22 C 9.54167 km/h
1037 02-03-2018 04:00:00 -3.76667 C 2.24 g/m*3 -7.32 C 8.45 km/h
1038 02-03-2018 05:00:00 -4.125 C 2.24 g/m*3 -7.8 C 8.60833 km/h
1039 02-03-2018 06:00:00 -4.30833 C 2.25 g/m*3 -7.97 C 8.475 km/h
1040 02-03-2018 07:00:00 -4.45833 C 2.25 g/m*3 -8.75 C 10.35833 km/h
1041 02-03-2018 08:00:00 -4.55 C 2.25 g/m*3 -9.41 C 12.36667 km/h
1042 02-03-2018 09:00:00 -4.09167 C 2.29 g/m*3 -9.02 C 13.03333 km/h
1043 02-03-2018 10:00:00 -3.525 C 2.33 g/m*3 -7.63 C 10.36667 km/h
1044 02-03-2018 11:00:00 -2.94167 C 2.37 g/m*3 -7.46 C 12.36667 km/h
1045 02-03-2018 12:00:00 -1.99167 C 2.43 g/m*3 -6.66 C 13.96667 km/h
1046 02-03-2018 13:00:00 -1.55833 C 2.42 g/m*3 -5.38 C 10.75833 km/h
1047 02-03-2018 14:00:00 -1.15 C 2.43 g/m*3 -5.4 C 12.9 km/h
1048 02-03-2018 15:00:00 -0.775 C 2.48 g/m*3 -4.73 C 11.95 km/h
1049 02-03-2018 16:00:00 -0.25833 C 2.52 g/m*3 -3.61 C 9.95 km/h
1050 02-03-2018 17:00:00 -0.05 C 2.57 g/m*3 -0.05 C 4.00833 km/h
Sensor: Nr:Datum:Temp:Abs-Feuchte:Windchill:Wind:
Aussen-T/F 1051 02-03-2018 18:00:00 -0.075 C 2.67 g/m*3 -0.08 C 2 km/h
1052 02-03-2018 19:00:00 -0.31667 C 2.83 g/m*3 -2.34 C 5.88333 km/h
1053 02-03-2018 20:00:00 -1.29167 C 3.41 g/m*3 -1.29 C 3.875 km/h
1054 02-03-2018 21:00:00 -2.025 C 3.64 g/m*3 -2.03 C 0.26667 km/h
1055 02-03-2018 22:00:00 -2.19167 C 3.7 g/m*3 -2.19 C 0 km/h
1056 02-03-2018 23:00:00 -2.29167 C 3.75 g/m*3 -2.29 C 0 km/h
1057 03-03-2018 00:00:00 -2.3 C 3.78 g/m*3 -2.3 C 0 km/h
1058 03-03-2018 01:00:00 -2.21667 C 3.82 g/m*3 -2.22 C 0 km/h
1059 03-03-2018 02:00:00 -2.16667 C 3.85 g/m*3 -2.17 C 0 km/h
1060 03-03-2018 03:00:00 -2.1 C 3.89 g/m*3 -2.1 C 0 km/h
1061 03-03-2018 04:00:00 -2.11667 C 3.89 g/m*3 -2.12 C 0.13333 km/h
1062 03-03-2018 05:00:00 -2.26667 C 3.85 g/m*3 -2.27 C 0 km/h
1063 03-03-2018 06:00:00 -2.33333 C 3.83 g/m*3 -2.33 C 0.13333 km/h
1064 03-03-2018 07:00:00 -2.26667 C 3.84 g/m*3 -2.27 C 0.13333 km/h
1065 03-03-2018 08:00:00 -1.85 C 3.88 g/m*3 -1.85 C 3.73333 km/h
1066 03-03-2018 09:00:00 -1.65 C 3.89 g/m*3 -3.93 C 6.00833 km/h
1067 03-03-2018 10:00:00 -1.03333 C 4.01 g/m*3 -2.79 C 5.06667 km/h
1068 03-03-2018 11:00:00 -0.28333 C 4.17 g/m*3 -2.01 C 5.20833 km/h
1069 03-03-2018 12:00:00 0.26667 C 4.28 g/m*3 -2.53 C 8.34167 km/h
1070 03-03-2018 13:00:00 1.13333 C 4.45 g/m*3 -1.47 C 8.2 km/h
1071 03-03-2018 14:00:00 1.60833 C 4.57 g/m*3 -0.91 C 8.2 km/h
1072 03-03-2018 15:00:00 1.85 C 4.64 g/m*3 -0.38 C 7.38333 km/h
1073 03-03-2018 16:00:00 1.63333 C 4.6 g/m*3 -0.31 C 6.44167 km/h
1074 03-03-2018 17:00:00 1.33333 C 4.53 g/m*3 1.33 C 4.01667 km/h
1075 03-03-2018 18:00:00 1.075 C 4.56 g/m*3 1.08 C 0.13333 km/h
Sensor: Nr:Datum:Temp:Abs-Feuchte:Windchill:Wind:
Aussen-T/F 1076 03-03-2018 19:00:00 0.85 C 4.6 g/m*3 0.85 C 0.13333 km/h
1077 03-03-2018 20:00:00 0.75833 C 4.64 g/m*3 0.76 C 0.13333 km/h
1078 03-03-2018 21:00:00 0.78333 C 4.65 g/m*3 0.78 C 0.13333 km/h
1079 03-03-2018 22:00:00 0.71667 C 4.67 g/m*3 0.72 C 0.13333 km/h
1080 03-03-2018 23:00:00 0.75 C 4.72 g/m*3 0.75 C 0 km/h
1081 04-03-2018 00:00:00 0.70833 C 4.73 g/m*3 0.71 C 0 km/h
1082 04-03-2018 01:00:00 0.63333 C 4.76 g/m*3 0.63 C 0 km/h
1083 04-03-2018 02:00:00 0.76667 C 4.84 g/m*3 0.77 C 1.06667 km/h
1084 04-03-2018 03:00:00 1.075 C 4.96 g/m*3 1.08 C 1.46667 km/h
1085 04-03-2018 04:00:00 0.975 C 4.92 g/m*3 0.98 C 0.4 km/h
1086 04-03-2018 05:00:00 0.83333 C 4.87 g/m*3 0.83 C 0 km/h
1087 04-03-2018 06:00:00 1.09167 C 4.96 g/m*3 1.09 C 0.13333 km/h
1088 04-03-2018 07:00:00 1.16667 C 4.99 g/m*3 1.17 C 0 km/h
1089 04-03-2018 08:00:00 1.59167 C 5.17 g/m*3 1.59 C 0 km/h
1090 04-03-2018 09:00:00 2.49167 C 5.48 g/m*3 2.49 C 1.73333 km/h
1091 04-03-2018 10:00:00 3.375 C 5.7 g/m*3 3.38 C 3.06667 km/h
1092 04-03-2018 11:00:00 4.59167 C 6.01 g/m*3 3.24 C 6.03333 km/h
1093 04-03-2018 12:00:00 5.34167 C 6.12 g/m*3 3.82 C 6.975 km/h
1094 04-03-2018 13:00:00 7.40833 C 6.67 g/m*3 7.41 C 4.54167 km/h
1095 04-03-2018 14:00:00 9.59167 C 7 g/m*3 9.59 C 4.3 km/h
1096 04-03-2018 15:00:00 9.125 C 6.79 g/m*3 8.21 C 6.975 km/h
1097 04-03-2018 16:00:00 8.125 C 6.82 g/m*3 8.13 C 2.93333 km/h
1098 04-03-2018 17:00:00 6.425 C 6.44 g/m*3 6.43 C 3.86667 km/h
1099 04-03-2018 18:00:00 5.375 C 6.23 g/m*3 5.38 C 4.8 km/h
1100 04-03-2018 19:00:00 5.10833 C 6.28 g/m*3 5.11 C 4.93333 km/h
Sensor: Nr:Datum:Temp:Abs-Feuchte:Windchill:Wind:
Aussen-T/F 1101 04-03-2018 20:00:00 4.9 C 6.26 g/m*3 4.9 C 4.26667 km/h
1102 04-03-2018 21:00:00 5.25 C 6.49 g/m*3 5.25 C 4.4 km/h
1103 04-03-2018 22:00:00 5.125 C 6.5 g/m*3 5.13 C 3.2 km/h
1104 04-03-2018 23:00:00 5.64167 C 6.79 g/m*3 5.64 C 4.13333 km/h
1105 05-03-2018 00:00:00 5.81667 C 6.84 g/m*3 5.82 C 3.74167 km/h
1106 05-03-2018 01:00:00 5.80833 C 6.77 g/m*3 5.81 C 4.28333 km/h
1107 05-03-2018 02:00:00 5.475 C 6.53 g/m*3 5.48 C 2.66667 km/h
1108 05-03-2018 03:00:00 4.4 C 6.12 g/m*3 4.4 C 2.93333 km/h
1109 05-03-2018 04:00:00 3.59167 C 5.84 g/m*3 3.59 C 2.93333 km/h
1110 05-03-2018 05:00:00 2.71667 C 5.53 g/m*3 2.72 C 1.6 km/h
1111 05-03-2018 06:00:00 2.05 C 5.3 g/m*3 2.05 C 1.33333 km/h
1112 05-03-2018 07:00:00 1.975 C 5.31 g/m*3 1.98 C 0 km/h
1113 05-03-2018 08:00:00 3.05 C 5.73 g/m*3 3.05 C 0.53333 km/h
1114 05-03-2018 09:00:00 4.71667 C 6.45 g/m*3 4.72 C 0.53333 km/h
1115 05-03-2018 10:00:00 6.60833 C 7.11 g/m*3 6.61 C 0.8 km/h
1116 05-03-2018 11:00:00 9.025 C 7.42 g/m*3 9.03 C 3.06667 km/h
1117 05-03-2018 12:00:00 10.675 C 7.49 g/m*3 10.31 C 5.74167 km/h
1118 05-03-2018 13:00:00 11.69167 C 7.36 g/m*3 11.69 C 7.23333 km/h
1119 05-03-2018 14:00:00 12.025 C 6.95 g/m*3 12.03 C 9.14167 km/h
1120 05-03-2018 15:00:00 12.01667 C 6.76 g/m*3 12.02 C 8.48333 km/h
1121 05-03-2018 16:00:00 11.95833 C 6.83 g/m*3 11.96 C 6.05 km/h
1122 05-03-2018 17:00:00 10.73333 C 6.63 g/m*3 10.73 C 2.13333 km/h
1123 05-03-2018 18:00:00 6.525 C 6.03 g/m*3 5.23 C 6.825 km/h
1124 05-03-2018 19:00:00 4.89167 C 5.73 g/m*3 4.89 C 4.13333 km/h
1125 05-03-2018 20:00:00 3.41667 C 5.4 g/m*3 3.42 C 0.4 km/h
Sensor: Nr:Datum:Temp:Abs-Feuchte:Windchill:Wind:
Aussen-T/F 1126 05-03-2018 21:00:00 2.275 C 5.11 g/m*3 2.28 C 0.26667 km/h
1127 05-03-2018 22:00:00 1.19167 C 4.84 g/m*3 1.19 C 0 km/h
1128 05-03-2018 23:00:00 0.64167 C 4.74 g/m*3 0.64 C 0 km/h
1129 06-03-2018 00:00:00 0.225 C 4.64 g/m*3 0.23 C 0 km/h
1130 06-03-2018 01:00:00 0.1 C 4.63 g/m*3 0.1 C 0 km/h
1131 06-03-2018 02:00:00 -0.39167 C 4.48 g/m*3 -0.39 C 0 km/h
1132 06-03-2018 03:00:00 -0.85833 C 4.34 g/m*3 -0.86 C 0 km/h
1133 06-03-2018 04:00:00 -1.20833 C 4.23 g/m*3 -1.21 C 0 km/h
1134 06-03-2018 05:00:00 -1.125 C 4.29 g/m*3 -1.13 C 0 km/h
1135 06-03-2018 06:00:00 -1.00833 C 4.34 g/m*3 -1.01 C 0.13333 km/h
1136 06-03-2018 07:00:00 -0.71667 C 4.43 g/m*3 -0.72 C 0.13333 km/h
1137 06-03-2018 08:00:00 -0.03333 C 4.64 g/m*3 -0.03 C 0.13333 km/h
1138 06-03-2018 09:00:00 1.01667 C 5 g/m*3 1.02 C 0 km/h
1139 06-03-2018 10:00:00 2.75833 C 5.66 g/m*3 2.76 C 0.8 km/h
1140 06-03-2018 11:00:00 5.33333 C 6.32 g/m*3 5.33 C 0.53333 km/h
1141 06-03-2018 12:00:00 8.00833 C 6.45 g/m*3 8.01 C 2.26667 km/h
1142 06-03-2018 13:00:00 10.275 C 6.76 g/m*3 10.28 C 1.46667 km/h
1143 06-03-2018 14:00:00 12.01667 C 7.24 g/m*3 12.02 C 6.15833 km/h
1144 06-03-2018 15:00:00 13.18333 C 7.43 g/m*3 13.18 C 6.43333 km/h
1145 06-03-2018 16:00:00 13.475 C 7.52 g/m*3 13.48 C 0.8 km/h
1146 06-03-2018 17:00:00 11.15833 C 7.3 g/m*3 11.16 C 0 km/h
1147 06-03-2018 18:00:00 8.79167 C 6.93 g/m*3 8.79 C 1.06667 km/h
1148 06-03-2018 19:00:00 7.86667 C 6.86 g/m*3 7.87 C 3.6 km/h
1149 06-03-2018 20:00:00 7.76667 C 6.94 g/m*3 7.77 C 2.66667 km/h
1150 06-03-2018 21:00:00 7.35833 C 7.22 g/m*3 7.36 C 1.46667 km/h
Sensor: Nr:Datum:Temp:Abs-Feuchte:Windchill:Wind:
Aussen-T/F 1151 06-03-2018 22:00:00 6.88333 C 7.18 g/m*3 6.88 C 0 km/h
1152 06-03-2018 23:00:00 6.89167 C 7.25 g/m*3 6.89 C 0 km/h
1153 07-03-2018 00:00:00 6.35 C 7.06 g/m*3 6.35 C 0 km/h
1154 07-03-2018 01:00:00 5.79167 C 6.8 g/m*3 5.79 C 0 km/h
1155 07-03-2018 02:00:00 5.275 C 6.61 g/m*3 5.28 C 0 km/h
1156 07-03-2018 03:00:00 4.05 C 6.07 g/m*3 4.05 C 0 km/h
1157 07-03-2018 04:00:00 2.4 C 5.43 g/m*3 2.4 C 0 km/h
1158 07-03-2018 05:00:00 1.75833 C 5.24 g/m*3 1.76 C 0 km/h
1159 07-03-2018 06:00:00 1.43333 C 5.13 g/m*3 1.43 C 0 km/h
1160 07-03-2018 07:00:00 1.48333 C 5.15 g/m*3 1.48 C 0 km/h
1161 07-03-2018 08:00:00 2.225 C 5.47 g/m*3 2.23 C 0 km/h
1162 07-03-2018 09:00:00 2.85 C 5.71 g/m*3 2.85 C 0 km/h
1163 07-03-2018 10:00:00 3.79167 C 6.08 g/m*3 3.79 C 0 km/h
1164 07-03-2018 11:00:00 5.41667 C 6.78 g/m*3 5.42 C 1.875 km/h
1165 07-03-2018 12:00:00 7.36667 C 7.4 g/m*3 5.75 C 8.74167 km/h
1166 07-03-2018 13:00:00 8.5 C 7.15 g/m*3 6.34 C 13.03333 km/h
1167 07-03-2018 14:00:00 8.86667 C 7.12 g/m*3 6.93 C 12.1 km/h
1168 07-03-2018 15:00:00 8.73333 C 6.83 g/m*3 6.37 C 14.9 km/h
1169 07-03-2018 16:00:00 8.39167 C 6.78 g/m*3 6.25 C 12.75833 km/h
1170 07-03-2018 17:00:00 7.5 C 6.54 g/m*3 5.12 C 13.03333 km/h
1171 07-03-2018 18:00:00 6.725 C 6.32 g/m*3 4.79 C 9.66667 km/h
1172 07-03-2018 19:00:00 6.38333 C 6.38 g/m*3 4.52 C 9 km/h
1173 07-03-2018 20:00:00 6.2 C 6.39 g/m*3 3.58 C 12.76667 km/h
1174 07-03-2018 21:00:00 6.10833 C 6.25 g/m*3 3.38 C 13.3 km/h
1175 07-03-2018 22:00:00 6.10833 C 6.16 g/m*3 3.56 C 12.23333 km/h
Sensor: Nr:Datum:Temp:Abs-Feuchte:Windchill:Wind:
Aussen-T/F 1176 07-03-2018 23:00:00 5.84167 C 6.13 g/m*3 3.85 C 9.14167 km/h
1177 08-03-2018 00:00:00 5.875 C 6.15 g/m*3 3.37 C 11.7 km/h
1178 08-03-2018 01:00:00 5.725 C 6.03 g/m*3 3.51 C 10.09167 km/h
1179 08-03-2018 02:00:00 5.08333 C 5.8 g/m*3 3.18 C 8.21667 km/h
1180 08-03-2018 03:00:00 3.95 C 5.5 g/m*3 2.7 C 5.48333 km/h
1181 08-03-2018 04:00:00 2.8 C 5.33 g/m*3 2.8 C 3.46667 km/h
1182 08-03-2018 05:00:00 2.5 C 5.32 g/m*3 2.5 C 3.08333 km/h
1183 08-03-2018 06:00:00 3.575 C 5.66 g/m*3 2.12 C 5.9 km/h
1184 08-03-2018 07:00:00 4.325 C 5.78 g/m*3 3.28 C 5.1 km/h
1185 08-03-2018 08:00:00 5.16667 C 5.99 g/m*3 5.17 C 3.2 km/h
1186 08-03-2018 09:00:00 6.15833 C 6.2 g/m*3 6.16 C 3.6 km/h
1187 08-03-2018 10:00:00 7.61667 C 6.54 g/m*3 6.65 C 6.28333 km/h
1188 08-03-2018 11:00:00 9.04167 C 6.76 g/m*3 6.37 C 18.10833 km/h
1189 08-03-2018 12:00:00 9.73333 C 6.78 g/m*3 7.75 C 13.7 km/h
1190 08-03-2018 13:00:00 9.56667 C 6.83 g/m*3 8.38 C 8.59167 km/h
1191 08-03-2018 14:00:00 9.75833 C 6.57 g/m*3 9.34 C 5.48333 km/h
1192 08-03-2018 15:00:00 10.66667 C 6.53 g/m*3 9.29 C 10.89167 km/h
1193 08-03-2018 16:00:00 10.59167 C 6.64 g/m*3 9.06 C 11.80833 km/h
1194 08-03-2018 17:00:00 8.825 C 7.2 g/m*3 7.12 C 10.61667 km/h
1195 08-03-2018 18:00:00 6.675 C 6.76 g/m*3 3.59 C 16.64167 km/h
1196 08-03-2018 19:00:00 4.93333 C 6.15 g/m*3 2.74 C 9.275 km/h
1197 08-03-2018 20:00:00 4.8 C 5.99 g/m*3 2.15 C 11.29167 km/h
1198 08-03-2018 21:00:00 4.7 C 5.87 g/m*3 1.85 C 12.23333 km/h
1199 08-03-2018 22:00:00 3.66667 C 5.63 g/m*3 3.67 C 4.66667 km/h
1200 08-03-2018 23:00:00 2.98333 C 5.49 g/m*3 2.98 C 4.69167 km/h
Sensor: Nr:Datum:Temp:Abs-Feuchte:Windchill:Wind:
Aussen-T/F 1201 09-03-2018 00:00:00 3.55 C 5.69 g/m*3 2 C 6.16667 km/h
1202 09-03-2018 01:00:00 3.20833 C 5.54 g/m*3 3.21 C 3.61667 km/h
1203 09-03-2018 02:00:00 2.35833 C 5.31 g/m*3 2.36 C 0.53333 km/h
1204 09-03-2018 03:00:00 2.54167 C 5.43 g/m*3 2.54 C 3.06667 km/h
1205 09-03-2018 04:00:00 2.63333 C 5.46 g/m*3 2.63 C 0.4 km/h
1206 09-03-2018 05:00:00 2.39167 C 5.41 g/m*3 2.39 C 0.13333 km/h
1207 09-03-2018 06:00:00 2.775 C 5.56 g/m*3 2.78 C 0 km/h
1208 09-03-2018 07:00:00 3.01667 C 5.66 g/m*3 3.02 C 0 km/h
1209 09-03-2018 08:00:00 3.5 C 5.9 g/m*3 3.5 C 0 km/h
1210 09-03-2018 09:00:00 4.00833 C 6.11 g/m*3 4.01 C 0 km/h
1211 09-03-2018 10:00:00 4.59167 C 6.35 g/m*3 4.59 C 0.13333 km/h
1212 09-03-2018 11:00:00 5.675 C 6.76 g/m*3 5.68 C 0.93333 km/h
1213 09-03-2018 12:00:00 7.15 C 7.12 g/m*3 7.15 C 1.06667 km/h
1214 09-03-2018 13:00:00 8.33333 C 7.37 g/m*3 8.33 C 0.26667 km/h
1215 09-03-2018 14:00:00 8.70833 C 7.69 g/m*3 8.71 C 0.13333 km/h
1216 09-03-2018 15:00:00 9.15833 C 8.15 g/m*3 9.16 C 0.26667 km/h
1217 09-03-2018 16:00:00 8.69167 C 8.03 g/m*3 8.69 C 0.26667 km/h
1218 09-03-2018 17:00:00 8.09167 C 7.83 g/m*3 8.09 C 0.26667 km/h
1219 09-03-2018 18:00:00 7.53333 C 7.62 g/m*3 7.53 C 0 km/h
1220 09-03-2018 19:00:00 7.09167 C 7.42 g/m*3 7.09 C 0.26667 km/h
1221 09-03-2018 20:00:00 7.275 C 7.57 g/m*3 7.28 C 0.13333 km/h
1222 09-03-2018 21:00:00 7.16667 C 7.52 g/m*3 7.17 C 0 km/h
1223 09-03-2018 22:00:00 7.075 C 7.49 g/m*3 7.08 C 0 km/h
1224 09-03-2018 23:00:00 7.04167 C 7.54 g/m*3 7.04 C 0 km/h
1225 10-03-2018 00:00:00 6.875 C 7.44 g/m*3 6.88 C 0 km/h
Sensor: Nr:Datum:Temp:Abs-Feuchte:Windchill:Wind:
Aussen-T/F 1226 10-03-2018 01:00:00 7.05 C 7.54 g/m*3 7.05 C 0 km/h
1227 10-03-2018 02:00:00 7.16667 C 7.6 g/m*3 7.17 C 0 km/h
1228 10-03-2018 03:00:00 7.08333 C 7.56 g/m*3 7.08 C 0 km/h
1229 10-03-2018 04:00:00 7.225 C 7.63 g/m*3 7.23 C 0 km/h
1230 10-03-2018 05:00:00 6.80833 C 7.42 g/m*3 6.81 C 0 km/h
1231 10-03-2018 06:00:00 6.19167 C 7.13 g/m*3 6.19 C 0 km/h
1232 10-03-2018 07:00:00 6.625 C 7.33 g/m*3 6.63 C 0 km/h
1233 10-03-2018 08:00:00 7.46667 C 7.77 g/m*3 7.47 C 0 km/h
1234 10-03-2018 09:00:00 8.375 C 8.28 g/m*3 8.38 C 0 km/h
1235 10-03-2018 10:00:00 9.61667 C 8.99 g/m*3 9.62 C 0 km/h
1236 10-03-2018 11:00:00 11.91667 C 10.23 g/m*3 11.92 C 1.60833 km/h
1237 10-03-2018 12:00:00 14.26667 C 10.48 g/m*3 14.27 C 6.43333 km/h
1238 10-03-2018 13:00:00 14.73333 C 10.33 g/m*3 14.73 C 6.03333 km/h
1239 10-03-2018 14:00:00 14.45 C 10.03 g/m*3 14.45 C 4.95 km/h
1240 10-03-2018 15:00:00 13.88333 C 9.84 g/m*3 13.88 C 2.66667 km/h
1241 10-03-2018 16:00:00 13.375 C 9.67 g/m*3 13.38 C 2.8 km/h
1242 10-03-2018 17:00:00 12.99167 C 9.87 g/m*3 12.99 C 0 km/h
1243 10-03-2018 18:00:00 11.83333 C 9.48 g/m*3 11.83 C 0.4 km/h
1244 10-03-2018 19:00:00 11.28333 C 9.31 g/m*3 11.28 C 0.13333 km/h
1245 10-03-2018 20:00:00 11.1 C 9.28 g/m*3 11.1 C 0 km/h
1246 10-03-2018 21:00:00 11.04167 C 9.26 g/m*3 11.04 C 1.60833 km/h
1247 10-03-2018 22:00:00 10.18333 C 8.85 g/m*3 10.18 C 1.6 km/h
1248 10-03-2018 23:00:00 9.20833 C 8.44 g/m*3 9.21 C 2.8 km/h
1249 11-03-2018 00:00:00 8.70833 C 8.21 g/m*3 8.71 C 2.4 km/h
1250 11-03-2018 01:00:00 7.64167 C 7.68 g/m*3 7.64 C 0.53333 km/h
Sensor: Nr:Datum:Temp:Abs-Feuchte:Windchill:Wind:
Aussen-T/F 1251 11-03-2018 02:00:00 6.875 C 7.36 g/m*3 6.88 C 0 km/h
1252 11-03-2018 03:00:00 6.5 C 7.2 g/m*3 6.5 C 0.66667 km/h
1253 11-03-2018 04:00:00 6.825 C 7.41 g/m*3 6.83 C 0.13333 km/h
1254 11-03-2018 05:00:00 7.475 C 7.75 g/m*3 7.48 C 0.4 km/h
1255 11-03-2018 06:00:00 7.475 C 7.75 g/m*3 7.48 C 1.2 km/h
1256 11-03-2018 07:00:00 7.975 C 8.01 g/m*3 7.98 C 1.86667 km/h
1257 11-03-2018 08:00:00 9.56667 C 8.94 g/m*3 9.57 C 3.46667 km/h
1258 11-03-2018 09:00:00 10.25833 C 9.26 g/m*3 10.26 C 2.675 km/h
1259 11-03-2018 10:00:00 12.93333 C 10.1 g/m*3 12.93 C 6.56667 km/h
1260 11-03-2018 11:00:00 14.21667 C 10.04 g/m*3 14.22 C 11.43333 km/h
1261 11-03-2018 12:00:00 14.33333 C 10.21 g/m*3 14.33 C 7.125 km/h
1262 11-03-2018 13:00:00 13.91667 C 10.54 g/m*3 13.92 C 1.33333 km/h
1263 11-03-2018 14:00:00 14.10833 C 10.59 g/m*3 14.11 C 6.03333 km/h
1264 11-03-2018 15:00:00 14.78333 C 10.49 g/m*3 14.78 C 6.04167 km/h
1265 11-03-2018 16:00:00 14.8 C 10.32 g/m*3 14.8 C 3.74167 km/h
1266 11-03-2018 17:00:00 14.35 C 10.14 g/m*3 14.35 C 0 km/h
1267 11-03-2018 18:00:00 12.675 C 9.54 g/m*3 12.68 C 0.93333 km/h
1268 11-03-2018 19:00:00 10.73333 C 8.95 g/m*3 10.73 C 0.4 km/h
1269 11-03-2018 20:00:00 9.69167 C 8.56 g/m*3 9.69 C 0 km/h
1270 11-03-2018 21:00:00 9.24167 C 8.41 g/m*3 9.24 C 0 km/h
1271 11-03-2018 22:00:00 8.88333 C 8.26 g/m*3 8.88 C 0 km/h
1272 11-03-2018 23:00:00 8.39167 C 8.03 g/m*3 8.39 C 0 km/h
1273 12-03-2018 00:00:00 8.075 C 7.91 g/m*3 8.07 C 0 km/h
1274 12-03-2018 01:00:00 7.69167 C 7.76 g/m*3 7.69 C 0 km/h
1275 12-03-2018 02:00:00 7.60833 C 7.74 g/m*3 7.61 C 0 km/h
Sensor: Nr:Datum:Temp:Abs-Feuchte:Windchill:Wind:
Aussen-T/F 1276 12-03-2018 03:00:00 7.81667 C 7.85 g/m*3 7.82 C 0 km/h
1277 12-03-2018 04:00:00 7.875 C 7.87 g/m*3 7.88 C 0 km/h
1278 12-03-2018 05:00:00 7.8 C 7.87 g/m*3 7.8 C 0 km/h
1279 12-03-2018 06:00:00 8.04167 C 8.04 g/m*3 8.04 C 0 km/h
1280 12-03-2018 07:00:00 7.85833 C 7.94 g/m*3 7.86 C 0 km/h
1281 12-03-2018 08:00:00 8.29167 C 8.17 g/m*3 8.29 C 0 km/h
1282 12-03-2018 09:00:00 8.93333 C 8.52 g/m*3 8.93 C 0 km/h
1283 12-03-2018 10:00:00 10.11667 C 9.18 g/m*3 10.12 C 3.075 km/h
1284 12-03-2018 11:00:00 11.05833 C 9.4 g/m*3 11.06 C 12.49167 km/h
1285 12-03-2018 12:00:00 12.44167 C 9.13 g/m*3 12.44 C 11.025 km/h
1286 12-03-2018 13:00:00 12.96667 C 8.78 g/m*3 12.97 C 11.83333 km/h
1287 12-03-2018 14:00:00 13.39167 C 9.11 g/m*3 13.39 C 8.06667 km/h
1288 12-03-2018 15:00:00 13.40833 C 8.87 g/m*3 13.41 C 13.7 km/h
1289 12-03-2018 16:00:00 12.05 C 9.16 g/m*3 12.05 C 7.775 km/h
1290 12-03-2018 17:00:00 11.55833 C 9.11 g/m*3 11.56 C 3.35 km/h
1291 12-03-2018 18:00:00 10.425 C 8.27 g/m*3 10.43 C 4.41667 km/h
1292 12-03-2018 19:00:00 9.675 C 7.95 g/m*3 9.36 C 5.075 km/h
1293 12-03-2018 20:00:00 9.75833 C 7.79 g/m*3 8.33 C 10.08333 km/h
1294 12-03-2018 21:00:00 9.31667 C 7.84 g/m*3 7.67 C 10.875 km/h
1295 12-03-2018 22:00:00 8.49167 C 7.57 g/m*3 7.73 C 6.025 km/h
1296 12-03-2018 23:00:00 8.15 C 7.64 g/m*3 8.15 C 3.88333 km/h
1297 13-03-2018 00:00:00 8.43333 C 7.81 g/m*3 6.85 C 9.525 km/h
1298 13-03-2018 01:00:00 9.025 C 7.76 g/m*3 7.4 C 10.35 km/h
1299 13-03-2018 02:00:00 9.025 C 7.76 g/m*3 6.85 C 13.96667 km/h
1300 13-03-2018 03:00:00 8.775 C 7.66 g/m*3 6.7 C 12.88333 km/h
Sensor: Nr:Datum:Temp:Abs-Feuchte:Windchill:Wind:
Aussen-T/F 1301 13-03-2018 04:00:00 8.70833 C 7.59 g/m*3 6.41 C 14.36667 km/h
1302 13-03-2018 05:00:00 8.65833 C 7.58 g/m*3 6.4 C 13.96667 km/h
1303 13-03-2018 06:00:00 8.53333 C 7.54 g/m*3 5.93 C 16.36667 km/h
1304 13-03-2018 07:00:00 8.14167 C 7.47 g/m*3 5.45 C 16.36667 km/h
1305 13-03-2018 08:00:00 8.425 C 7.47 g/m*3 6.04 C 14.5 km/h
1306 13-03-2018 09:00:00 9.15833 C 7.73 g/m*3 6.62 C 17.16667 km/h
1307 13-03-2018 10:00:00 9.525 C 7.95 g/m*3 7.2 C 16.1 km/h
1308 13-03-2018 11:00:00 9.69167 C 7.62 g/m*3 7.28 C 17.16667 km/h
1309 13-03-2018 12:00:00 9.23333 C 7.38 g/m*3 6.69 C 17.3 km/h
1310 13-03-2018 13:00:00 8.05 C 7.22 g/m*3 5.56 C 14.63333 km/h
1311 13-03-2018 14:00:00 7.075 C 7.01 g/m*3 4.87 C 11.40833 km/h
1312 13-03-2018 15:00:00 7.01667 C 7.1 g/m*3 5.99 C 6.16667 km/h
1313 13-03-2018 16:00:00 7.06667 C 6.82 g/m*3 5.11 C 10.08333 km/h
1314 13-03-2018 17:00:00 6.875 C 6.54 g/m*3 4.73 C 10.89167 km/h
1315 13-03-2018 18:00:00 6.23333 C 6.47 g/m*3 4.32 C 9.13333 km/h
1316 13-03-2018 19:00:00 6.09167 C 6.51 g/m*3 4.37 C 8.2 km/h
1317 13-03-2018 20:00:00 6.03333 C 6.5 g/m*3 4.94 C 5.90833 km/h
1318 13-03-2018 21:00:00 5.80833 C 6.41 g/m*3 4.56 C 6.28333 km/h
1319 13-03-2018 22:00:00 5.55 C 6.41 g/m*3 5.55 C 4.69167 km/h
1320 13-03-2018 23:00:00 5.26667 C 6.29 g/m*3 5.27 C 1.33333 km/h
1321 14-03-2018 00:00:00 5.13333 C 6.29 g/m*3 5.13 C 0.53333 km/h
1322 14-03-2018 01:00:00 5.00833 C 6.29 g/m*3 5.01 C 0.93333 km/h
1323 14-03-2018 02:00:00 5.01667 C 6.26 g/m*3 5.02 C 1.33333 km/h
1324 14-03-2018 03:00:00 5.05 C 6.27 g/m*3 5.05 C 1.33333 km/h
1325 14-03-2018 04:00:00 5.06667 C 6.28 g/m*3 5.07 C 1.33333 km/h
Sensor: Nr:Datum:Temp:Abs-Feuchte:Windchill:Wind:
Aussen-T/F 1326 14-03-2018 05:00:00 5.15833 C 6.31 g/m*3 5.16 C 2.66667 km/h
1327 14-03-2018 06:00:00 4.86667 C 6.21 g/m*3 4.87 C 2.13333 km/h
1328 14-03-2018 07:00:00 4.58333 C 6.15 g/m*3 4.58 C 1.33333 km/h
1329 14-03-2018 08:00:00 5.09167 C 6.33 g/m*3 3.65 C 6.55 km/h
1330 14-03-2018 09:00:00 5.48333 C 6.37 g/m*3 5.48 C 3.6 km/h
1331 14-03-2018 10:00:00 7.20833 C 6.6 g/m*3 7.21 C 3.875 km/h
1332 14-03-2018 11:00:00 8.575 C 6.71 g/m*3 8.57 C 4.54167 km/h
1333 14-03-2018 12:00:00 9.83333 C 6.9 g/m*3 9.07 C 6.83333 km/h
1334 14-03-2018 13:00:00 10 C 6.71 g/m*3 10 C 4.68333 km/h
1335 14-03-2018 14:00:00 10.76667 C 6.49 g/m*3 10.03 C 7.39167 km/h
1336 14-03-2018 15:00:00 10.975 C 6.3 g/m*3 10.83 C 5.10833 km/h
1337 14-03-2018 16:00:00 12.05 C 6.39 g/m*3 12.05 C 4.54167 km/h
1338 14-03-2018 17:00:00 10.89167 C 6.95 g/m*3 10.89 C 1.475 km/h
1339 14-03-2018 18:00:00 9.29167 C 7.01 g/m*3 9.29 C 0.4 km/h
1340 14-03-2018 19:00:00 6.825 C 6.43 g/m*3 6.83 C 4.8 km/h
1341 14-03-2018 20:00:00 5.41667 C 6.15 g/m*3 4.48 C 5.2 km/h
1342 14-03-2018 21:00:00 4.66667 C 5.97 g/m*3 4.67 C 4.8 km/h
1343 14-03-2018 22:00:00 3.99167 C 5.72 g/m*3 3.99 C 3.73333 km/h
1344 14-03-2018 23:00:00 3.8 C 5.62 g/m*3 3.8 C 3.73333 km/h
1345 15-03-2018 00:00:00 3.30833 C 5.5 g/m*3 3.31 C 2.8 km/h
1346 15-03-2018 01:00:00 3.01667 C 5.46 g/m*3 3.02 C 3.06667 km/h
1347 15-03-2018 02:00:00 2.69167 C 5.36 g/m*3 2.69 C 4.26667 km/h
1348 15-03-2018 03:00:00 2.25833 C 5.22 g/m*3 2.26 C 3.73333 km/h
1349 15-03-2018 04:00:00 1.89167 C 5.12 g/m*3 1.89 C 3.73333 km/h
1350 15-03-2018 05:00:00 1.56667 C 5.02 g/m*3 1.57 C 3.86667 km/h
Sensor: Nr:Datum:Temp:Abs-Feuchte:Windchill:Wind:
Aussen-T/F 1351 15-03-2018 06:00:00 1.59167 C 5.06 g/m*3 1.59 C 2.66667 km/h
1352 15-03-2018 07:00:00 2.1 C 5.22 g/m*3 2.1 C 2.4 km/h
1353 15-03-2018 08:00:00 3.03333 C 5.52 g/m*3 3.03 C 2.4 km/h
1354 15-03-2018 09:00:00 5.21667 C 5.83 g/m*3 3.92 C 6.15833 km/h
1355 15-03-2018 10:00:00 6.975 C 6.07 g/m*3 5.58 C 7.5 km/h
1356 15-03-2018 11:00:00 8.89167 C 6.33 g/m*3 7.36 C 9.69167 km/h
1357 15-03-2018 12:00:00 10.80833 C 6.51 g/m*3 9.63 C 9.8 km/h
1358 15-03-2018 13:00:00 11.44167 C 6.39 g/m*3 11.44 C 11.01667 km/h
1359 15-03-2018 14:00:00 11.625 C 6.23 g/m*3 11.63 C 12.225 km/h
1360 15-03-2018 15:00:00 11.7 C 6.33 g/m*3 11.7 C 10.61667 km/h
1361 15-03-2018 16:00:00 11.60833 C 6.44 g/m*3 11.61 C 4.14167 km/h
1362 15-03-2018 17:00:00 10.63333 C 6.85 g/m*3 10.63 C 0.93333 km/h
1363 15-03-2018 18:00:00 8.81667 C 7.48 g/m*3 8.82 C 2.53333 km/h
1364 15-03-2018 19:00:00 7.40833 C 7.44 g/m*3 7.41 C 4.4 km/h
1365 15-03-2018 20:00:00 7.05833 C 7.37 g/m*3 7.06 C 2.8 km/h
1366 15-03-2018 21:00:00 6.8 C 7.27 g/m*3 6.8 C 1.46667 km/h
1367 15-03-2018 22:00:00 6.64167 C 7.19 g/m*3 6.64 C 2.8 km/h
1368 15-03-2018 23:00:00 6.60833 C 7.21 g/m*3 6.61 C 1.06667 km/h
1369 16-03-2018 00:00:00 6.675 C 7.28 g/m*3 6.68 C 2.14167 km/h
1370 16-03-2018 01:00:00 6.85833 C 7.37 g/m*3 6.86 C 3.2 km/h
1371 16-03-2018 02:00:00 6.775 C 7.32 g/m*3 6.78 C 0.26667 km/h
1372 16-03-2018 03:00:00 6.60833 C 7.25 g/m*3 6.61 C 0 km/h
1373 16-03-2018 04:00:00 6.76667 C 7.33 g/m*3 6.77 C 0 km/h
1374 16-03-2018 05:00:00 6.86667 C 7.37 g/m*3 6.87 C 0 km/h
1375 16-03-2018 06:00:00 6.875 C 7.38 g/m*3 6.88 C 0 km/h
Sensor: Nr:Datum:Temp:Abs-Feuchte:Windchill:Wind:
Aussen-T/F 1376 16-03-2018 07:00:00 7.05 C 7.53 g/m*3 7.05 C 0 km/h
1377 16-03-2018 08:00:00 7.30833 C 7.67 g/m*3 7.31 C 0 km/h
1378 16-03-2018 09:00:00 7.74167 C 7.89 g/m*3 7.74 C 0.26667 km/h
1379 16-03-2018 10:00:00 8.16667 C 8.11 g/m*3 8.17 C 0.13333 km/h
1380 16-03-2018 11:00:00 9.19167 C 8.56 g/m*3 9.19 C 3.61667 km/h
1381 16-03-2018 12:00:00 10.2 C 8.59 g/m*3 9.2 C 8.20833 km/h
1382 16-03-2018 13:00:00 10.325 C 8.46 g/m*3 10.33 C 4.55 km/h
1383 16-03-2018 14:00:00 9.83333 C 8.4 g/m*3 9.83 C 2 km/h
1384 16-03-2018 15:00:00 9.76667 C 8.78 g/m*3 9.77 C 0.4 km/h
1385 16-03-2018 16:00:00 9.54167 C 8.61 g/m*3 9.54 C 2.00833 km/h
1386 16-03-2018 17:00:00 9.05 C 8.42 g/m*3 9.05 C 0.66667 km/h
1387 16-03-2018 18:00:00 8.68333 C 8.26 g/m*3 8.68 C 0 km/h
1388 16-03-2018 19:00:00 8.25833 C 8.07 g/m*3 8.26 C 1.46667 km/h
1389 16-03-2018 20:00:00 7.78333 C 7.81 g/m*3 7.78 C 3.08333 km/h
1390 16-03-2018 21:00:00 5.68333 C 6.66 g/m*3 3.7 C 8.98333 km/h
1391 16-03-2018 22:00:00 4.09167 C 5.94 g/m*3 2.05 C 8.05833 km/h
1392 16-03-2018 23:00:00 3.28333 C 5.58 g/m*3 1.22 C 7.65 km/h
1393 17-03-2018 00:00:00 2.75833 C 5.27 g/m*3 0.33 C 8.60833 km/h
1394 17-03-2018 01:00:00 2.2 C 5.02 g/m*3 -0.47 C 9.125 km/h
1395 17-03-2018 02:00:00 1.74167 C 4.78 g/m*3 -1.77 C 12.35833 km/h
1396 17-03-2018 03:00:00 1.31667 C 4.57 g/m*3 -1.99 C 11.025 km/h
1397 17-03-2018 04:00:00 1.03333 C 4.48 g/m*3 -1.62 C 8.33333 km/h
1398 17-03-2018 05:00:00 0.71667 C 4.47 g/m*3 -2.04 C 8.48333 km/h
1399 17-03-2018 06:00:00 0.29167 C 4.4 g/m*3 -2.95 C 9.94167 km/h
1400 17-03-2018 07:00:00 -0.1 C 4.35 g/m*3 -2.36 C 6.56667 km/h
Sensor: Nr:Datum:Temp:Abs-Feuchte:Windchill:Wind:
Aussen-T/F 1401 17-03-2018 08:00:00 -0.2 C 4.21 g/m*3 -3.39 C 9.40833 km/h
1402 17-03-2018 09:00:00 -0.30833 C 4.11 g/m*3 -4.01 C 11.29167 km/h
1403 17-03-2018 10:00:00 -0.66667 C 4.06 g/m*3 -4.66 C 12.23333 km/h
1404 17-03-2018 11:00:00 -0.90833 C 3.86 g/m*3 -6.18 C 18.63333 km/h
1405 17-03-2018 12:00:00 -1.09167 C 3.69 g/m*3 -6.38 C 18.5 km/h
1406 17-03-2018 13:00:00 -1.28333 C 3.56 g/m*3 -6.47 C 17.56667 km/h
1407 17-03-2018 14:00:00 -1.44167 C 3.42 g/m*3 -6.8 C 18.36667 km/h
1408 17-03-2018 15:00:00 -1.525 C 3.36 g/m*3 -6.81 C 17.83333 km/h
1409 17-03-2018 16:00:00 -1.66667 C 3.32 g/m*3 -6.8 C 16.76667 km/h
1410 17-03-2018 17:00:00 -1.7875 C 3.28 g/m*3 -7.09 C 17.5 km/h
1411 17-03-2018 18:00:00 -1.8 C 3.28 g/m*3 -6.67 C 15.18571 km/h
1412 17-03-2018 19:00:00 -1.8 C 3.28 g/m*3 -6.42 C 13.95833 km/h
1413 17-03-2018 20:00:00 -1.8 C 3.28 g/m*3 -6.34 C 13.55833 km/h
1414 17-03-2018 21:00:00 -1.8 C 3.32 g/m*3 -5.74 C 11.01667 km/h
1415 17-03-2018 22:00:00 -1.8 C 3.33 g/m*3 -5.09 C 8.725 km/h
1416 17-03-2018 23:00:00 -1.775 C 3.34 g/m*3 -5.42 C 9.94167 km/h
1417 18-03-2018 00:00:00 -1.7 C 3.39 g/m*3 -5.88 C 12.06667 km/h
1418 18-03-2018 01:00:00 -1.7 C 3.38 g/m*3 -5.94 C 12.34167 km/h
1419 18-03-2018 02:00:00 -1.75833 C 3.42 g/m*3 -5.72 C 11.15833 km/h
1420 18-03-2018 03:00:00 -2.15833 C 3.49 g/m*3 -6.47 C 12.225 km/h
1421 18-03-2018 04:00:00 -2.49167 C 3.51 g/m*3 -6.87 C 12.225 km/h
1422 18-03-2018 05:00:00 -2.65 C 3.44 g/m*3 -6.65 C 10.60833 km/h
1423 18-03-2018 06:00:00 -3.00833 C 3.43 g/m*3 -6.56 C 8.875 km/h
1424 18-03-2018 07:00:00 -3.225 C 3.33 g/m*3 -8.79 C 17.03333 km/h
1425 18-03-2018 08:00:00 -3.13333 C 3.29 g/m*3 -8.06 C 13.96667 km/h
Sensor: Nr:Datum:Temp:Abs-Feuchte:Windchill:Wind:
Aussen-T/F 1426 18-03-2018 09:00:00 -2.95833 C 3.28 g/m*3 -8.33 C 16.35833 km/h
1427 18-03-2018 10:00:00 -2.74167 C 3.23 g/m*3 -8.59 C 19.3 km/h
1428 18-03-2018 11:00:00 -2.40833 C 3.28 g/m*3 -7.63 C 16.23333 km/h
1429 18-03-2018 12:00:00 -1.94167 C 3.23 g/m*3 -7.1 C 16.5 km/h
1430 18-03-2018 13:00:00 -0.58333 C 3.24 g/m*3 -5.06 C 14.63333 km/h
1431 18-03-2018 14:00:00 -0.19167 C 3.19 g/m*3 -5.38 C 19.3 km/h
1432 18-03-2018 15:00:00 -0.025 C 3.18 g/m*3 -4.58 C 15.71667 km/h
1433 18-03-2018 16:00:00 0.05833 C 3.17 g/m*3 -4.3 C 14.76667 km/h
1434 18-03-2018 17:00:00 -0.08333 C 3.16 g/m*3 -3.67 C 11.00833 km/h
1435 18-03-2018 18:00:00 -0.4 C 3.13 g/m*3 -3.18 C 7.91667 km/h
1436 18-03-2018 19:00:00 -0.7 C 3.08 g/m*3 -4.28 C 10.475 km/h
1437 18-03-2018 20:00:00 -0.98333 C 2.98 g/m*3 -5.28 C 13.29167 km/h
1438 18-03-2018 21:00:00 -1.36667 C 3.01 g/m*3 -5.25 C 11.15 km/h
1439 18-03-2018 22:00:00 -1.64167 C 3.01 g/m*3 -4.94 C 8.85833 km/h
1440 18-03-2018 23:00:00 -1.575 C 2.9 g/m*3 -3.79 C 5.89167 km/h
1441 19-03-2018 00:00:00 -1.49167 C 2.84 g/m*3 -3.86 C 6.3 km/h
1442 19-03-2018 01:00:00 -1.575 C 2.85 g/m*3 -3.9 C 6.15833 km/h
1443 19-03-2018 02:00:00 -1.7 C 2.82 g/m*3 -4.33 C 6.85833 km/h
1444 19-03-2018 03:00:00 -1.825 C 2.82 g/m*3 -3.95 C 5.61667 km/h
1445 19-03-2018 04:00:00 -1.98333 C 2.88 g/m*3 -4.32 C 6.025 km/h
1446 19-03-2018 05:00:00 -2.175 C 2.9 g/m*3 -4.42 C 5.76667 km/h
1447 19-03-2018 06:00:00 -2.4 C 2.86 g/m*3 -2.4 C 4.675 km/h
1448 19-03-2018 07:00:00 -2.55 C 2.8 g/m*3 -4.91 C 5.9 km/h
1449 19-03-2018 08:00:00 -2.375 C 2.83 g/m*3 -5.4 C 7.64167 km/h
1450 19-03-2018 09:00:00 -2.00833 C 2.87 g/m*3 -5.66 C 9.81667 km/h
Sensor: Nr:Datum:Temp:Abs-Feuchte:Windchill:Wind:
Aussen-T/F 1451 19-03-2018 10:00:00 -1.28333 C 2.95 g/m*3 -5.32 C 11.83333 km/h
1452 19-03-2018 11:00:00 -0.45833 C 3 g/m*3 -4.25 C 11.55833 km/h
1453 19-03-2018 12:00:00 0.325 C 3.06 g/m*3 -3.34 C 11.7 km/h
1454 19-03-2018 13:00:00 1.11667 C 3.11 g/m*3 -3.16 C 15.7 km/h
1455 19-03-2018 14:00:00 2.075 C 3.17 g/m*3 -1.55 C 13.3 km/h
1456 19-03-2018 15:00:00 2.8 C 3.18 g/m*3 -0.76 C 13.83333 km/h
1457 19-03-2018 16:00:00 3.175 C 3.02 g/m*3 -0.28 C 13.69167 km/h
1458 19-03-2018 17:00:00 3.80833 C 3.09 g/m*3 2.07 C 6.84167 km/h
1459 19-03-2018 18:00:00 2.11667 C 3.4 g/m*3 2.12 C 3.6 km/h
1460 19-03-2018 19:00:00 -0.55833 C 3.36 g/m*3 -0.56 C 4.4 km/h
1461 19-03-2018 20:00:00 -1.06667 C 3.46 g/m*3 -1.07 C 2.4 km/h
1462 19-03-2018 21:00:00 -1.26667 C 3.34 g/m*3 -1.27 C 2.275 km/h
1463 19-03-2018 22:00:00 -1.69167 C 3.35 g/m*3 -1.69 C 1.33333 km/h
1464 19-03-2018 23:00:00 -2.08333 C 3.26 g/m*3 -2.08 C 1.33333 km/h
1465 20-03-2018 00:00:00 -2.51667 C 3.23 g/m*3 -2.52 C 1.46667 km/h
1466 20-03-2018 01:00:00 -3.04167 C 3.09 g/m*3 -3.04 C 2.26667 km/h
1467 20-03-2018 02:00:00 -3.6 C 3.08 g/m*3 -3.6 C 1.2 km/h
1468 20-03-2018 03:00:00 -4.20833 C 2.97 g/m*3 -4.21 C 4.26667 km/h
1469 20-03-2018 04:00:00 -4.28333 C 2.89 g/m*3 -4.28 C 2.93333 km/h
1470 20-03-2018 05:00:00 -5.03333 C 2.88 g/m*3 -5.03 C 0.53333 km/h
1471 20-03-2018 06:00:00 -4.46667 C 3.09 g/m*3 -4.47 C 2.53333 km/h
1472 20-03-2018 07:00:00 -3.13333 C 3.28 g/m*3 -3.13 C 2.53333 km/h
1473 20-03-2018 08:00:00 -2.25833 C 3.43 g/m*3 -2.26 C 1.73333 km/h
1474 20-03-2018 09:00:00 -1.79167 C 3.6 g/m*3 -1.79 C 2.13333 km/h
1475 20-03-2018 10:00:00 -1.1 C 3.79 g/m*3 -1.1 C 3.2 km/h
Sensor: Nr:Datum:Temp:Abs-Feuchte:Windchill:Wind:
Aussen-T/F 1476 20-03-2018 11:00:00 0.125 C 4.33 g/m*3 -1.94 C 6.15833 km/h
1477 20-03-2018 12:00:00 0.925 C 4.6 g/m*3 0.93 C 3.06667 km/h
1478 20-03-2018 13:00:00 2.38333 C 4.91 g/m*3 2.38 C 3.06667 km/h
1479 20-03-2018 14:00:00 5.5 C 4.42 g/m*3 2.3 C 15.425 km/h
1480 20-03-2018 15:00:00 6.98333 C 3.6 g/m*3 3.26 C 22.925 km/h
1481 20-03-2018 16:00:00 7.58333 C 3.17 g/m*3 3.95 C 23.71667 km/h
1482 20-03-2018 17:00:00 7.46667 C 3.04 g/m*3 4.03 C 21.43333 km/h
1483 20-03-2018 18:00:00 6.43333 C 3.12 g/m*3 3.45 C 15.43333 km/h
1484 20-03-2018 19:00:00 3.65 C 3.58 g/m*3 2.46 C 5.21667 km/h
1485 20-03-2018 20:00:00 1.55833 C 3.78 g/m*3 1.56 C 2.93333 km/h
1486 20-03-2018 21:00:00 0.4 C 3.77 g/m*3 0.4 C 2.4 km/h
1487 20-03-2018 22:00:00 -0.225 C 3.8 g/m*3 -0.23 C 3.86667 km/h
1488 20-03-2018 23:00:00 -0.23333 C 3.69 g/m*3 -0.23 C 4.53333 km/h
1489 21-03-2018 00:00:00 -0.48333 C 3.76 g/m*3 -0.48 C 4.66667 km/h
1490 21-03-2018 01:00:00 -0.9 C 3.8 g/m*3 -0.9 C 3.06667 km/h
1491 21-03-2018 02:00:00 -1.93333 C 3.67 g/m*3 -1.93 C 0.4 km/h
1492 21-03-2018 03:00:00 -2.68333 C 3.58 g/m*3 -2.68 C 0 km/h
1493 21-03-2018 04:00:00 -3.16667 C 3.5 g/m*3 -3.17 C 0.13333 km/h
1494 21-03-2018 05:00:00 -3.60833 C 3.42 g/m*3 -3.61 C 0 km/h
1495 21-03-2018 06:00:00 -3.94167 C 3.37 g/m*3 -3.94 C 0.53333 km/h
1496 21-03-2018 07:00:00 -3.61667 C 3.5 g/m*3 -3.62 C 0.4 km/h
1497 21-03-2018 08:00:00 -2.53333 C 3.75 g/m*3 -2.53 C 2.53333 km/h
1498 21-03-2018 09:00:00 -1.18333 C 4.06 g/m*3 -1.18 C 2.4 km/h
1499 21-03-2018 10:00:00 1.26667 C 4.32 g/m*3 1.27 C 3.88333 km/h
1500 21-03-2018 11:00:00 3.55 C 4.3 g/m*3 3.55 C 3.6 km/h
Sensor: Nr:Datum:Temp:Abs-Feuchte:Windchill:Wind:
Aussen-T/F 1501 21-03-2018 12:00:00 5.125 C 4.05 g/m*3 3.48 C 7.25 km/h
1502 21-03-2018 13:00:00 6.09167 C 3.8 g/m*3 4.44 C 7.925 km/h
1503 21-03-2018 14:00:00 6.71667 C 3.82 g/m*3 4.77 C 9.69167 km/h
1504 21-03-2018 15:00:00 6.98333 C 3.97 g/m*3 5.23 C 9.01667 km/h
1505 21-03-2018 16:00:00 7.45 C 3.64 g/m*3 5.87 C 8.60833 km/h
1506 21-03-2018 17:00:00 7.45 C 3.98 g/m*3 5.73 C 9.275 km/h
1507 21-03-2018 18:00:00 5.36667 C 4.37 g/m*3 3.76 C 7.25833 km/h
1508 21-03-2018 19:00:00 2.90833 C 4.4 g/m*3 2.91 C 4.13333 km/h
1509 21-03-2018 20:00:00 0.90833 C 4.31 g/m*3 -0.59 C 5.06667 km/h
1510 21-03-2018 21:00:00 -0.00833 C 4.23 g/m*3 -0.01 C 0.93333 km/h
1511 21-03-2018 22:00:00 -0.2 C 4.23 g/m*3 -0.2 C 1.33333 km/h
1512 21-03-2018 23:00:00 -0.61667 C 4.14 g/m*3 -0.62 C 0.53333 km/h
1513 22-03-2018 00:00:00 -0.71667 C 4.14 g/m*3 -0.72 C 1.2 km/h
1514 22-03-2018 01:00:00 -0.325 C 4.26 g/m*3 -0.33 C 1.86667 km/h
1515 22-03-2018 02:00:00 0.575 C 4.41 g/m*3 -1.15 C 5.48333 km/h
1516 22-03-2018 03:00:00 0.85 C 4.37 g/m*3 -0.71 C 5.2 km/h
1517 22-03-2018 04:00:00 1.25 C 4.35 g/m*3 -1.33 C 8.18333 km/h
1518 22-03-2018 05:00:00 2.04167 C 4.43 g/m*3 -0.36 C 8.06667 km/h
1519 22-03-2018 06:00:00 2.39167 C 4.49 g/m*3 -0.87 C 11.83333 km/h
1520 22-03-2018 07:00:00 2.61667 C 4.52 g/m*3 -1.01 C 13.96667 km/h
1521 22-03-2018 08:00:00 2.59167 C 4.64 g/m*3 -0.45 C 11.01667 km/h
1522 22-03-2018 09:00:00 1.5 C 4.91 g/m*3 -0.51 C 6.55833 km/h
1523 22-03-2018 10:00:00 2.56667 C 5.37 g/m*3 -0.89 C 13.025 km/h
1524 22-03-2018 11:00:00 4.09167 C 5.73 g/m*3 0.26 C 17.43333 km/h
1525 22-03-2018 12:00:00 4.55833 C 5.96 g/m*3 1.39 C 13.83333 km/h
Sensor: Nr:Datum:Temp:Abs-Feuchte:Windchill:Wind:
Aussen-T/F 1526 22-03-2018 13:00:00 4.75833 C 6.16 g/m*3 1.68 C 13.56667 km/h
1527 22-03-2018 14:00:00 4.94167 C 6.22 g/m*3 2.24 C 11.7 km/h
1528 22-03-2018 15:00:00 4.48333 C 6.08 g/m*3 1.99 C 10.225 km/h
1529 22-03-2018 16:00:00 4.48333 C 6.14 g/m*3 2.82 C 6.98333 km/h
1530 22-03-2018 17:00:00 4.4 C 6.14 g/m*3 3.17 C 5.625 km/h
1531 22-03-2018 18:00:00 4.325 C 6.15 g/m*3 4.33 C 3.60833 km/h
1532 22-03-2018 19:00:00 4.38333 C 6.2 g/m*3 4.38 C 4.53333 km/h
1533 22-03-2018 20:00:00 4.39167 C 6.22 g/m*3 4.39 C 4.14167 km/h
1534 22-03-2018 21:00:00 4.525 C 6.32 g/m*3 3.21 C 5.89167 km/h
1535 22-03-2018 22:00:00 4.41667 C 6.28 g/m*3 4.42 C 2 km/h
1536 22-03-2018 23:00:00 4.41667 C 6.28 g/m*3 4.42 C 3.875 km/h
1537 23-03-2018 00:00:00 4.36667 C 6.25 g/m*3 4.37 C 2.53333 km/h
1538 23-03-2018 01:00:00 4.31667 C 6.23 g/m*3 4.32 C 1.33333 km/h
1539 23-03-2018 02:00:00 4.3 C 6.23 g/m*3 4.3 C 0.53333 km/h
1540 23-03-2018 03:00:00 4.30833 C 6.23 g/m*3 4.31 C 0.4 km/h
1541 23-03-2018 04:00:00 4.30833 C 6.23 g/m*3 4.31 C 1.33333 km/h
1542 23-03-2018 05:00:00 4.3 C 6.23 g/m*3 4.3 C 1.06667 km/h
1543 23-03-2018 06:00:00 4.3 C 6.23 g/m*3 4.3 C 1.6 km/h
1544 23-03-2018 07:00:00 4.45833 C 6.35 g/m*3 4.46 C 0.66667 km/h
1545 23-03-2018 08:00:00 4.975 C 6.58 g/m*3 4.97 C 0.13333 km/h
1546 23-03-2018 09:00:00 6.125 C 7.1 g/m*3 6.13 C 0.4 km/h
1547 23-03-2018 10:00:00 7 C 7.36 g/m*3 7 C 2.66667 km/h
1548 23-03-2018 11:00:00 8.14167 C 7.33 g/m*3 7.01 C 7.23333 km/h
1549 23-03-2018 12:00:00 8.90833 C 7.19 g/m*3 6.84 C 13.03333 km/h
1550 23-03-2018 13:00:00 9.10833 C 7.11 g/m*3 7.1 C 12.9 km/h
Sensor: Nr:Datum:Temp:Abs-Feuchte:Windchill:Wind:
Aussen-T/F 1551 23-03-2018 14:00:00 9.09167 C 7.02 g/m*3 6.46 C 17.83333 km/h
1552 23-03-2018 15:00:00 8.71667 C 6.85 g/m*3 6.14 C 16.5 km/h
1553 23-03-2018 16:00:00 8.65833 C 6.69 g/m*3 6.27 C 14.9 km/h
1554 23-03-2018 17:00:00 7.41667 C 6.31 g/m*3 5.4 C 10.76667 km/h
1555 23-03-2018 18:00:00 6.91667 C 6.2 g/m*3 5.87 C 6.18333 km/h
1556 23-03-2018 19:00:00 6.45833 C 6.25 g/m*3 6.46 C 4.675 km/h
1557 23-03-2018 20:00:00 6 C 6.24 g/m*3 6 C 0.53333 km/h
1558 23-03-2018 21:00:00 5.70833 C 6.16 g/m*3 5.71 C 0.53333 km/h
1559 23-03-2018 22:00:00 5.29167 C 6.13 g/m*3 5.29 C 0 km/h
1560 23-03-2018 23:00:00 4.19167 C 5.8 g/m*3 4.19 C 0.13333 km/h
1561 24-03-2018 00:00:00 2.66667 C 5.32 g/m*3 2.67 C 0.93333 km/h
1562 24-03-2018 01:00:00 1.55 C 5.03 g/m*3 1.55 C 0 km/h
1563 24-03-2018 02:00:00 0.93333 C 4.86 g/m*3 0.93 C 0.13333 km/h
1564 24-03-2018 03:00:00 1.275 C 5.02 g/m*3 1.27 C 0 km/h
1565 24-03-2018 04:00:00 1.28333 C 5.03 g/m*3 1.28 C 0 km/h
1566 24-03-2018 05:00:00 1.13333 C 4.99 g/m*3 1.13 C 0 km/h
1567 24-03-2018 06:00:00 0.56667 C 4.79 g/m*3 0.57 C 0.26667 km/h
1568 24-03-2018 07:00:00 0.35 C 4.77 g/m*3 0.35 C 0 km/h
1569 24-03-2018 08:00:00 1.11667 C 5.03 g/m*3 1.12 C 0 km/h
1570 24-03-2018 09:00:00 3.2 C 5.84 g/m*3 3.2 C 2.55 km/h
1571 24-03-2018 10:00:00 5.60833 C 6.51 g/m*3 4.55 C 5.625 km/h
1572 24-03-2018 11:00:00 8.4 C 6.48 g/m*3 6.88 C 9.15 km/h
1573 24-03-2018 12:00:00 10.1 C 5.61 g/m*3 8.38 C 12.35833 km/h
1574 24-03-2018 13:00:00 11.10833 C 5.34 g/m*3 11.11 C 11.01667 km/h
1575 24-03-2018 14:00:00 11.45 C 5.32 g/m*3 11.45 C 12.1 km/h
Sensor: Nr:Datum:Temp:Abs-Feuchte:Windchill:Wind:
Aussen-T/F 1576 24-03-2018 15:00:00 11.625 C 5.4 g/m*3 11.63 C 13.03333 km/h
1577 24-03-2018 16:00:00 12.30833 C 5.48 g/m*3 12.31 C 12.1 km/h
1578 24-03-2018 17:00:00 12.25833 C 5.47 g/m*3 12.26 C 8.875 km/h
1579 24-03-2018 18:00:00 10.03333 C 5.85 g/m*3 10.03 C 4.675 km/h
1580 24-03-2018 19:00:00 6.25833 C 5.65 g/m*3 5.09 C 6.26667 km/h
1581 24-03-2018 20:00:00 4.65 C 5.48 g/m*3 4.65 C 3.33333 km/h
1582 24-03-2018 21:00:00 3.50833 C 5.25 g/m*3 3.51 C 0.26667 km/h
1583 24-03-2018 22:00:00 2.24167 C 4.96 g/m*3 2.24 C 0 km/h
1584 24-03-2018 23:00:00 1.19167 C 4.69 g/m*3 1.19 C 0 km/h
1585 25-03-2018 00:00:00 0.4 C 4.53 g/m*3 0.4 C 0 km/h
1586 25-03-2018 01:00:00 0.03333 C 4.47 g/m*3 0.03 C 0 km/h
1587 25-03-2018 02:00:00 -0.50833 C 4.34 g/m*3 -0.51 C 0 km/h
1588 25-03-2018 04:00:00 -0.8 C 4.28 g/m*3 -0.8 C 0 km/h
1589 25-03-2018 05:00:00 -1.125 C 4.21 g/m*3 -1.13 C 0 km/h
1590 25-03-2018 06:00:00 -1.475 C 4.11 g/m*3 -1.48 C 0 km/h
1591 25-03-2018 07:00:00 -1.625 C 4.11 g/m*3 -1.63 C 0 km/h
1592 25-03-2018 08:00:00 -1.35 C 4.19 g/m*3 -1.35 C 0 km/h
1593 25-03-2018 09:00:00 -0.56667 C 4.45 g/m*3 -0.57 C 0 km/h
1594 25-03-2018 10:00:00 0.80833 C 4.91 g/m*3 0.81 C 0 km/h
1595 25-03-2018 11:00:00 3.18333 C 5.58 g/m*3 3.18 C 0 km/h
1596 25-03-2018 12:00:00 6.59167 C 6.02 g/m*3 6.59 C 0.26667 km/h
1597 25-03-2018 13:00:00 9.36667 C 5.84 g/m*3 9.37 C 2.54167 km/h
1598 25-03-2018 14:00:00 11.18333 C 5.54 g/m*3 11.18 C 5.21667 km/h
1599 25-03-2018 15:00:00 12.18333 C 5.52 g/m*3 12.18 C 5.48333 km/h
1600 25-03-2018 16:00:00 12.65833 C 5.35 g/m*3 12.66 C 5.49167 km/h
Sensor: Nr:Datum:Temp:Abs-Feuchte:Windchill:Wind:
Aussen-T/F 1601 25-03-2018 17:00:00 13.49167 C 5.63 g/m*3 13.49 C 4.66667 km/h
1602 25-03-2018 18:00:00 13.43333 C 5.57 g/m*3 13.43 C 5.75833 km/h
1603 25-03-2018 19:00:00 11.31667 C 6.25 g/m*3 11.32 C 1.06667 km/h
1604 25-03-2018 20:00:00 9.45833 C 6.27 g/m*3 9.46 C 2.26667 km/h
1605 25-03-2018 21:00:00 9.79167 C 5.96 g/m*3 9.79 C 2.94167 km/h
1606 25-03-2018 22:00:00 9.58333 C 6.17 g/m*3 9.58 C 0.4 km/h
1607 25-03-2018 23:00:00 8.825 C 6.31 g/m*3 8.82 C 0.26667 km/h
1608 26-03-2018 00:00:00 8.58333 C 6.24 g/m*3 8.58 C 0.8 km/h
1609 26-03-2018 01:00:00 7.50833 C 6.15 g/m*3 7.51 C 0.26667 km/h
1610 26-03-2018 02:00:00 6.59167 C 6.1 g/m*3 6.59 C 0 km/h
1611 26-03-2018 03:00:00 6.54167 C 6.24 g/m*3 6.54 C 0 km/h
1612 26-03-2018 04:00:00 6.26667 C 6.26 g/m*3 6.27 C 0 km/h
1613 26-03-2018 05:00:00 6.05 C 6.24 g/m*3 6.05 C 0 km/h
1614 26-03-2018 06:00:00 6.35 C 6.11 g/m*3 6.35 C 1.73333 km/h
1615 26-03-2018 07:00:00 6.39167 C 6.26 g/m*3 6.39 C 1.33333 km/h
1616 26-03-2018 08:00:00 6.35833 C 6.43 g/m*3 6.36 C 0.93333 km/h
1617 26-03-2018 09:00:00 6.54167 C 6.64 g/m*3 6.54 C 2.13333 km/h
1618 26-03-2018 10:00:00 6.76667 C 6.62 g/m*3 5.01 C 8.875 km/h
1619 26-03-2018 11:00:00 7.79167 C 6.78 g/m*3 6.73 C 6.70833 km/h
1620 26-03-2018 12:00:00 9.21667 C 6.82 g/m*3 8.46 C 6.43333 km/h
1621 26-03-2018 13:00:00 10.33333 C 6.28 g/m*3 8.89 C 10.89167 km/h
1622 26-03-2018 14:00:00 10.69167 C 5.66 g/m*3 9.05 C 12.75833 km/h
1623 26-03-2018 15:00:00 11.325 C 5.07 g/m*3 11.33 C 12.5 km/h
1624 26-03-2018 16:00:00 11.03333 C 5.27 g/m*3 11.03 C 10.76667 km/h
1625 26-03-2018 17:00:00 10.55833 C 5.07 g/m*3 9.02 C 11.83333 km/h
Sensor: Nr:Datum:Temp:Abs-Feuchte:Windchill:Wind:
Aussen-T/F 1626 26-03-2018 18:00:00 10.23333 C 4.72 g/m*3 9.01 C 9.40833 km/h
1627 26-03-2018 19:00:00 8.95 C 4.69 g/m*3 8.95 C 4.025 km/h
1628 26-03-2018 20:00:00 6.625 C 4.91 g/m*3 6.63 C 2.4 km/h
1629 26-03-2018 21:00:00 5.16667 C 5.07 g/m*3 5.17 C 4.4 km/h
1630 26-03-2018 22:00:00 3.56667 C 4.92 g/m*3 3.57 C 0 km/h
1631 26-03-2018 23:00:00 3.23333 C 5.03 g/m*3 3.23 C 0.26667 km/h
1632 27-03-2018 00:00:00 3.975 C 5.2 g/m*3 3.98 C 1.6 km/h
1633 27-03-2018 01:00:00 4.55 C 5.42 g/m*3 4.55 C 2.13333 km/h
1634 27-03-2018 02:00:00 3.98333 C 5.4 g/m*3 3.98 C 0.13333 km/h
1635 27-03-2018 03:00:00 3.48333 C 5.19 g/m*3 3.48 C 0.66667 km/h
1636 27-03-2018 04:00:00 2.725 C 5.03 g/m*3 2.73 C 0.13333 km/h
1637 27-03-2018 05:00:00 1.775 C 4.84 g/m*3 1.78 C 0.4 km/h
1638 27-03-2018 06:00:00 1.1 C 4.72 g/m*3 1.1 C 0 km/h
1639 27-03-2018 07:00:00 0.60833 C 4.59 g/m*3 0.61 C 0 km/h
1640 27-03-2018 08:00:00 1.1 C 4.85 g/m*3 1.1 C 0.26667 km/h
1641 27-03-2018 09:00:00 2.65 C 5.21 g/m*3 2.65 C 0 km/h
1642 27-03-2018 10:00:00 4.54167 C 5.54 g/m*3 4.54 C 0 km/h
1643 27-03-2018 11:00:00 6.83333 C 5.81 g/m*3 6.83 C 1.86667 km/h
1644 27-03-2018 12:00:00 9.64167 C 6.02 g/m*3 9.01 C 6.175 km/h
1645 27-03-2018 13:00:00 11.24167 C 6.01 g/m*3 11.24 C 8.73333 km/h
1646 27-03-2018 14:00:00 11.64167 C 6.4 g/m*3 11.64 C 9.00833 km/h
1647 27-03-2018 15:00:00 11.575 C 6.46 g/m*3 11.58 C 12.23333 km/h
1648 27-03-2018 16:00:00 9.61667 C 7.2 g/m*3 7.56 C 14.09167 km/h
1649 27-03-2018 17:00:00 8.85 C 7.37 g/m*3 8.85 C 3.35 km/h
1650 27-03-2018 18:00:00 7.9 C 7.45 g/m*3 7.9 C 0.4 km/h
Sensor: Nr:Datum:Temp:Abs-Feuchte:Windchill:Wind:
Aussen-T/F 1651 27-03-2018 19:00:00 6.93333 C 7.19 g/m*3 6.93 C 0.26667 km/h
1652 27-03-2018 20:00:00 6.44167 C 7.03 g/m*3 6.44 C 0.4 km/h
1653 27-03-2018 21:00:00 6.225 C 7 g/m*3 6.23 C 0.66667 km/h
1654 27-03-2018 22:00:00 6.2 C 7 g/m*3 6.2 C 0 km/h
1655 27-03-2018 23:00:00 6.14167 C 7.03 g/m*3 6.14 C 0.13333 km/h
1656 28-03-2018 00:00:00 6.34167 C 7.13 g/m*3 6.34 C 0.93333 km/h
1657 28-03-2018 01:00:00 6.76667 C 7.33 g/m*3 6.77 C 4.30833 km/h
1658 28-03-2018 02:00:00 7.23333 C 7.55 g/m*3 5.47 C 9.28333 km/h
1659 28-03-2018 03:00:00 7.60833 C 7.74 g/m*3 5.98 C 9 km/h
1660 28-03-2018 04:00:00 8.08333 C 7.95 g/m*3 6.09 C 11.425 km/h
1661 28-03-2018 05:00:00 8.5 C 8.12 g/m*3 6.9 C 9.68333 km/h
1662 28-03-2018 06:00:00 8.7 C 8.17 g/m*3 7.75 C 6.84167 km/h
1663 28-03-2018 07:00:00 8.74167 C 8.04 g/m*3 7.04 C 10.49167 km/h
1664 28-03-2018 08:00:00 8.70833 C 7.9 g/m*3 6.86 C 11.3 km/h
1665 28-03-2018 09:00:00 8.5 C 7.78 g/m*3 6.57 C 11.55833 km/h
1666 28-03-2018 10:00:00 8.575 C 7.81 g/m*3 6.26 C 14.23333 km/h
1667 28-03-2018 11:00:00 9.2 C 7.86 g/m*3 7.03 C 14.23333 km/h
1668 28-03-2018 12:00:00 9.08333 C 7.64 g/m*3 7.17 C 12.23333 km/h
1669 28-03-2018 13:00:00 9.78333 C 7.64 g/m*3 8.6 C 8.75 km/h
1670 28-03-2018 14:00:00 9.96667 C 7.96 g/m*3 9.97 C 2.15 km/h
1671 28-03-2018 15:00:00 9.26667 C 8.24 g/m*3 9.27 C 0.53333 km/h
1672 28-03-2018 16:00:00 9.08333 C 8.19 g/m*3 9.08 C 2.53333 km/h
1673 28-03-2018 17:00:00 9.275 C 8.43 g/m*3 9.28 C 0.53333 km/h
1674 28-03-2018 18:00:00 9.40833 C 8.6 g/m*3 9.41 C 0.26667 km/h
1675 28-03-2018 19:00:00 9.35 C 8.59 g/m*3 9.35 C 2.675 km/h
Sensor: Nr:Datum:Temp:Abs-Feuchte:Windchill:Wind:
Aussen-T/F 1676 28-03-2018 20:00:00 9.18333 C 8.56 g/m*3 9.18 C 4.01667 km/h
1677 28-03-2018 21:00:00 8.69167 C 7.92 g/m*3 6.21 C 15.7 km/h
1678 28-03-2018 22:00:00 7.58333 C 7.1 g/m*3 4.69 C 16.9 km/h
1679 28-03-2018 23:00:00 6.55833 C 6.57 g/m*3 3.8 C 14.1 km/h
1680 29-03-2018 00:00:00 5.8 C 6.09 g/m*3 2.71 C 15.16667 km/h
1681 29-03-2018 01:00:00 5.13333 C 5.83 g/m*3 2.4 C 12.1 km/h
1682 29-03-2018 02:00:00 4.775 C 5.82 g/m*3 4.78 C 4.275 km/h
1683 29-03-2018 03:00:00 4.66667 C 5.88 g/m*3 4.67 C 3.73333 km/h
1684 29-03-2018 04:00:00 4.625 C 5.89 g/m*3 4.63 C 4.55 km/h
1685 29-03-2018 05:00:00 4.7 C 5.92 g/m*3 4.7 C 4.4 km/h
1686 29-03-2018 06:00:00 4.7 C 5.95 g/m*3 4.7 C 4.55 km/h
1687 29-03-2018 07:00:00 4.78333 C 5.91 g/m*3 3.76 C 5.20833 km/h
1688 29-03-2018 08:00:00 4.825 C 5.93 g/m*3 4.83 C 4.00833 km/h
1689 29-03-2018 09:00:00 5.425 C 5.93 g/m*3 2.91 C 11.28333 km/h
1690 29-03-2018 10:00:00 6.80833 C 5.99 g/m*3 3.96 C 15.16667 km/h
1691 29-03-2018 11:00:00 7.925 C 6 g/m*3 4.98 C 17.975 km/h
1692 29-03-2018 12:00:00 8.61667 C 5.96 g/m*3 5.93 C 17.3 km/h
1693 29-03-2018 13:00:00 9.41667 C 5.78 g/m*3 7.29 C 14.23333 km/h
1694 29-03-2018 14:00:00 10.54167 C 5.54 g/m*3 8.66 C 14.36667 km/h
1695 29-03-2018 15:00:00 10.75833 C 5.45 g/m*3 9.18 C 12.35833 km/h
1696 29-03-2018 16:00:00 10.83333 C 5.7 g/m*3 9.97 C 8.06667 km/h
1697 29-03-2018 17:00:00 12.28333 C 5.5 g/m*3 12.28 C 11.15833 km/h
1698 29-03-2018 18:00:00 12.85833 C 5.39 g/m*3 12.86 C 10.09167 km/h
1699 29-03-2018 19:00:00 10.98333 C 5.74 g/m*3 10.59 C 6.04167 km/h
1700 29-03-2018 20:00:00 6.43333 C 5.81 g/m*3 6.43 C 4.53333 km/h
Sensor: Nr:Datum:Temp:Abs-Feuchte:Windchill:Wind:
Aussen-T/F 1701 29-03-2018 21:00:00 5.34167 C 5.68 g/m*3 5.34 C 4.8 km/h
1702 29-03-2018 22:00:00 4.64167 C 5.63 g/m*3 4.64 C 3.6 km/h
1703 29-03-2018 23:00:00 3.86667 C 5.53 g/m*3 3.87 C 0 km/h
1704 30-03-2018 00:00:00 2.89167 C 5.29 g/m*3 2.89 C 0 km/h
1705 30-03-2018 01:00:00 2.6 C 5.29 g/m*3 2.6 C 0 km/h
1706 30-03-2018 02:00:00 2.39167 C 5.25 g/m*3 2.39 C 0 km/h
1707 30-03-2018 03:00:00 2.24167 C 5.23 g/m*3 2.24 C 0 km/h
1708 30-03-2018 04:00:00 2.15 C 5.22 g/m*3 2.15 C 0 km/h
1709 30-03-2018 05:00:00 1.725 C 5.1 g/m*3 1.73 C 0 km/h
1710 30-03-2018 06:00:00 1.65833 C 5.11 g/m*3 1.66 C 0 km/h
1711 30-03-2018 07:00:00 1.48333 C 5.07 g/m*3 1.48 C 0 km/h
1712 30-03-2018 08:00:00 1.95 C 5.26 g/m*3 1.95 C 0.26667 km/h
1713 30-03-2018 09:00:00 3.25 C 5.72 g/m*3 3.25 C 0.13333 km/h
1714 30-03-2018 10:00:00 5.375 C 6.31 g/m*3 5.38 C 2.41667 km/h
1715 30-03-2018 11:00:00 9.03333 C 6.52 g/m*3 7.25 C 11.3 km/h
1716 30-03-2018 12:00:00 10.79167 C 6.64 g/m*3 9.56 C 10.08333 km/h
1717 30-03-2018 13:00:00 12.04167 C 6.14 g/m*3 12.04 C 9.54167 km/h
1718 30-03-2018 14:00:00 12.925 C 5.95 g/m*3 12.93 C 10.09167 km/h
1719 30-03-2018 15:00:00 13.1 C 6.1 g/m*3 13.1 C 8.33333 km/h
1720 30-03-2018 16:00:00 13.3 C 6.13 g/m*3 13.3 C 6.96667 km/h
1721 30-03-2018 17:00:00 13.05833 C 6.54 g/m*3 13.06 C 8.475 km/h
1722 30-03-2018 18:00:00 11.91667 C 7.48 g/m*3 11.92 C 3.89167 km/h
1723 30-03-2018 19:00:00 9.325 C 7.93 g/m*3 9.32 C 2.26667 km/h
1724 30-03-2018 20:00:00 8.3 C 7.61 g/m*3 8.3 C 0.66667 km/h
1725 30-03-2018 21:00:00 7.93333 C 7.42 g/m*3 7.93 C 1.06667 km/h
Sensor: Nr:Datum:Temp:Abs-Feuchte:Windchill:Wind:
Aussen-T/F 1726 30-03-2018 22:00:00 7.65 C 7.44 g/m*3 7.65 C 1.06667 km/h
1727 30-03-2018 23:00:00 6.78333 C 7.1 g/m*3 6.78 C 0.13333 km/h
1728 31-03-2018 00:00:00 6.03333 C 6.8 g/m*3 6.03 C 0 km/h
1729 31-03-2018 01:00:00 5.96667 C 6.81 g/m*3 5.97 C 0 km/h
1730 31-03-2018 02:00:00 5.35833 C 6.52 g/m*3 5.36 C 0 km/h
1731 31-03-2018 03:00:00 4.83333 C 6.38 g/m*3 4.83 C 0 km/h
1732 31-03-2018 04:00:00 4.23333 C 6.11 g/m*3 4.23 C 0 km/h
1733 31-03-2018 05:00:00 3.7 C 5.92 g/m*3 3.7 C 0 km/h
1734 31-03-2018 06:00:00 3.46667 C 5.84 g/m*3 3.47 C 0 km/h
1735 31-03-2018 07:00:00 3.45 C 5.88 g/m*3 3.45 C 0.53333 km/h
1736 31-03-2018 08:00:00 4.025 C 6.11 g/m*3 2.68 C 5.76667 km/h
1737 31-03-2018 09:00:00 4.40833 C 6.28 g/m*3 2.73 C 6.98333 km/h
1738 31-03-2018 10:00:00 5.25833 C 6.69 g/m*3 3.6 C 7.4 km/h
1739 31-03-2018 11:00:00 6.94167 C 7.09 g/m*3 6.94 C 3.46667 km/h
1740 31-03-2018 12:00:00 9.44167 C 6.36 g/m*3 9.44 C 2.66667 km/h
1741 31-03-2018 13:00:00 11.18333 C 6.32 g/m*3 11.18 C 3.88333 km/h
1742 31-03-2018 14:00:00 12.54167 C 6.6 g/m*3 12.54 C 5.61667 km/h
1743 31-03-2018 15:00:00 12.975 C 6.28 g/m*3 12.98 C 6.44167 km/h
1744 31-03-2018 16:00:00 13.85833 C 6.14 g/m*3 13.86 C 11.28333 km/h
1745 31-03-2018 17:00:00 13.98333 C 5.98 g/m*3 13.98 C 7.925 km/h
1746 31-03-2018 18:00:00 13.575 C 5.81 g/m*3 13.58 C 6.3 km/h
1747 31-03-2018 19:00:00 12.14167 C 6.17 g/m*3 12.14 C 2.53333 km/h
1748 31-03-2018 20:00:00 10.41667 C 6.64 g/m*3 10.42 C 0.26667 km/h
1749 31-03-2018 21:00:00 9.48333 C 6.68 g/m*3 9.48 C 2.28333 km/h
1750 31-03-2018 22:00:00 8.6 C 6.58 g/m*3 8.6 C 1.6 km/h
Sensor: Nr:Datum:Temp:Abs-Feuchte:Windchill:Wind:
Aussen-T/F 1751 31-03-2018 23:00:00 8.475 C 6.54 g/m*3 7.71 C 6.03333 km/h
1752 01-04-2018 00:00:00 8.45 C 6.6 g/m*3 8.45 C 0 km/h
1753 01-04-2018 01:00:00 7.28333 C 6.74 g/m*3 7.28 C 1.06667 km/h
1754 01-04-2018 02:00:00 6.64167 C 6.51 g/m*3 6.64 C 2.26667 km/h
1755 01-04-2018 03:00:00 6.575 C 6.48 g/m*3 6.58 C 4.425 km/h
1756 01-04-2018 04:00:00 5.75 C 6.24 g/m*3 5.75 C 2.66667 km/h
1757 01-04-2018 05:00:00 5.5 C 6.27 g/m*3 5.5 C 3.46667 km/h
1758 01-04-2018 06:00:00 5.675 C 6.38 g/m*3 5.68 C 4.00833 km/h
1759 01-04-2018 07:00:00 6.19167 C 6.57 g/m*3 6.19 C 4.81667 km/h
1760 01-04-2018 08:00:00 6.71667 C 6.65 g/m*3 4.95 C 8.88333 km/h
1761 01-04-2018 09:00:00 7.3 C 6.62 g/m*3 5.21 C 11.01667 km/h
1762 01-04-2018 10:00:00 8.28333 C 6.85 g/m*3 5.94 C 13.95833 km/h
1763 01-04-2018 11:00:00 6.81667 C 6.75 g/m*3 4.59 C 11.26667 km/h
1764 01-04-2018 12:00:00 8.725 C 6.76 g/m*3 6.27 C 15.56667 km/h
1765 01-04-2018 13:00:00 9.85 C 6.43 g/m*3 7.66 C 15.56667 km/h
1766 01-04-2018 14:00:00 10.14167 C 6.12 g/m*3 8.13 C 14.63333 km/h
1767 01-04-2018 15:00:00 10.45833 C 6.26 g/m*3 8.49 C 14.9 km/h
1768 01-04-2018 16:00:00 9.85833 C 6.6 g/m*3 8.07 C 12.48333 km/h
1769 01-04-2018 17:00:00 9.28333 C 6.88 g/m*3 9.28 C 4.43333 km/h
1770 01-04-2018 18:00:00 9.33333 C 6.69 g/m*3 8.35 C 7.40833 km/h
1771 01-04-2018 19:00:00 8.1 C 6.63 g/m*3 6.3 C 10.35 km/h
1772 01-04-2018 20:00:00 7.23333 C 6.71 g/m*3 6.44 C 5.50833 km/h
1773 01-04-2018 21:00:00 6.95 C 6.65 g/m*3 6.95 C 4.4 km/h
1774 01-04-2018 22:00:00 6.625 C 6.63 g/m*3 6.63 C 0.66667 km/h
1775 01-04-2018 23:00:00 6.33333 C 6.58 g/m*3 6.33 C 0.66667 km/h
Sensor: Nr:Datum:Temp:Abs-Feuchte:Windchill:Wind:
Aussen-T/F 1776 02-04-2018 00:00:00 6.21667 C 6.55 g/m*3 6.22 C 0 km/h
1777 02-04-2018 01:00:00 5.80833 C 6.38 g/m*3 5.81 C 0 km/h
1778 02-04-2018 02:00:00 4.95 C 6.06 g/m*3 4.95 C 0 km/h
1779 02-04-2018 03:00:00 4.14167 C 5.87 g/m*3 4.14 C 0 km/h
1780 02-04-2018 04:00:00 3.60833 C 5.72 g/m*3 3.61 C 0 km/h
1781 02-04-2018 05:00:00 2.525 C 5.37 g/m*3 2.53 C 0 km/h
1782 02-04-2018 06:00:00 2.13333 C 5.27 g/m*3 2.13 C 0 km/h
1783 02-04-2018 07:00:00 2.09167 C 5.3 g/m*3 2.09 C 0 km/h
1784 02-04-2018 08:00:00 3.08333 C 5.69 g/m*3 3.08 C 0 km/h
1785 02-04-2018 09:00:00 4.05 C 6.04 g/m*3 4.05 C 0 km/h
1786 02-04-2018 10:00:00 6.79167 C 6.84 g/m*3 6.79 C 0 km/h
1787 02-04-2018 11:00:00 10.09167 C 6.85 g/m*3 10.09 C 3.90833 km/h
1788 02-04-2018 12:00:00 12.15 C 6.19 g/m*3 12.15 C 9.94167 km/h
1789 02-04-2018 13:00:00 12.95833 C 6.28 g/m*3 12.96 C 10.75 km/h
1790 02-04-2018 14:00:00 14.06667 C 6.65 g/m*3 14.07 C 10.075 km/h
1791 02-04-2018 15:00:00 15.20833 C 6.44 g/m*3 15.21 C 9.00833 km/h
1792 02-04-2018 16:00:00 15.28333 C 6.4 g/m*3 15.28 C 5.48333 km/h
1793 02-04-2018 17:00:00 15.20833 C 6.49 g/m*3 15.21 C 6.025 km/h
1794 02-04-2018 18:00:00 14.50833 C 6.49 g/m*3 14.51 C 3.2 km/h
1795 02-04-2018 19:00:00 13.35833 C 7.13 g/m*3 13.36 C 1.075 km/h
1796 02-04-2018 20:00:00 11.75833 C 7.13 g/m*3 11.76 C 0 km/h
1797 02-04-2018 21:00:00 10.825 C 7.04 g/m*3 10.83 C 0.4 km/h
1798 02-04-2018 22:00:00 10.16667 C 6.81 g/m*3 10.17 C 2.93333 km/h
1799 02-04-2018 23:00:00 9.88333 C 6.58 g/m*3 9.88 C 0 km/h
1800 03-04-2018 00:00:00 10.13333 C 6.77 g/m*3 10.13 C 0 km/h
Sensor: Nr:Datum:Temp:Abs-Feuchte:Windchill:Wind:
Aussen-T/F 1801 03-04-2018 01:00:00 10.31667 C 7.02 g/m*3 10.32 C 0 km/h
1802 03-04-2018 02:00:00 10.3 C 7.41 g/m*3 10.3 C 0 km/h
1803 03-04-2018 03:00:00 9.93333 C 7.54 g/m*3 9.93 C 0.4 km/h
1804 03-04-2018 04:00:00 9.8 C 7.75 g/m*3 9.8 C 0 km/h
1805 03-04-2018 05:00:00 9.81667 C 7.81 g/m*3 9.82 C 0.53333 km/h
1806 03-04-2018 06:00:00 10.50833 C 7.92 g/m*3 10.15 C 5.63333 km/h
1807 03-04-2018 07:00:00 10.125 C 7.66 g/m*3 10.13 C 1.2 km/h
1808 03-04-2018 08:00:00 10.35 C 7.72 g/m*3 10.35 C 3.06667 km/h
1809 03-04-2018 09:00:00 12.05833 C 7.37 g/m*3 12.06 C 5.64167 km/h
1810 03-04-2018 10:00:00 14.43333 C 7.24 g/m*3 14.43 C 9.825 km/h
1811 03-04-2018 11:00:00 15.65833 C 7.2 g/m*3 15.66 C 12.23333 km/h
1812 03-04-2018 12:00:00 17.16667 C 7.11 g/m*3 17.17 C 12.9 km/h
1813 03-04-2018 13:00:00 17.93333 C 7.28 g/m*3 17.93 C 12.49167 km/h
1814 03-04-2018 14:00:00 18.2 C 7.56 g/m*3 18.2 C 12.9 km/h
1815 03-04-2018 15:00:00 18.68333 C 7.97 g/m*3 18.68 C 17.03333 km/h
1816 03-04-2018 16:00:00 17.825 C 7.93 g/m*3 17.83 C 12.09167 km/h
1817 03-04-2018 17:00:00 17.45833 C 7.96 g/m*3 17.46 C 7.8 km/h
1818 03-04-2018 18:00:00 17.14167 C 8.07 g/m*3 17.14 C 5.35833 km/h
1819 03-04-2018 19:00:00 16 C 8.48 g/m*3 16 C 1.46667 km/h
1820 03-04-2018 20:00:00 13.19167 C 8.37 g/m*3 13.19 C 4.13333 km/h
1821 03-04-2018 21:00:00 11.675 C 8.13 g/m*3 11.68 C 2.8 km/h
1822 03-04-2018 22:00:00 10.70833 C 7.89 g/m*3 10.71 C 0 km/h
1823 03-04-2018 23:00:00 10.98333 C 8.18 g/m*3 10.98 C 0.66667 km/h
1824 04-04-2018 00:00:00 12.34167 C 8.29 g/m*3 12.34 C 5.1 km/h
1825 04-04-2018 01:00:00 11.475 C 8.15 g/m*3 11.48 C 2.28333 km/h
Sensor: Nr:Datum:Temp:Abs-Feuchte:Windchill:Wind:
Aussen-T/F 1826 04-04-2018 02:00:00 10.33333 C 7.92 g/m*3 10.33 C 2.4 km/h
1827 04-04-2018 03:00:00 9.64167 C 7.83 g/m*3 9.64 C 2.4 km/h
1828 04-04-2018 04:00:00 9.175 C 7.76 g/m*3 9.18 C 0 km/h
1829 04-04-2018 05:00:00 9.275 C 7.92 g/m*3 9.28 C 0 km/h
1830 04-04-2018 06:00:00 9.575 C 8.01 g/m*3 9.57 C 1.46667 km/h
1831 04-04-2018 07:00:00 10.25833 C 8.16 g/m*3 10.26 C 0.8 km/h
1832 04-04-2018 08:00:00 10.34167 C 8.51 g/m*3 10.34 C 1.74167 km/h
1833 04-04-2018 09:00:00 10.35 C 8.95 g/m*3 10.35 C 1.06667 km/h
1834 04-04-2018 10:00:00 11.50833 C 9.75 g/m*3 11.51 C 1.86667 km/h
1835 04-04-2018 11:00:00 13.375 C 9.82 g/m*3 13.38 C 4.68333 km/h
1836 04-04-2018 12:00:00 14.425 C 9.52 g/m*3 14.43 C 7.24167 km/h
1837 04-04-2018 13:00:00 13.26667 C 9.82 g/m*3 13.27 C 3.48333 km/h
1838 04-04-2018 14:00:00 11.84167 C 9.42 g/m*3 11.84 C 4.81667 km/h
1839 04-04-2018 15:00:00 12.30833 C 9.44 g/m*3 12.31 C 5.88333 km/h
1840 04-04-2018 16:00:00 13.11667 C 9.32 g/m*3 13.12 C 9.28333 km/h
1841 04-04-2018 17:00:00 13.03333 C 8.92 g/m*3 13.03 C 6.55833 km/h
1842 04-04-2018 18:00:00 12.68333 C 8.61 g/m*3 12.68 C 5.75833 km/h
1843 04-04-2018 19:00:00 12.7 C 8.61 g/m*3 12.7 C 5.75833 km/h
1844 04-04-2018 20:00:00 10.61667 C 8.17 g/m*3 10.62 C 4.13333 km/h
1845 04-04-2018 21:00:00 8.9 C 7.88 g/m*3 8.9 C 3.33333 km/h
1846 04-04-2018 22:00:00 8.61667 C 7.85 g/m*3 8.62 C 3.46667 km/h
1847 04-04-2018 23:00:00 8.96667 C 8.03 g/m*3 8.97 C 2 km/h
1848 05-04-2018 00:00:00 9.85833 C 8.13 g/m*3 8.8 C 8.19167 km/h
1849 05-04-2018 01:00:00 8.55833 C 7.63 g/m*3 8.56 C 1.6 km/h
1850 05-04-2018 02:00:00 8.05 C 7.62 g/m*3 8.05 C 2.66667 km/h
Sensor: Nr:Datum:Temp:Abs-Feuchte:Windchill:Wind:
Aussen-T/F 1851 05-04-2018 03:00:00 7.68333 C 7.46 g/m*3 7.68 C 2.53333 km/h
1852 05-04-2018 04:00:00 8 C 7.77 g/m*3 8 C 0 km/h
1853 05-04-2018 05:00:00 8.35 C 8.03 g/m*3 8.35 C 1.2 km/h
1854 05-04-2018 06:00:00 8.65 C 8.26 g/m*3 8.65 C 0.8 km/h
1855 05-04-2018 07:00:00 8.825 C 8.35 g/m*3 7.9 C 6.84167 km/h
1856 05-04-2018 08:00:00 8.875 C 8.26 g/m*3 7.79 C 7.51667 km/h
1857 05-04-2018 09:00:00 9.66667 C 8.39 g/m*3 7.74 C 13.16667 km/h
1858 05-04-2018 10:00:00 9.05833 C 7.43 g/m*3 6.84 C 14.36667 km/h
1859 05-04-2018 11:00:00 9.975 C 7.33 g/m*3 7.93 C 14.63333 km/h
1860 05-04-2018 12:00:00 10.25833 C 6.75 g/m*3 7.62 C 20.90833 km/h
1861 05-04-2018 13:00:00 10.55 C 6.75 g/m*3 8.45 C 16.23333 km/h
1862 05-04-2018 14:00:00 9.33333 C 7.04 g/m*3 7.02 C 15.575 km/h
1863 05-04-2018 15:00:00 9.59167 C 6.5 g/m*3 7.28 C 16.1 km/h
1864 05-04-2018 16:00:00 8.75 C 6.65 g/m*3 6.53 C 13.81667 km/h
1865 05-04-2018 17:00:00 8.075 C 6.45 g/m*3 5.27 C 17.16667 km/h
1866 05-04-2018 18:00:00 7.89167 C 6.17 g/m*3 6.28 C 9.15 km/h
1867 05-04-2018 19:00:00 8.44167 C 6.05 g/m*3 7.79 C 5.63333 km/h
1868 05-04-2018 20:00:00 6.55 C 5.81 g/m*3 6.55 C 2.4 km/h
1869 05-04-2018 21:00:00 4.84167 C 5.73 g/m*3 4.84 C 2.53333 km/h
1870 05-04-2018 22:00:00 3.43333 C 5.46 g/m*3 3.43 C 0.26667 km/h
1871 05-04-2018 23:00:00 2.58333 C 5.27 g/m*3 2.58 C 0.26667 km/h
1872 06-04-2018 00:00:00 1.925 C 5.07 g/m*3 1.93 C 0 km/h
1873 06-04-2018 01:00:00 1.34167 C 4.94 g/m*3 1.34 C 0 km/h
1874 06-04-2018 02:00:00 1.15833 C 4.92 g/m*3 1.16 C 0.13333 km/h
1875 06-04-2018 03:00:00 0.59167 C 4.74 g/m*3 0.59 C 0 km/h
Sensor: Nr:Datum:Temp:Abs-Feuchte:Windchill:Wind:
Aussen-T/F 1876 06-04-2018 04:00:00 0.29167 C 4.68 g/m*3 0.29 C 0 km/h
1877 06-04-2018 05:00:00 0.4 C 4.73 g/m*3 0.4 C 0 km/h
1878 06-04-2018 06:00:00 0.3 C 4.7 g/m*3 0.3 C 0 km/h
1879 06-04-2018 07:00:00 0.20833 C 4.67 g/m*3 0.21 C 0.13333 km/h
1880 06-04-2018 08:00:00 0.41667 C 4.77 g/m*3 0.42 C 0.4 km/h
1881 06-04-2018 09:00:00 1.4 C 5.12 g/m*3 1.4 C 2 km/h
1882 06-04-2018 10:00:00 3.81667 C 5.85 g/m*3 3.82 C 4.95833 km/h
1883 06-04-2018 11:00:00 8.48333 C 5.67 g/m*3 6.71 C 10.625 km/h
1884 06-04-2018 12:00:00 10.35 C 5.46 g/m*3 8.97 C 10.49167 km/h
1885 06-04-2018 13:00:00 11.8 C 5.34 g/m*3 11.8 C 13.03333 km/h
1886 06-04-2018 14:00:00 13.45 C 5.28 g/m*3 13.45 C 13.3 km/h
1887 06-04-2018 15:00:00 14.325 C 5.06 g/m*3 14.33 C 12.625 km/h
1888 06-04-2018 16:00:00 15.41667 C 5.22 g/m*3 15.42 C 13.16667 km/h
1889 06-04-2018 17:00:00 16.34167 C 5.16 g/m*3 16.34 C 10.2 km/h
1890 06-04-2018 18:00:00 16.61667 C 5.35 g/m*3 16.62 C 8.33333 km/h
1891 06-04-2018 19:00:00 15.14167 C 6.05 g/m*3 15.14 C 3.88333 km/h
1892 06-04-2018 20:00:00 10.2 C 6.29 g/m*3 9.96 C 5.06667 km/h
1893 06-04-2018 21:00:00 8.425 C 6.2 g/m*3 8.43 C 4.26667 km/h
1894 06-04-2018 22:00:00 7.73333 C 6.13 g/m*3 7.03 C 5.46667 km/h
1895 06-04-2018 23:00:00 7.19167 C 6.02 g/m*3 6.55 C 5.06667 km/h
1896 07-04-2018 00:00:00 6.95833 C 6.04 g/m*3 6.96 C 4.93333 km/h
1897 07-04-2018 01:00:00 6.625 C 6.04 g/m*3 5.85 C 5.20833 km/h
1898 07-04-2018 02:00:00 6.375 C 5.94 g/m*3 6.38 C 4 km/h
1899 07-04-2018 03:00:00 5.81667 C 5.94 g/m*3 5.82 C 4.13333 km/h
1900 07-04-2018 04:00:00 5.03333 C 5.76 g/m*3 5.03 C 0.8 km/h
Sensor: Nr:Datum:Temp:Abs-Feuchte:Windchill:Wind:
Aussen-T/F 1901 07-04-2018 05:00:00 4.025 C 5.58 g/m*3 4.03 C 0.4 km/h
1902 07-04-2018 06:00:00 3.76667 C 5.62 g/m*3 3.77 C 0.66667 km/h
1903 07-04-2018 07:00:00 3.3 C 5.47 g/m*3 3.3 C 0 km/h
1904 07-04-2018 08:00:00 3.45833 C 5.62 g/m*3 3.46 C 0 km/h
1905 07-04-2018 09:00:00 4.75833 C 6.08 g/m*3 4.76 C 0.53333 km/h
1906 07-04-2018 10:00:00 8.03333 C 6.81 g/m*3 8.03 C 2.675 km/h
1907 07-04-2018 11:00:00 12.83333 C 7.31 g/m*3 12.83 C 4.675 km/h
1908 07-04-2018 12:00:00 16.60833 C 7.28 g/m*3 16.61 C 8.74167 km/h
1909 07-04-2018 13:00:00 19.01667 C 7.35 g/m*3 19.02 C 7.24167 km/h
1910 07-04-2018 14:00:00 21.61667 C 7.13 g/m*3 21.62 C 9.13333 km/h
1911 07-04-2018 15:00:00 22.65 C 7.14 g/m*3 22.65 C 9.15 km/h
1912 07-04-2018 16:00:00 23.1 C 7.49 g/m*3 23.1 C 8.33333 km/h
1913 07-04-2018 17:00:00 23.975 C 7.77 g/m*3 23.98 C 7.80833 km/h
1914 07-04-2018 18:00:00 23.65 C 7.89 g/m*3 23.65 C 6.975 km/h
1915 07-04-2018 19:00:00 21.51667 C 8.53 g/m*3 21.52 C 3.6 km/h
1916 07-04-2018 20:00:00 16.35833 C 8.5 g/m*3 16.36 C 5.20833 km/h
1917 07-04-2018 21:00:00 14.36667 C 8.29 g/m*3 14.37 C 6.55833 km/h
1918 07-04-2018 22:00:00 13.59167 C 8.09 g/m*3 13.59 C 3.2 km/h
1919 07-04-2018 23:00:00 12.575 C 8.06 g/m*3 12.58 C 0.13333 km/h
1920 08-04-2018 00:00:00 11.575 C 8.03 g/m*3 11.58 C 0 km/h
1921 08-04-2018 01:00:00 10.28333 C 7.88 g/m*3 10.28 C 0 km/h
1922 08-04-2018 02:00:00 9.65833 C 7.69 g/m*3 9.66 C 0 km/h
1923 08-04-2018 03:00:00 9.2 C 7.61 g/m*3 9.2 C 0 km/h
1924 08-04-2018 04:00:00 8.93333 C 7.56 g/m*3 8.93 C 0 km/h
1925 08-04-2018 05:00:00 8.09167 C 7.26 g/m*3 8.09 C 0 km/h
Sensor: Nr:Datum:Temp:Abs-Feuchte:Windchill:Wind:
Aussen-T/F 1926 08-04-2018 06:00:00 7.425 C 7.08 g/m*3 7.43 C 0 km/h
1927 08-04-2018 07:00:00 7.38333 C 7.16 g/m*3 7.38 C 0 km/h
1928 08-04-2018 08:00:00 8.01667 C 7.53 g/m*3 8.02 C 0.26667 km/h
1929 08-04-2018 09:00:00 9.84167 C 8.18 g/m*3 9.84 C 0 km/h
1930 08-04-2018 10:00:00 12.33333 C 8.66 g/m*3 12.33 C 0 km/h
1931 08-04-2018 11:00:00 14.70833 C 9.03 g/m*3 14.71 C 0.13333 km/h
1932 08-04-2018 12:00:00 17.9 C 8.83 g/m*3 17.9 C 0 km/h
1933 08-04-2018 13:00:00 21.10833 C 8.45 g/m*3 21.11 C 0 km/h
1934 08-04-2018 14:00:00 23.525 C 8.37 g/m*3 23.53 C 0.8 km/h
1935 08-04-2018 15:00:00 24.11667 C 7.81 g/m*3 24.12 C 6.3 km/h
1936 08-04-2018 16:00:00 24.91667 C 7.35 g/m*3 24.92 C 9.81667 km/h
1937 08-04-2018 17:00:00 25.10833 C 8.32 g/m*3 25.11 C 2.80833 km/h
1938 08-04-2018 18:00:00 24.25 C 8.57 g/m*3 24.25 C 1.33333 km/h
1939 08-04-2018 19:00:00 20.29167 C 8.89 g/m*3 20.29 C 3.46667 km/h
1940 08-04-2018 20:00:00 17.49167 C 8.44 g/m*3 17.49 C 6.54167 km/h
1941 08-04-2018 21:00:00 15.725 C 8.64 g/m*3 15.73 C 1.46667 km/h
1942 08-04-2018 22:00:00 13.61667 C 8.4 g/m*3 13.62 C 0.13333 km/h
1943 08-04-2018 23:00:00 12.2 C 8.23 g/m*3 12.2 C 0 km/h
1944 09-04-2018 00:00:00 11.09167 C 8.01 g/m*3 11.09 C 0 km/h
1945 09-04-2018 01:00:00 9.96667 C 7.88 g/m*3 9.97 C 0 km/h
1946 09-04-2018 02:00:00 9.21667 C 7.69 g/m*3 9.22 C 0 km/h
1947 09-04-2018 03:00:00 8.475 C 7.57 g/m*3 8.48 C 0 km/h
1948 09-04-2018 04:00:00 7.63333 C 7.3 g/m*3 7.63 C 0 km/h
1949 09-04-2018 05:00:00 7.325 C 7.29 g/m*3 7.33 C 0 km/h
1950 09-04-2018 06:00:00 6.90833 C 7.12 g/m*3 6.91 C 0 km/h
Sensor: Nr:Datum:Temp:Abs-Feuchte:Windchill:Wind:
Aussen-T/F 1951 09-04-2018 07:00:00 7.13333 C 7.35 g/m*3 7.13 C 0 km/h
1952 09-04-2018 08:00:00 7.975 C 7.76 g/m*3 7.98 C 0 km/h
1953 09-04-2018 09:00:00 9.38333 C 8.2 g/m*3 9.38 C 0 km/h
1954 09-04-2018 10:00:00 11.775 C 8.7 g/m*3 11.78 C 0 km/h
1955 09-04-2018 11:00:00 14.50833 C 9.17 g/m*3 14.51 C 0 km/h
1956 09-04-2018 12:00:00 16.61667 C 9.43 g/m*3 16.62 C 0.13333 km/h
1957 09-04-2018 13:00:00 18.84167 C 9.09 g/m*3 18.84 C 2.28333 km/h
1958 09-04-2018 14:00:00 20.94167 C 8.15 g/m*3 20.94 C 9.28333 km/h
1959 09-04-2018 15:00:00 21.3 C 8 g/m*3 21.3 C 8.075 km/h
1960 09-04-2018 16:00:00 21.65833 C 8.28 g/m*3 21.66 C 6.43333 km/h
1961 09-04-2018 17:00:00 20.76667 C 8.52 g/m*3 20.77 C 7.375 km/h
1962 09-04-2018 18:00:00 20.43333 C 8.58 g/m*3 20.43 C 3.6 km/h
1963 09-04-2018 19:00:00 19.41667 C 9.03 g/m*3 19.42 C 3.20833 km/h
1964 09-04-2018 20:00:00 16.04167 C 8.98 g/m*3 16.04 C 4.93333 km/h
1965 09-04-2018 21:00:00 14.75833 C 9.03 g/m*3 14.76 C 4.4 km/h
1966 09-04-2018 22:00:00 14.06667 C 9.14 g/m*3 14.07 C 3.73333 km/h
1967 09-04-2018 23:00:00 13.36667 C 9.3 g/m*3 13.37 C 3.6 km/h
1968 10-04-2018 00:00:00 12.775 C 9.29 g/m*3 12.78 C 2.4 km/h
1969 10-04-2018 01:00:00 12.13333 C 9.19 g/m*3 12.13 C 0 km/h
1970 10-04-2018 02:00:00 11.575 C 9.11 g/m*3 11.58 C 0 km/h
1971 10-04-2018 03:00:00 11.14167 C 8.98 g/m*3 11.14 C 0 km/h
1972 10-04-2018 04:00:00 10.48333 C 8.74 g/m*3 10.48 C 0 km/h
1973 10-04-2018 05:00:00 10.1 C 8.68 g/m*3 10.1 C 0 km/h
1974 10-04-2018 06:00:00 9.58333 C 8.42 g/m*3 9.58 C 0 km/h
1975 10-04-2018 07:00:00 9.46667 C 8.51 g/m*3 9.47 C 0 km/h
Sensor: Nr:Datum:Temp:Abs-Feuchte:Windchill:Wind:
Aussen-T/F 1976 10-04-2018 08:00:00 10.13333 C 8.91 g/m*3 10.13 C 0 km/h
1977 10-04-2018 09:00:00 11.325 C 9.34 g/m*3 11.33 C 0 km/h
1978 10-04-2018 10:00:00 12.60833 C 9.63 g/m*3 12.61 C 0 km/h
1979 10-04-2018 11:00:00 13.84167 C 9.92 g/m*3 13.84 C 0 km/h
1980 10-04-2018 12:00:00 15.03333 C 10.18 g/m*3 15.03 C 0 km/h
1981 10-04-2018 13:00:00 16.925 C 9.46 g/m*3 16.93 C 1.35 km/h
1982 10-04-2018 14:00:00 18.06667 C 9.05 g/m*3 18.07 C 7.25 km/h
1983 10-04-2018 15:00:00 19.275 C 8.78 g/m*3 19.27 C 7.64167 km/h
1984 10-04-2018 16:00:00 20.375 C 8.79 g/m*3 20.38 C 5.89167 km/h
1985 10-04-2018 17:00:00 18.35833 C 8.64 g/m*3 18.36 C 7.65833 km/h
1986 10-04-2018 18:00:00 16.85833 C 8.87 g/m*3 16.86 C 9.275 km/h
1987 10-04-2018 19:00:00 15.74167 C 8.82 g/m*3 15.74 C 12.1 km/h
1988 10-04-2018 20:00:00 13.46667 C 8.38 g/m*3 13.47 C 16.1 km/h
1989 10-04-2018 21:00:00 12.26667 C 7.59 g/m*3 12.27 C 11.55 km/h
1990 10-04-2018 22:00:00 10.25 C 8.2 g/m*3 9.32 C 7.925 km/h
1991 10-04-2018 23:00:00 9.375 C 8.25 g/m*3 9.38 C 2.4 km/h
1992 11-04-2018 00:00:00 9.4 C 8.47 g/m*3 9.4 C 0.8 km/h
1993 11-04-2018 01:00:00 9.40833 C 8.56 g/m*3 9.41 C 0.13333 km/h
1994 11-04-2018 02:00:00 9.3 C 8.54 g/m*3 9.3 C 0 km/h
1995 11-04-2018 03:00:00 9.2 C 8.5 g/m*3 9.2 C 1.875 km/h
1996 11-04-2018 04:00:00 9.01667 C 8.43 g/m*3 9.02 C 0.13333 km/h
1997 11-04-2018 05:00:00 8.975 C 8.45 g/m*3 8.98 C 0 km/h
1998 11-04-2018 06:00:00 8.93333 C 8.43 g/m*3 8.93 C 0.13333 km/h
1999 11-04-2018 07:00:00 8.84167 C 8.38 g/m*3 8.84 C 0.13333 km/h
2000 11-04-2018 08:00:00 9.025 C 8.48 g/m*3 9.03 C 1.33333 km/h
Sensor: Nr:Datum:Temp:Abs-Feuchte:Windchill:Wind:
Aussen-T/F 2001 11-04-2018 09:00:00 9.34167 C 8.65 g/m*3 9.34 C 3.73333 km/h
2002 11-04-2018 10:00:00 9.95833 C 8.97 g/m*3 9.96 C 2.66667 km/h
2003 11-04-2018 11:00:00 10.50833 C 9.17 g/m*3 10.51 C 0.53333 km/h
2004 11-04-2018 12:00:00 11.93333 C 9.72 g/m*3 11.93 C 4.00833 km/h
2005 11-04-2018 13:00:00 13.15 C 9.43 g/m*3 13.15 C 9.41667 km/h
2006 11-04-2018 14:00:00 14.39167 C 9.52 g/m*3 14.39 C 7.91667 km/h
2007 11-04-2018 15:00:00 15.43333 C 9.47 g/m*3 15.43 C 8.6 km/h
2008 11-04-2018 16:00:00 16.025 C 9.68 g/m*3 16.02 C 10.75833 km/h
2009 11-04-2018 17:00:00 16.7 C 9.68 g/m*3 16.7 C 11.43333 km/h
2010 11-04-2018 18:00:00 16.56667 C 9.56 g/m*3 16.57 C 11.7 km/h
2011 11-04-2018 19:00:00 15.78333 C 9.75 g/m*3 15.78 C 5.65 km/h
2012 11-04-2018 20:00:00 13.15833 C 9.43 g/m*3 13.16 C 0.93333 km/h
2013 11-04-2018 21:00:00 11.14167 C 8.9 g/m*3 11.14 C 0 km/h
2014 11-04-2018 22:00:00 10.23333 C 8.68 g/m*3 10.23 C 0 km/h
2015 11-04-2018 23:00:00 9.58333 C 8.43 g/m*3 9.58 C 0 km/h
2016 12-04-2018 00:00:00 8.75 C 8.1 g/m*3 8.75 C 0 km/h
2017 12-04-2018 01:00:00 8.03333 C 7.8 g/m*3 8.03 C 0 km/h
2018 12-04-2018 02:00:00 7.64167 C 7.67 g/m*3 7.64 C 0 km/h
2019 12-04-2018 03:00:00 7.175 C 7.45 g/m*3 7.18 C 0 km/h
2020 12-04-2018 04:00:00 6.79167 C 7.3 g/m*3 6.79 C 0 km/h
2021 12-04-2018 05:00:00 7.21667 C 7.54 g/m*3 7.22 C 0 km/h
2022 12-04-2018 06:00:00 7.88333 C 7.92 g/m*3 7.88 C 0 km/h
2023 12-04-2018 07:00:00 8.50833 C 8.22 g/m*3 8.51 C 0 km/h
2024 12-04-2018 08:00:00 8.875 C 8.45 g/m*3 8.88 C 0 km/h
2025 12-04-2018 09:00:00 9.69167 C 8.85 g/m*3 9.69 C 0 km/h
Sensor: Nr:Datum:Temp:Abs-Feuchte:Windchill:Wind:
Aussen-T/F 2026 12-04-2018 10:00:00 11.36667 C 9.55 g/m*3 11.37 C 0 km/h
2027 12-04-2018 11:00:00 14.04167 C 10.18 g/m*3 14.04 C 0 km/h
2028 12-04-2018 12:00:00 16.66667 C 10.46 g/m*3 16.67 C 4.16667 km/h
2029 12-04-2018 13:00:00 18.425 C 10.55 g/m*3 18.43 C 8.05833 km/h
2030 12-04-2018 14:00:00 19.74167 C 10.06 g/m*3 19.74 C 7.525 km/h
2031 12-04-2018 15:00:00 20.2 C 9.95 g/m*3 20.2 C 7.79167 km/h
2032 12-04-2018 16:00:00 19.8 C 9.95 g/m*3 19.8 C 8.2 km/h
2033 12-04-2018 17:00:00 21.01667 C 9.55 g/m*3 21.02 C 8.58333 km/h
2034 12-04-2018 18:00:00 21.09167 C 9.15 g/m*3 21.09 C 9 km/h
2035 12-04-2018 19:00:00 18.94167 C 9.78 g/m*3 18.94 C 1.73333 km/h
2036 12-04-2018 20:00:00 15.4 C 9.66 g/m*3 15.4 C 1.6 km/h
2037 12-04-2018 21:00:00 13.49167 C 9.17 g/m*3 13.49 C 0.53333 km/h
2038 12-04-2018 22:00:00 11.94167 C 8.88 g/m*3 11.94 C 0 km/h
2039 12-04-2018 23:00:00 10.86667 C 8.69 g/m*3 10.87 C 0.26667 km/h
2040 13-04-2018 00:00:00 9.9 C 8.34 g/m*3 9.9 C 0 km/h
2041 13-04-2018 01:00:00 9.23333 C 8.17 g/m*3 9.23 C 0 km/h
2042 13-04-2018 02:00:00 8.7 C 7.94 g/m*3 8.7 C 0 km/h
2043 13-04-2018 03:00:00 8 C 7.71 g/m*3 8 C 0 km/h
2044 13-04-2018 04:00:00 7.21667 C 7.37 g/m*3 7.22 C 0 km/h
2045 13-04-2018 05:00:00 6.8 C 7.25 g/m*3 6.8 C 0.8 km/h
2046 13-04-2018 06:00:00 6.63333 C 7.19 g/m*3 6.63 C 1.46667 km/h
2047 13-04-2018 07:00:00 6.46667 C 7.13 g/m*3 6.47 C 0.26667 km/h
2048 13-04-2018 08:00:00 7.29167 C 7.55 g/m*3 6.35 C 6.025 km/h
2049 13-04-2018 09:00:00 8.23333 C 7.88 g/m*3 7.39 C 6.175 km/h
2050 13-04-2018 10:00:00 9.71667 C 8.35 g/m*3 9.72 C 4.29167 km/h
Sensor: Nr:Datum:Temp:Abs-Feuchte:Windchill:Wind:
Aussen-T/F 2051 13-04-2018 11:00:00 10.75833 C 8.66 g/m*3 10.27 C 6.29167 km/h
2052 13-04-2018 12:00:00 11.38333 C 8.83 g/m*3 11.38 C 7.925 km/h
2053 13-04-2018 13:00:00 12.35 C 8.83 g/m*3 12.35 C 6.30833 km/h
2054 13-04-2018 14:00:00 13.63333 C 8.68 g/m*3 13.63 C 8.05 km/h
2055 13-04-2018 15:00:00 14.06667 C 8.78 g/m*3 14.07 C 9.69167 km/h
2056 13-04-2018 16:00:00 13.85 C 8.87 g/m*3 13.85 C 7.50833 km/h
2057 13-04-2018 17:00:00 14.05833 C 9.16 g/m*3 14.06 C 2.54167 km/h
2058 13-04-2018 18:00:00 13.4 C 9.23 g/m*3 13.4 C 1.46667 km/h
2059 13-04-2018 19:00:00 12.21667 C 9.56 g/m*3 12.22 C 3.475 km/h
2060 13-04-2018 20:00:00 11.70833 C 9.42 g/m*3 11.71 C 1.6 km/h
2061 13-04-2018 21:00:00 11.25 C 9.47 g/m*3 11.25 C 0.93333 km/h
2062 13-04-2018 22:00:00 10.675 C 9.23 g/m*3 10.68 C 0 km/h
2063 13-04-2018 23:00:00 10.18333 C 8.99 g/m*3 10.18 C 0.8 km/h
2064 14-04-2018 00:00:00 9.3 C 8.47 g/m*3 9.3 C 0.8 km/h
2065 14-04-2018 01:00:00 8.91667 C 8.26 g/m*3 8.92 C 1.46667 km/h
2066 14-04-2018 02:00:00 8.65 C 8.05 g/m*3 8.65 C 0.93333 km/h
2067 14-04-2018 03:00:00 7.64167 C 7.54 g/m*3 7.64 C 0 km/h
2068 14-04-2018 04:00:00 6.89167 C 7.28 g/m*3 6.89 C 0 km/h
2069 14-04-2018 05:00:00 6.78333 C 7.25 g/m*3 6.78 C 0 km/h
2070 14-04-2018 06:00:00 6.375 C 7.06 g/m*3 6.38 C 0 km/h
2071 14-04-2018 07:00:00 6.025 C 6.92 g/m*3 6.03 C 0 km/h
2072 14-04-2018 08:00:00 6.675 C 7.28 g/m*3 6.68 C 0 km/h
2073 14-04-2018 09:00:00 8.39167 C 8.14 g/m*3 8.39 C 0 km/h
2074 14-04-2018 10:00:00 11.14167 C 9.16 g/m*3 11.14 C 7.80833 km/h
2075 14-04-2018 11:00:00 14.71667 C 9.43 g/m*3 14.72 C 10.49167 km/h
Sensor: Nr:Datum:Temp:Abs-Feuchte:Windchill:Wind:
Aussen-T/F 2076 14-04-2018 12:00:00 16.85833 C 9.36 g/m*3 16.86 C 9.15833 km/h
2077 14-04-2018 13:00:00 18.3 C 8.79 g/m*3 18.3 C 12.49167 km/h
2078 14-04-2018 14:00:00 19.90833 C 8.54 g/m*3 19.91 C 13.3 km/h
2079 14-04-2018 15:00:00 20.575 C 8.38 g/m*3 20.58 C 13.025 km/h
2080 14-04-2018 16:00:00 21.19167 C 8.4 g/m*3 21.19 C 12.23333 km/h
2081 14-04-2018 17:00:00 20.66667 C 8.37 g/m*3 20.67 C 9.28333 km/h
2082 14-04-2018 18:00:00 19.61667 C 8.7 g/m*3 19.62 C 4.54167 km/h
2083 14-04-2018 19:00:00 18.2 C 9.42 g/m*3 18.2 C 1.6 km/h
2084 14-04-2018 20:00:00 15.56667 C 9.07 g/m*3 15.57 C 3.6 km/h
2085 14-04-2018 21:00:00 14.44167 C 9.11 g/m*3 14.44 C 1.33333 km/h
2086 14-04-2018 22:00:00 13.93333 C 9.16 g/m*3 13.93 C 0 km/h
2087 14-04-2018 23:00:00 13.25 C 9.1 g/m*3 13.25 C 0 km/h
2088 15-04-2018 00:00:00 12.70833 C 9.19 g/m*3 12.71 C 0 km/h
2089 15-04-2018 01:00:00 12.61667 C 9.2 g/m*3 12.62 C 0 km/h
2090 15-04-2018 02:00:00 12.6 C 9.22 g/m*3 12.6 C 0 km/h
2091 15-04-2018 03:00:00 12.45 C 9.85 g/m*3 12.45 C 0 km/h
2092 15-04-2018 04:00:00 11.9 C 9.87 g/m*3 11.9 C 0 km/h
2093 15-04-2018 05:00:00 11.66667 C 9.81 g/m*3 11.67 C 0 km/h
2094 15-04-2018 06:00:00 11.575 C 9.86 g/m*3 11.58 C 0 km/h
2095 15-04-2018 07:00:00 11.49167 C 9.83 g/m*3 11.49 C 0 km/h
2096 15-04-2018 08:00:00 11.71667 C 10.05 g/m*3 11.72 C 0 km/h
2097 15-04-2018 09:00:00 12.16667 C 10.34 g/m*3 12.17 C 0 km/h
2098 15-04-2018 10:00:00 12.8 C 10.72 g/m*3 12.8 C 0 km/h
2099 15-04-2018 11:00:00 13.575 C 11.06 g/m*3 13.58 C 0 km/h
2100 15-04-2018 12:00:00 14.275 C 10.61 g/m*3 14.28 C 0 km/h
Sensor: Nr:Datum:Temp:Abs-Feuchte:Windchill:Wind:
Aussen-T/F 2101 15-04-2018 13:00:00 15.81667 C 10.35 g/m*3 15.82 C 4.03333 km/h
2102 15-04-2018 14:00:00 17.40833 C 10.4 g/m*3 17.41 C 6.03333 km/h
2103 15-04-2018 15:00:00 19.075 C 9.85 g/m*3 19.08 C 8.33333 km/h
2104 15-04-2018 16:00:00 20.125 C 9.66 g/m*3 20.13 C 8.75 km/h
2105 15-04-2018 17:00:00 20.63333 C 9.8 g/m*3 20.63 C 6.56667 km/h
2106 15-04-2018 18:00:00 20.26667 C 10.11 g/m*3 20.27 C 3.88333 km/h
2107 15-04-2018 19:00:00 17.69167 C 10.73 g/m*3 17.69 C 2.4 km/h
2108 15-04-2018 20:00:00 14.86667 C 9.98 g/m*3 14.87 C 4.13333 km/h
2109 15-04-2018 21:00:00 13.48333 C 9.6 g/m*3 13.48 C 0.26667 km/h
2110 15-04-2018 22:00:00 12.4 C 9.39 g/m*3 12.4 C 0 km/h
2111 15-04-2018 23:00:00 11.68333 C 9.13 g/m*3 11.68 C 0 km/h
2112 16-04-2018 00:00:00 11.34167 C 9.07 g/m*3 11.34 C 0 km/h
2113 16-04-2018 01:00:00 10.75 C 8.86 g/m*3 10.75 C 0 km/h
2114 16-04-2018 02:00:00 10.125 C 8.63 g/m*3 10.13 C 0 km/h
2115 16-04-2018 03:00:00 9.83333 C 8.56 g/m*3 9.83 C 1.06667 km/h
2116 16-04-2018 04:00:00 9.01667 C 8.12 g/m*3 9.02 C 0 km/h
2117 16-04-2018 05:00:00 8.175 C 7.86 g/m*3 8.18 C 0.13333 km/h
2118 16-04-2018 06:00:00 7.78333 C 7.72 g/m*3 7.78 C 0.4 km/h
2119 16-04-2018 07:00:00 7.79167 C 7.77 g/m*3 7.79 C 0 km/h
2120 16-04-2018 08:00:00 8.05 C 7.94 g/m*3 8.05 C 0 km/h
2121 16-04-2018 09:00:00 9.50833 C 8.79 g/m*3 9.51 C 0 km/h
2122 16-04-2018 10:00:00 12.28333 C 10.13 g/m*3 12.28 C 0 km/h
2123 16-04-2018 11:00:00 15.975 C 10.24 g/m*3 15.98 C 1.60833 km/h
2124 16-04-2018 12:00:00 17.56667 C 10.27 g/m*3 17.57 C 9.275 km/h
2125 16-04-2018 13:00:00 18.28333 C 10.19 g/m*3 18.28 C 10.75833 km/h
Sensor: Nr:Datum:Temp:Abs-Feuchte:Windchill:Wind:
Aussen-T/F 2126 16-04-2018 14:00:00 18.54167 C 9.46 g/m*3 18.54 C 11.96667 km/h
2127 16-04-2018 15:00:00 19.19167 C 9.17 g/m*3 19.19 C 11.41667 km/h
2128 16-04-2018 16:00:00 20.2 C 9.09 g/m*3 20.2 C 10.9 km/h
2129 16-04-2018 17:00:00 19.38333 C 9.15 g/m*3 19.38 C 12.9 km/h
2130 16-04-2018 18:00:00 18.35 C 9.21 g/m*3 18.35 C 8.625 km/h
2131 16-04-2018 19:00:00 18.14167 C 9.06 g/m*3 18.14 C 6.71667 km/h
2132 16-04-2018 20:00:00 15.725 C 9.06 g/m*3 15.73 C 2.94167 km/h
2133 16-04-2018 21:00:00 13.13333 C 8.98 g/m*3 13.13 C 3.86667 km/h
2134 16-04-2018 22:00:00 12.09167 C 8.68 g/m*3 12.09 C 1.73333 km/h
2135 16-04-2018 23:00:00 11.05 C 8.64 g/m*3 11.05 C 0 km/h
2136 17-04-2018 00:00:00 10.43333 C 8.31 g/m*3 10.43 C 0 km/h
2137 17-04-2018 01:00:00 9.18333 C 7.97 g/m*3 9.18 C 0 km/h
2138 17-04-2018 02:00:00 8.30833 C 7.7 g/m*3 8.31 C 0 km/h
2139 17-04-2018 03:00:00 7.75 C 7.52 g/m*3 7.75 C 0 km/h
2140 17-04-2018 04:00:00 7.14167 C 7.31 g/m*3 7.14 C 0 km/h
2141 17-04-2018 05:00:00 6.725 C 7.16 g/m*3 6.73 C 0 km/h
2142 17-04-2018 06:00:00 6.20833 C 6.96 g/m*3 6.21 C 0 km/h
2143 17-04-2018 07:00:00 6.075 C 6.93 g/m*3 6.08 C 0 km/h
2144 17-04-2018 08:00:00 6.95 C 7.41 g/m*3 6.95 C 0 km/h
2145 17-04-2018 09:00:00 8.25 C 8.07 g/m*3 8.25 C 0 km/h
2146 17-04-2018 10:00:00 10.3 C 8.99 g/m*3 10.3 C 0 km/h
2147 17-04-2018 11:00:00 13.76667 C 9.8 g/m*3 13.77 C 0 km/h
2148 17-04-2018 12:00:00 15.93333 C 9.95 g/m*3 15.93 C 0 km/h
2149 17-04-2018 13:00:00 18.29167 C 9.72 g/m*3 18.29 C 2.81667 km/h
2150 17-04-2018 14:00:00 19.90833 C 9.4 g/m*3 19.91 C 7.79167 km/h
Sensor: Nr:Datum:Temp:Abs-Feuchte:Windchill:Wind:
Aussen-T/F 2151 17-04-2018 15:00:00 21.2 C 8.77 g/m*3 21.2 C 7.50833 km/h
2152 17-04-2018 16:00:00 22.70833 C 8.49 g/m*3 22.71 C 7.4 km/h
2153 17-04-2018 17:00:00 23.95833 C 8.54 g/m*3 23.96 C 6.55833 km/h
2154 17-04-2018 18:00:00 24.29167 C 8.63 g/m*3 24.29 C 4.95 km/h
2155 17-04-2018 19:00:00 22.51667 C 9.41 g/m*3 22.52 C 2.93333 km/h
2156 17-04-2018 20:00:00 18.40833 C 9.55 g/m*3 18.41 C 4 km/h
2157 17-04-2018 21:00:00 15.36667 C 9.19 g/m*3 15.37 C 2.26667 km/h
2158 17-04-2018 22:00:00 13.51667 C 8.81 g/m*3 13.52 C 0 km/h
2159 17-04-2018 23:00:00 12.225 C 8.52 g/m*3 12.23 C 0 km/h
2160 18-04-2018 00:00:00 11.125 C 8.31 g/m*3 11.13 C 0 km/h
2161 18-04-2018 01:00:00 10.60833 C 8.19 g/m*3 10.61 C 0 km/h
2162 18-04-2018 02:00:00 9.58333 C 7.96 g/m*3 9.58 C 0 km/h
2163 18-04-2018 03:00:00 8.76667 C 7.72 g/m*3 8.77 C 0 km/h
2164 18-04-2018 04:00:00 8.025 C 7.54 g/m*3 8.03 C 0 km/h
2165 18-04-2018 05:00:00 7.61667 C 7.49 g/m*3 7.62 C 0 km/h
2166 18-04-2018 06:00:00 7.09167 C 7.29 g/m*3 7.09 C 0 km/h
2167 18-04-2018 07:00:00 7.08333 C 7.34 g/m*3 7.08 C 0 km/h
2168 18-04-2018 08:00:00 7.65833 C 7.68 g/m*3 7.66 C 0 km/h
2169 18-04-2018 09:00:00 9.01667 C 8.46 g/m*3 9.02 C 0 km/h
2170 18-04-2018 10:00:00 11.475 C 9.62 g/m*3 11.48 C 0 km/h
2171 18-04-2018 11:00:00 15.49167 C 10.56 g/m*3 15.49 C 0.8 km/h
2172 18-04-2018 12:00:00 19.15 C 10.85 g/m*3 19.15 C 3.075 km/h
2173 18-04-2018 13:00:00 22.35 C 9.24 g/m*3 22.35 C 7.91667 km/h
2174 18-04-2018 14:00:00 24.06667 C 8.75 g/m*3 24.07 C 8.73333 km/h
2175 18-04-2018 15:00:00 25.24167 C 9.12 g/m*3 25.24 C 11.55 km/h
Sensor: Nr:Datum:Temp:Abs-Feuchte:Windchill:Wind:
Aussen-T/F 2176 18-04-2018 16:00:00 26.35833 C 8.98 g/m*3 26.36 C 10.625 km/h
2177 18-04-2018 17:00:00 27.31667 C 8.53 g/m*3 27.32 C 10.76667 km/h
2178 18-04-2018 18:00:00 27.275 C 7.34 g/m*3 27.28 C 9.275 km/h
2179 18-04-2018 19:00:00 25.64167 C 8.79 g/m*3 25.64 C 4.41667 km/h
2180 18-04-2018 20:00:00 20.425 C 9.45 g/m*3 20.43 C 4.13333 km/h
2181 18-04-2018 21:00:00 17.475 C 9.71 g/m*3 17.48 C 2.13333 km/h
2182 18-04-2018 22:00:00 15.23333 C 9.64 g/m*3 15.23 C 0 km/h
2183 18-04-2018 23:00:00 13.50833 C 9.25 g/m*3 13.51 C 0 km/h
2184 19-04-2018 00:00:00 12.33333 C 9.01 g/m*3 12.33 C 0 km/h
2185 19-04-2018 01:00:00 11.44167 C 8.82 g/m*3 11.44 C 0 km/h
2186 19-04-2018 02:00:00 10.45 C 8.59 g/m*3 10.45 C 0 km/h
2187 19-04-2018 03:00:00 9.69167 C 8.36 g/m*3 9.69 C 0 km/h
2188 19-04-2018 04:00:00 9.175 C 8.26 g/m*3 9.18 C 0 km/h
2189 19-04-2018 05:00:00 8.75833 C 8.11 g/m*3 8.76 C 0 km/h
2190 19-04-2018 06:00:00 8.26667 C 7.91 g/m*3 8.27 C 0 km/h
2191 19-04-2018 07:00:00 8.225 C 7.97 g/m*3 8.23 C 0 km/h
2192 19-04-2018 08:00:00 8.875 C 8.37 g/m*3 8.88 C 0 km/h
2193 19-04-2018 09:00:00 10.29167 C 9.19 g/m*3 10.29 C 0 km/h
2194 19-04-2018 10:00:00 13.225 C 10.62 g/m*3 13.23 C 0 km/h
2195 19-04-2018 11:00:00 17.95 C 10.95 g/m*3 17.95 C 0.53333 km/h
2196 19-04-2018 12:00:00 22.23333 C 9.28 g/m*3 22.23 C 6.15 km/h
2197 19-04-2018 13:00:00 23.975 C 8.42 g/m*3 23.98 C 7.25 km/h
2198 19-04-2018 14:00:00 25.83333 C 7.76 g/m*3 25.83 C 12.76667 km/h
2199 19-04-2018 15:00:00 27.175 C 7.64 g/m*3 27.18 C 11.69167 km/h
2200 19-04-2018 16:00:00 28.6 C 7.59 g/m*3 28.6 C 10.88333 km/h
Sensor: Nr:Datum:Temp:Abs-Feuchte:Windchill:Wind:
Aussen-T/F 2201 19-04-2018 17:00:00 29.6 C 7.44 g/m*3 29.6 C 10.35 km/h
2202 19-04-2018 18:00:00 29.925 C 8.13 g/m*3 29.93 C 4.81667 km/h
2203 19-04-2018 19:00:00 27.14167 C 9.81 g/m*3 27.14 C 2.4 km/h
2204 19-04-2018 20:00:00 21.30833 C 9.28 g/m*3 21.31 C 4.26667 km/h
2205 19-04-2018 21:00:00 18.64167 C 9.12 g/m*3 18.64 C 2.8 km/h
2206 19-04-2018 22:00:00 15.9 C 9.21 g/m*3 15.9 C 0 km/h
2207 19-04-2018 23:00:00 14.21667 C 8.89 g/m*3 14.22 C 0 km/h
2208 20-04-2018 00:00:00 12.725 C 8.65 g/m*3 12.73 C 0 km/h
2209 20-04-2018 01:00:00 11.95833 C 8.7 g/m*3 11.96 C 0 km/h
2210 20-04-2018 02:00:00 10.925 C 8.48 g/m*3 10.93 C 0 km/h
2211 20-04-2018 03:00:00 10.10833 C 8.26 g/m*3 10.11 C 0 km/h
2212 20-04-2018 04:00:00 9.425 C 8.06 g/m*3 9.43 C 0 km/h
2213 20-04-2018 05:00:00 8.85 C 7.98 g/m*3 8.85 C 0 km/h
2214 20-04-2018 06:00:00 8.53333 C 7.91 g/m*3 8.53 C 0 km/h
2215 20-04-2018 07:00:00 8.475 C 7.97 g/m*3 8.48 C 0 km/h
2216 20-04-2018 08:00:00 9.15833 C 8.37 g/m*3 9.16 C 0 km/h
2217 20-04-2018 09:00:00 10.64167 C 9.14 g/m*3 10.64 C 0 km/h
2218 20-04-2018 10:00:00 13.26667 C 10.06 g/m*3 13.27 C 0 km/h
2219 20-04-2018 11:00:00 16.71667 C 10.93 g/m*3 16.72 C 0 km/h
2220 20-04-2018 12:00:00 20.20833 C 10.86 g/m*3 20.21 C 0 km/h
2221 20-04-2018 13:00:00 23.06667 C 9.99 g/m*3 23.07 C 0 km/h
2222 20-04-2018 14:00:00 25.2 C 7.95 g/m*3 25.2 C 0 km/h
2223 20-04-2018 15:00:00 26.13333 C 7.91 g/m*3 26.13 C 1.74167 km/h
2224 20-04-2018 16:00:00 28.05833 C 7.93 g/m*3 28.06 C 4.4 km/h
2225 20-04-2018 17:00:00 29.85833 C 8.08 g/m*3 29.86 C 4.40833 km/h
Sensor: Nr:Datum:Temp:Abs-Feuchte:Windchill:Wind:
Aussen-T/F 2226 20-04-2018 18:00:00 29.59167 C 9.44 g/m*3 29.59 C 3.06667 km/h
2227 20-04-2018 19:00:00 25.31667 C 10.8 g/m*3 25.32 C 0.66667 km/h
2228 20-04-2018 20:00:00 21.25 C 10.49 g/m*3 21.25 C 3.46667 km/h
2229 20-04-2018 21:00:00 18.6 C 10.16 g/m*3 18.6 C 0.66667 km/h
2230 20-04-2018 22:00:00 16.675 C 10.11 g/m*3 16.68 C 0 km/h
2231 20-04-2018 23:00:00 15.34167 C 9.93 g/m*3 15.34 C 0 km/h
2232 21-04-2018 00:00:00 14.79167 C 9.94 g/m*3 14.79 C 0 km/h
2233 21-04-2018 01:00:00 14.15833 C 9.97 g/m*3 14.16 C 0 km/h
2234 21-04-2018 02:00:00 13.26667 C 9.89 g/m*3 13.27 C 0 km/h
2235 21-04-2018 03:00:00 12.725 C 9.9 g/m*3 12.73 C 0 km/h
2236 21-04-2018 04:00:00 12.25 C 9.76 g/m*3 12.25 C 0 km/h
2237 21-04-2018 05:00:00 11.75 C 9.58 g/m*3 11.75 C 0 km/h
2238 21-04-2018 06:00:00 11.575 C 9.59 g/m*3 11.58 C 0 km/h
2239 21-04-2018 07:00:00 11.70833 C 9.71 g/m*3 11.71 C 0 km/h
2240 21-04-2018 08:00:00 12.46667 C 10.26 g/m*3 12.47 C 0 km/h
2241 21-04-2018 09:00:00 14.49167 C 11.33 g/m*3 14.49 C 0 km/h
2242 21-04-2018 10:00:00 16.76667 C 11.76 g/m*3 16.77 C 0 km/h
2243 21-04-2018 11:00:00 18.975 C 12.16 g/m*3 18.98 C 0 km/h
2244 21-04-2018 12:00:00 20.93333 C 12.12 g/m*3 20.93 C 0 km/h
2245 21-04-2018 13:00:00 22.6 C 10.46 g/m*3 22.6 C 1.6 km/h
2246 21-04-2018 14:00:00 24.01667 C 10.4 g/m*3 24.02 C 6.43333 km/h
2247 21-04-2018 15:00:00 25.1 C 10.24 g/m*3 25.1 C 8.21667 km/h
2248 21-04-2018 16:00:00 26.34167 C 10.46 g/m*3 26.34 C 7.525 km/h
2249 21-04-2018 17:00:00 27.075 C 10.08 g/m*3 27.08 C 6.70833 km/h
2250 21-04-2018 18:00:00 26.525 C 10.07 g/m*3 26.53 C 6.55833 km/h
Sensor: Nr:Datum:Temp:Abs-Feuchte:Windchill:Wind:
Aussen-T/F 2251 21-04-2018 19:00:00 24.8 C 11.55 g/m*3 24.8 C 2.26667 km/h
2252 21-04-2018 20:00:00 21.00833 C 11.36 g/m*3 21.01 C 1.33333 km/h
2253 21-04-2018 21:00:00 18.56667 C 10.81 g/m*3 18.57 C 1.33333 km/h
2254 21-04-2018 22:00:00 16.975 C 10.8 g/m*3 16.98 C 0 km/h
2255 21-04-2018 23:00:00 15.51667 C 10.51 g/m*3 15.52 C 0 km/h
2256 22-04-2018 00:00:00 14.75833 C 10.53 g/m*3 14.76 C 0 km/h
2257 22-04-2018 01:00:00 14.49167 C 10.54 g/m*3 14.49 C 0 km/h
2258 22-04-2018 02:00:00 13.88333 C 10.37 g/m*3 13.88 C 0.26667 km/h
2259 22-04-2018 03:00:00 12.88333 C 10.07 g/m*3 12.88 C 0 km/h
2260 22-04-2018 04:00:00 12.05833 C 9.82 g/m*3 12.06 C 0 km/h
2261 22-04-2018 05:00:00 11.50833 C 9.64 g/m*3 11.51 C 0 km/h
2262 22-04-2018 06:00:00 11.21667 C 9.54 g/m*3 11.22 C 0 km/h
2263 22-04-2018 07:00:00 11.25833 C 9.65 g/m*3 11.26 C 0 km/h
2264 22-04-2018 08:00:00 11.90833 C 10.07 g/m*3 11.91 C 0 km/h
2265 22-04-2018 09:00:00 13.29167 C 10.98 g/m*3 13.29 C 0 km/h
2266 22-04-2018 10:00:00 15.88333 C 12.35 g/m*3 15.88 C 0 km/h
2267 22-04-2018 11:00:00 18.94167 C 13.4 g/m*3 18.94 C 0 km/h
2268 22-04-2018 12:00:00 21.4 C 13.55 g/m*3 21.4 C 0 km/h
2269 22-04-2018 13:00:00 24.025 C 13.53 g/m*3 24.03 C 3.475 km/h
2270 22-04-2018 14:00:00 25.86667 C 12.99 g/m*3 25.87 C 5.08333 km/h
2271 22-04-2018 15:00:00 27.04167 C 12.4 g/m*3 27.04 C 7.65833 km/h
2272 22-04-2018 16:00:00 28.65833 C 10.38 g/m*3 28.66 C 15.7 km/h
2273 22-04-2018 17:00:00 28.275 C 10.08 g/m*3 28.28 C 16.36667 km/h
2274 22-04-2018 18:00:00 26.86667 C 11.05 g/m*3 26.87 C 10.48333 km/h
2275 22-04-2018 19:00:00 24.275 C 10.68 g/m*3 24.28 C 4.54167 km/h
Sensor: Nr:Datum:Temp:Abs-Feuchte:Windchill:Wind:
Aussen-T/F 2276 22-04-2018 20:00:00 21.45833 C 10.69 g/m*3 21.46 C 2.53333 km/h
2277 22-04-2018 21:00:00 19.45 C 10.86 g/m*3 19.45 C 0.66667 km/h
2278 22-04-2018 22:00:00 18.2 C 11.27 g/m*3 18.2 C 0.13333 km/h
2279 22-04-2018 23:00:00 17.28333 C 11.38 g/m*3 17.28 C 0.8 km/h
2280 23-04-2018 00:00:00 16.69167 C 11.47 g/m*3 16.69 C 0.8 km/h
2281 23-04-2018 01:00:00 16.18333 C 11.39 g/m*3 16.18 C 1.875 km/h
2282 23-04-2018 02:00:00 16.29167 C 11.43 g/m*3 16.29 C 2.80833 km/h
2283 23-04-2018 03:00:00 16.71667 C 11.55 g/m*3 16.72 C 2.4 km/h
2284 23-04-2018 04:00:00 16.24167 C 11.88 g/m*3 16.24 C 1.2 km/h
2285 23-04-2018 05:00:00 15.9 C 11.73 g/m*3 15.9 C 2.13333 km/h
2286 23-04-2018 06:00:00 15.825 C 11.7 g/m*3 15.83 C 1.2 km/h
2287 23-04-2018 07:00:00 16.03333 C 11.82 g/m*3 16.03 C 1.475 km/h
2288 23-04-2018 08:00:00 16.34167 C 12.03 g/m*3 16.34 C 1.06667 km/h
2289 23-04-2018 09:00:00 17.34167 C 11.96 g/m*3 17.34 C 5.61667 km/h
2290 23-04-2018 10:00:00 18.78333 C 11.85 g/m*3 18.78 C 6.03333 km/h
2291 23-04-2018 11:00:00 20.00833 C 11.4 g/m*3 20.01 C 8.86667 km/h
2292 23-04-2018 12:00:00 20.8 C 10.89 g/m*3 20.8 C 12.9 km/h
2293 23-04-2018 13:00:00 21.23333 C 10.46 g/m*3 21.23 C 15.7 km/h
2294 23-04-2018 14:00:00 21.075 C 11.48 g/m*3 21.08 C 13.56667 km/h
2295 23-04-2018 15:00:00 20.63333 C 10.98 g/m*3 20.63 C 12.5 km/h
2296 23-04-2018 16:00:00 20.95833 C 10.14 g/m*3 20.96 C 11.3 km/h
2297 23-04-2018 17:00:00 22.575 C 9.63 g/m*3 22.58 C 12.21667 km/h
2298 23-04-2018 18:00:00 22.61667 C 8.58 g/m*3 22.62 C 12.1 km/h
2299 23-04-2018 19:00:00 20.73333 C 8.9 g/m*3 20.73 C 9 km/h
2300 23-04-2018 20:00:00 17.63333 C 9 g/m*3 17.63 C 3.75 km/h
Sensor: Nr:Datum:Temp:Abs-Feuchte:Windchill:Wind:
Aussen-T/F 2301 23-04-2018 21:00:00 15.11667 C 8.91 g/m*3 15.12 C 0.13333 km/h
2302 23-04-2018 22:00:00 13.74167 C 8.65 g/m*3 13.74 C 0.26667 km/h
2303 23-04-2018 23:00:00 12.80833 C 8.69 g/m*3 12.81 C 0 km/h
2304 24-04-2018 00:00:00 11.675 C 8.48 g/m*3 11.68 C 0.66667 km/h
2305 24-04-2018 01:00:00 10.56667 C 8.26 g/m*3 10.57 C 0 km/h
2306 24-04-2018 02:00:00 9.78333 C 8.13 g/m*3 9.78 C 0 km/h
2307 24-04-2018 03:00:00 9.25 C 8.04 g/m*3 9.25 C 0.93333 km/h
2308 24-04-2018 04:00:00 8.65833 C 7.89 g/m*3 8.66 C 0 km/h
2309 24-04-2018 05:00:00 8.26667 C 7.8 g/m*3 8.27 C 0.4 km/h
2310 24-04-2018 06:00:00 7.63333 C 7.54 g/m*3 7.63 C 0 km/h
2311 24-04-2018 07:00:00 8 C 7.81 g/m*3 8 C 0 km/h
2312 24-04-2018 08:00:00 9.34167 C 8.52 g/m*3 9.34 C 3.49167 km/h
2313 24-04-2018 09:00:00 11.64167 C 8.67 g/m*3 11.64 C 11.7 km/h
2314 24-04-2018 10:00:00 13.14167 C 8.18 g/m*3 13.14 C 11.7 km/h
2315 24-04-2018 11:00:00 14.24167 C 7.82 g/m*3 14.24 C 13.96667 km/h
2316 24-04-2018 12:00:00 15.90833 C 8.03 g/m*3 15.91 C 11.825 km/h
2317 24-04-2018 13:00:00 17.23333 C 8.31 g/m*3 17.23 C 13.83333 km/h
2318 24-04-2018 14:00:00 18.36667 C 8.71 g/m*3 18.37 C 13.7 km/h
2319 24-04-2018 15:00:00 19.75833 C 8.95 g/m*3 19.76 C 13.96667 km/h
2320 24-04-2018 16:00:00 21.00833 C 9.07 g/m*3 21.01 C 13.56667 km/h
2321 24-04-2018 17:00:00 20.91667 C 9.28 g/m*3 20.92 C 10.75833 km/h
2322 24-04-2018 18:00:00 20.56667 C 9.41 g/m*3 20.57 C 9.29167 km/h
2323 24-04-2018 19:00:00 19.725 C 9.44 g/m*3 19.73 C 8.06667 km/h
2324 24-04-2018 20:00:00 17.35833 C 9.7 g/m*3 17.36 C 0.4 km/h
2325 24-04-2018 21:00:00 15.475 C 9.28 g/m*3 15.48 C 1.34167 km/h
Sensor: Nr:Datum:Temp:Abs-Feuchte:Windchill:Wind:
Aussen-T/F 2326 24-04-2018 22:00:00 15.20833 C 9.07 g/m*3 15.21 C 0.13333 km/h
2327 24-04-2018 23:00:00 13.2 C 8.66 g/m*3 13.2 C 0 km/h
2328 25-04-2018 00:00:00 11.675 C 8.42 g/m*3 11.68 C 0 km/h
2329 25-04-2018 01:00:00 10.61667 C 8.27 g/m*3 10.62 C 0 km/h
2330 25-04-2018 02:00:00 9.8 C 8.13 g/m*3 9.8 C 0 km/h
2331 25-04-2018 03:00:00 9.18333 C 8.04 g/m*3 9.18 C 0.13333 km/h
2332 25-04-2018 04:00:00 9.40833 C 8.28 g/m*3 9.41 C 0.4 km/h
2333 25-04-2018 05:00:00 9.65833 C 8.37 g/m*3 9.66 C 1.33333 km/h
2334 25-04-2018 06:00:00 10.25 C 8.63 g/m*3 10.25 C 4.15833 km/h
2335 25-04-2018 07:00:00 11.35 C 9.03 g/m*3 11.35 C 9.125 km/h
2336 25-04-2018 08:00:00 13.24167 C 9.59 g/m*3 13.24 C 10.09167 km/h
2337 25-04-2018 09:00:00 14.4 C 9.79 g/m*3 14.4 C 13.03333 km/h
2338 25-04-2018 10:00:00 15.925 C 10.21 g/m*3 15.93 C 10.35833 km/h
2339 25-04-2018 11:00:00 15.69167 C 10.3 g/m*3 15.69 C 11.43333 km/h
2340 25-04-2018 12:00:00 15.05 C 10.42 g/m*3 15.05 C 9.95 km/h
2341 25-04-2018 13:00:00 15.025 C 10.73 g/m*3 15.03 C 9.4 km/h
2342 25-04-2018 14:00:00 15.86667 C 10.27 g/m*3 15.87 C 10.60833 km/h
2343 25-04-2018 15:00:00 15.86667 C 9.74 g/m*3 15.87 C 11.81667 km/h
2344 25-04-2018 16:00:00 17.8 C 8.83 g/m*3 17.8 C 14.5 km/h
2345 25-04-2018 17:00:00 17.50833 C 7.43 g/m*3 17.51 C 16.1 km/h
2346 25-04-2018 18:00:00 16.65 C 7.23 g/m*3 16.65 C 14.23333 km/h
2347 25-04-2018 19:00:00 16.00833 C 7.08 g/m*3 16.01 C 12.625 km/h
2348 25-04-2018 20:00:00 15.20833 C 7.66 g/m*3 15.21 C 3.61667 km/h
2349 25-04-2018 21:00:00 12.575 C 7.91 g/m*3 12.58 C 0.93333 km/h
2350 25-04-2018 22:00:00 12.45833 C 7.84 g/m*3 12.46 C 5.225 km/h
Sensor: Nr:Datum:Temp:Abs-Feuchte:Windchill:Wind:
Aussen-T/F 2351 25-04-2018 23:00:00 12.28333 C 7.49 g/m*3 12.28 C 7.65 km/h
2352 26-04-2018 00:00:00 11.28333 C 6.43 g/m*3 11.28 C 7.10833 km/h
2353 26-04-2018 01:00:00 9.58333 C 6.22 g/m*3 9.58 C 4.96667 km/h
2354 26-04-2018 02:00:00 7.95 C 6.12 g/m*3 7.95 C 1.06667 km/h
2355 26-04-2018 03:00:00 7.59167 C 6.19 g/m*3 7.59 C 4.425 km/h
2356 26-04-2018 04:00:00 8.35833 C 6.28 g/m*3 6.78 C 9.43333 km/h
2357 26-04-2018 05:00:00 8.325 C 6.37 g/m*3 6.11 C 13.16667 km/h
2358 26-04-2018 06:00:00 8.16667 C 6.58 g/m*3 6.53 C 9.55833 km/h
2359 26-04-2018 07:00:00 8.475 C 6.78 g/m*3 7.03 C 8.86667 km/h
2360 26-04-2018 08:00:00 8.96667 C 6.95 g/m*3 7.03 C 12.225 km/h
2361 26-04-2018 09:00:00 10.35 C 7.24 g/m*3 8.69 C 12.36667 km/h
2362 26-04-2018 10:00:00 11.35833 C 6.93 g/m*3 11.36 C 12.88333 km/h
2363 26-04-2018 11:00:00 12.025 C 6.4 g/m*3 12.03 C 15.16667 km/h
2364 26-04-2018 12:00:00 12.83333 C 6.24 g/m*3 12.83 C 12.09167 km/h
2365 26-04-2018 13:00:00 13.68333 C 6.13 g/m*3 13.68 C 14.5 km/h
2366 26-04-2018 14:00:00 14.13333 C 6.12 g/m*3 14.13 C 10.09167 km/h
2367 26-04-2018 15:00:00 14.98333 C 6.32 g/m*3 14.98 C 16.75833 km/h
2368 26-04-2018 16:00:00 15.75833 C 6.29 g/m*3 15.76 C 14.625 km/h
2369 26-04-2018 17:00:00 15.3 C 6.33 g/m*3 15.3 C 11.95833 km/h
2370 26-04-2018 18:00:00 14.75 C 6.26 g/m*3 14.75 C 15.3 km/h
2371 26-04-2018 19:00:00 14.3 C 6.5 g/m*3 14.3 C 8.475 km/h
2372 26-04-2018 20:00:00 12.275 C 6.78 g/m*3 12.28 C 3.21667 km/h
2373 26-04-2018 21:00:00 10.20833 C 6.41 g/m*3 10.21 C 0 km/h
2374 26-04-2018 22:00:00 8.26667 C 6.38 g/m*3 8.27 C 0 km/h
2375 26-04-2018 23:00:00 7.275 C 6.26 g/m*3 7.28 C 0.26667 km/h
Sensor: Nr:Datum:Temp:Abs-Feuchte:Windchill:Wind:
Aussen-T/F 2376 27-04-2018 00:00:00 6.88333 C 6.22 g/m*3 6.88 C 0.26667 km/h
2377 27-04-2018 01:00:00 6.475 C 6.23 g/m*3 6.48 C 0.26667 km/h
2378 27-04-2018 02:00:00 5.64167 C 6.08 g/m*3 5.64 C 0 km/h
2379 27-04-2018 03:00:00 4.90833 C 5.99 g/m*3 4.91 C 0 km/h
2380 27-04-2018 04:00:00 5.05 C 6.19 g/m*3 5.05 C 0 km/h
2381 27-04-2018 05:00:00 5.175 C 6.24 g/m*3 5.18 C 0.13333 km/h
2382 27-04-2018 06:00:00 4.59167 C 6 g/m*3 4.59 C 0 km/h
2383 27-04-2018 07:00:00 5.05833 C 6.33 g/m*3 5.06 C 0 km/h
2384 27-04-2018 08:00:00 6.26667 C 6.74 g/m*3 6.27 C 0 km/h
2385 27-04-2018 09:00:00 7.88333 C 7.23 g/m*3 7.88 C 0 km/h
2386 27-04-2018 10:00:00 10.76667 C 7.8 g/m*3 10.77 C 4.81667 km/h
2387 27-04-2018 11:00:00 13.88333 C 6.85 g/m*3 13.88 C 8.98333 km/h
2388 27-04-2018 12:00:00 15.2 C 6.17 g/m*3 15.2 C 11.025 km/h
2389 27-04-2018 13:00:00 16.29167 C 6.12 g/m*3 16.29 C 11.425 km/h
2390 27-04-2018 14:00:00 16.85833 C 6.62 g/m*3 16.86 C 11.41667 km/h
2391 27-04-2018 15:00:00 18.23333 C 6.81 g/m*3 18.23 C 11.68333 km/h
2392 27-04-2018 16:00:00 19.55 C 6.96 g/m*3 19.55 C 10.08333 km/h
2393 27-04-2018 17:00:00 21.425 C 6.82 g/m*3 21.43 C 10.88333 km/h
2394 27-04-2018 18:00:00 21.35833 C 7.03 g/m*3 21.36 C 6.03333 km/h
2395 27-04-2018 19:00:00 20.64167 C 7.89 g/m*3 20.64 C 2.66667 km/h
2396 27-04-2018 20:00:00 16.55833 C 8.18 g/m*3 16.56 C 0.26667 km/h
2397 27-04-2018 21:00:00 13.35833 C 7.9 g/m*3 13.36 C 0 km/h
2398 27-04-2018 22:00:00 12.66667 C 7.83 g/m*3 12.67 C 1.46667 km/h
2399 27-04-2018 23:00:00 12.35833 C 7.76 g/m*3 12.36 C 0.13333 km/h
2400 28-04-2018 00:00:00 11.25 C 7.68 g/m*3 11.25 C 0.13333 km/h
Sensor: Nr:Datum:Temp:Abs-Feuchte:Windchill:Wind:
Aussen-T/F 2401 28-04-2018 01:00:00 10.4 C 7.61 g/m*3 10.4 C 0 km/h
2402 28-04-2018 02:00:00 9.15 C 7.46 g/m*3 9.15 C 1.2 km/h
2403 28-04-2018 03:00:00 9.54167 C 7.71 g/m*3 9.54 C 1.74167 km/h
2404 28-04-2018 04:00:00 8.94167 C 7.47 g/m*3 8.94 C 0 km/h
2405 28-04-2018 05:00:00 8.04167 C 7.35 g/m*3 8.04 C 0 km/h
2406 28-04-2018 06:00:00 7.46667 C 7.19 g/m*3 7.47 C 0.26667 km/h
2407 28-04-2018 07:00:00 8.24167 C 7.63 g/m*3 8.24 C 0.53333 km/h
2408 28-04-2018 08:00:00 9.63333 C 7.72 g/m*3 9.63 C 1.73333 km/h
2409 28-04-2018 09:00:00 11.8 C 7.8 g/m*3 11.8 C 9.68333 km/h
2410 28-04-2018 10:00:00 13.89167 C 7.97 g/m*3 13.89 C 12.1 km/h
2411 28-04-2018 11:00:00 14.85 C 7.71 g/m*3 14.85 C 11.16667 km/h
2412 28-04-2018 12:00:00 16.20833 C 7.55 g/m*3 16.21 C 12.76667 km/h
2413 28-04-2018 13:00:00 16.68333 C 7.43 g/m*3 16.68 C 12.1 km/h
2414 28-04-2018 14:00:00 17.28333 C 7.41 g/m*3 17.28 C 15.56667 km/h
2415 28-04-2018 15:00:00 17.86667 C 7.4 g/m*3 17.87 C 11.83333 km/h
2416 28-04-2018 16:00:00 18.08333 C 7.42 g/m*3 18.08 C 9.81667 km/h
2417 28-04-2018 17:00:00 17.43333 C 7.51 g/m*3 17.43 C 7.79167 km/h
2418 28-04-2018 18:00:00 16.225 C 8.21 g/m*3 16.23 C 1.73333 km/h
2419 28-04-2018 19:00:00 14.46667 C 8.87 g/m*3 14.47 C 0.93333 km/h
2420 28-04-2018 20:00:00 12.64167 C 9.06 g/m*3 12.64 C 2.93333 km/h
2421 28-04-2018 21:00:00 11.56667 C 9.14 g/m*3 11.57 C 0.13333 km/h
2422 28-04-2018 22:00:00 10.975 C 9 g/m*3 10.98 C 0.53333 km/h
2423 28-04-2018 23:00:00 10.45833 C 8.8 g/m*3 10.46 C 0 km/h
2424 29-04-2018 00:00:00 9.79167 C 8.45 g/m*3 9.79 C 0 km/h
2425 29-04-2018 01:00:00 9.13333 C 8.17 g/m*3 9.13 C 0 km/h
Sensor: Nr:Datum:Temp:Abs-Feuchte:Windchill:Wind:
Aussen-T/F 2426 29-04-2018 02:00:00 8.85 C 8.12 g/m*3 8.85 C 0 km/h
2427 29-04-2018 03:00:00 8.11667 C 7.75 g/m*3 8.12 C 0 km/h
2428 29-04-2018 04:00:00 7.41667 C 7.46 g/m*3 7.42 C 0 km/h
2429 29-04-2018 05:00:00 7.05 C 7.33 g/m*3 7.05 C 0 km/h
2430 29-04-2018 06:00:00 7.65 C 7.71 g/m*3 7.65 C 0 km/h
2431 29-04-2018 07:00:00 8.15 C 7.99 g/m*3 8.15 C 0.4 km/h
2432 29-04-2018 08:00:00 8.88333 C 8.4 g/m*3 8.88 C 3.06667 km/h
2433 29-04-2018 09:00:00 9.85 C 8.92 g/m*3 9.85 C 1.33333 km/h
2434 29-04-2018 10:00:00 10.85833 C 9.52 g/m*3 10.86 C 1.06667 km/h
2435 29-04-2018 11:00:00 12.45833 C 10.34 g/m*3 12.46 C 2.93333 km/h
2436 29-04-2018 12:00:00 14.675 C 11.2 g/m*3 14.68 C 4.15 km/h
2437 29-04-2018 13:00:00 16.45 C 12.3 g/m*3 16.45 C 1.2 km/h
2438 29-04-2018 14:00:00 19 C 12.85 g/m*3 19 C 9.69167 km/h
2439 29-04-2018 15:00:00 21.68333 C 13.07 g/m*3 21.68 C 8.30833 km/h
2440 29-04-2018 16:00:00 23.90833 C 12.39 g/m*3 23.91 C 6.84167 km/h
2441 29-04-2018 17:00:00 24.04167 C 13.18 g/m*3 24.04 C 4.025 km/h
2442 29-04-2018 18:00:00 22.825 C 14.55 g/m*3 22.83 C 0.13333 km/h
2443 29-04-2018 19:00:00 21.36667 C 14.03 g/m*3 21.37 C 0 km/h
2444 29-04-2018 20:00:00 19.15 C 13.1 g/m*3 19.15 C 0 km/h
2445 29-04-2018 21:00:00 17.40833 C 12.58 g/m*3 17.41 C 0 km/h
2446 29-04-2018 22:00:00 16.575 C 12.26 g/m*3 16.58 C 0.13333 km/h
2447 29-04-2018 23:00:00 16.65833 C 12.7 g/m*3 16.66 C 2.15 km/h
2448 30-04-2018 00:00:00 16.25833 C 12.96 g/m*3 16.26 C 3.75 km/h
2449 30-04-2018 01:00:00 15.49167 C 12.49 g/m*3 15.49 C 2.8 km/h
2450 30-04-2018 02:00:00 14.36667 C 11.62 g/m*3 14.37 C 4.54167 km/h
Sensor: Nr:Datum:Temp:Abs-Feuchte:Windchill:Wind:
Aussen-T/F 2451 30-04-2018 03:00:00 13.75833 C 11.29 g/m*3 13.76 C 2.13333 km/h
2452 30-04-2018 04:00:00 13.56667 C 10.91 g/m*3 13.57 C 12.48333 km/h
2453 30-04-2018 05:00:00 13.38333 C 10.25 g/m*3 13.38 C 10.60833 km/h
2454 30-04-2018 06:00:00 13.01667 C 9.75 g/m*3 13.02 C 11.425 km/h
2455 30-04-2018 07:00:00 12.61667 C 9.43 g/m*3 12.62 C 9.26667 km/h
2456 30-04-2018 08:00:00 12.6 C 8.83 g/m*3 12.6 C 11.96667 km/h
2457 30-04-2018 09:00:00 13.13333 C 8.66 g/m*3 13.13 C 10.88333 km/h
2458 30-04-2018 10:00:00 13.78333 C 8.58 g/m*3 13.78 C 10.875 km/h
2459 30-04-2018 11:00:00 13.71667 C 8.45 g/m*3 13.72 C 9.53333 km/h
2460 30-04-2018 12:00:00 14.01667 C 8.43 g/m*3 14.02 C 7.10833 km/h
2461 30-04-2018 13:00:00 14.825 C 8.34 g/m*3 14.83 C 12.35 km/h
2462 30-04-2018 14:00:00 15.45 C 8.13 g/m*3 15.45 C 21.04167 km/h
2463 30-04-2018 15:00:00 16.44167 C 7.95 g/m*3 16.44 C 18.65 km/h
2464 30-04-2018 16:00:00 14.25833 C 8.27 g/m*3 14.26 C 17.7 km/h
2465 30-04-2018 17:00:00 13.6 C 8.91 g/m*3 13.6 C 10.75 km/h
2466 30-04-2018 18:00:00 14.75 C 8.2 g/m*3 14.75 C 13.96667 km/h
2467 30-04-2018 19:00:00 13.53333 C 7.71 g/m*3 13.53 C 9.94167 km/h
2468 30-04-2018 20:00:00 12.21667 C 7.09 g/m*3 12.22 C 10.35833 km/h
2469 30-04-2018 21:00:00 10.95 C 7.48 g/m*3 8.93 C 16.36667 km/h
2470 30-04-2018 22:00:00 8.88333 C 7.58 g/m*3 6.48 C 15.43333 km/h
2471 30-04-2018 23:00:00 8.16667 C 6.89 g/m*3 5.7 C 14.63333 km/h
2472 01-05-2018 00:00:00 7.93333 C 6.35 g/m*3 5.06 C 17.43333 km/h
2473 01-05-2018 01:00:00 7.75833 C 6.22 g/m*3 5.06 C 15.7 km/h
2474 01-05-2018 02:00:00 7.55833 C 6.24 g/m*3 4.77 C 15.96667 km/h
2475 01-05-2018 03:00:00 7.35833 C 6.27 g/m*3 4.46 C 16.50833 km/h
Sensor: Nr:Datum:Temp:Abs-Feuchte:Windchill:Wind:
Aussen-T/F 2476 01-05-2018 04:00:00 7.25833 C 6.28 g/m*3 4.81 C 13.15833 km/h
2477 01-05-2018 05:00:00 7.01667 C 6.39 g/m*3 4.29 C 14.63333 km/h
2478 01-05-2018 06:00:00 7.025 C 6.35 g/m*3 4.6 C 12.63333 km/h
2479 01-05-2018 07:00:00 7.2 C 6.35 g/m*3 5 C 11.55 km/h
2480 01-05-2018 08:00:00 7.80833 C 6.31 g/m*3 5.12 C 15.7 km/h
2481 01-05-2018 09:00:00 8.075 C 6.13 g/m*3 5.54 C 15.03333 km/h
2482 01-05-2018 10:00:00 9.28333 C 6.12 g/m*3 6.91 C 15.95833 km/h
2483 01-05-2018 11:00:00 10.19167 C 6.1 g/m*3 8.33 C 13.56667 km/h
2484 01-05-2018 12:00:00 11.14167 C 6.28 g/m*3 11.14 C 11.15 km/h
2485 01-05-2018 13:00:00 11.95833 C 6.36 g/m*3 11.96 C 16.23333 km/h
2486 01-05-2018 14:00:00 12.08333 C 6.25 g/m*3 12.08 C 15.96667 km/h
2487 01-05-2018 15:00:00 12.69167 C 6.28 g/m*3 12.69 C 13.56667 km/h
2488 01-05-2018 16:00:00 13.43333 C 6.35 g/m*3 13.43 C 12.5 km/h
2489 01-05-2018 17:00:00 13.65833 C 6.02 g/m*3 13.66 C 10.88333 km/h
2490 01-05-2018 18:00:00 13.60833 C 5.89 g/m*3 13.61 C 5.88333 km/h
2491 01-05-2018 19:00:00 13.83333 C 6.52 g/m*3 13.83 C 3.33333 km/h
2492 01-05-2018 20:00:00 11.65833 C 6.9 g/m*3 11.66 C 0.4 km/h
2493 01-05-2018 21:00:00 8.75833 C 6.45 g/m*3 8.76 C 0.13333 km/h
2494 01-05-2018 22:00:00 7.18333 C 6.31 g/m*3 7.18 C 0 km/h
2495 01-05-2018 23:00:00 5.7 C 6.04 g/m*3 5.7 C 0 km/h
2496 02-05-2018 00:00:00 4.9 C 5.92 g/m*3 4.9 C 0 km/h
2497 02-05-2018 01:00:00 4.38333 C 5.82 g/m*3 4.38 C 0.26667 km/h
2498 02-05-2018 02:00:00 3.675 C 5.64 g/m*3 3.68 C 0 km/h
2499 02-05-2018 03:00:00 3.10833 C 5.51 g/m*3 3.11 C 0 km/h
2500 02-05-2018 04:00:00 2.54167 C 5.36 g/m*3 2.54 C 0 km/h
Sensor: Nr:Datum:Temp:Abs-Feuchte:Windchill:Wind:
Aussen-T/F 2501 02-05-2018 05:00:00 2.25 C 5.29 g/m*3 2.25 C 0.53333 km/h
2502 02-05-2018 06:00:00 1.975 C 5.21 g/m*3 1.98 C 0.4 km/h
2503 02-05-2018 07:00:00 1.96667 C 5.23 g/m*3 1.97 C 0.26667 km/h
2504 02-05-2018 08:00:00 2.81667 C 5.59 g/m*3 2.82 C 0.93333 km/h
2505 02-05-2018 09:00:00 4.81667 C 6.3 g/m*3 4.82 C 1.6 km/h
2506 02-05-2018 10:00:00 7.675 C 6.97 g/m*3 7.68 C 0.66667 km/h
2507 02-05-2018 11:00:00 10.925 C 7.48 g/m*3 10.93 C 0.8 km/h
2508 02-05-2018 12:00:00 13.525 C 7.18 g/m*3 13.53 C 0.4 km/h
2509 02-05-2018 13:00:00 15.38333 C 6.84 g/m*3 15.38 C 6.83333 km/h
2510 02-05-2018 14:00:00 16.425 C 6.8 g/m*3 16.43 C 6.70833 km/h
2511 02-05-2018 15:00:00 17.025 C 6.71 g/m*3 17.02 C 5.075 km/h
2512 02-05-2018 16:00:00 17.53333 C 6.96 g/m*3 17.53 C 4.675 km/h
2513 02-05-2018 17:00:00 17.76667 C 7.32 g/m*3 17.77 C 5.075 km/h
2514 02-05-2018 18:00:00 17.09167 C 8.09 g/m*3 17.09 C 1.6 km/h
2515 02-05-2018 19:00:00 15.45 C 8.82 g/m*3 15.45 C 0.13333 km/h
2516 02-05-2018 20:00:00 13 C 8.11 g/m*3 13 C 0 km/h
2517 02-05-2018 21:00:00 11.59167 C 7.83 g/m*3 11.59 C 0 km/h
2518 02-05-2018 22:00:00 10.775 C 7.67 g/m*3 10.78 C 0 km/h
2519 02-05-2018 23:00:00 10.09167 C 7.69 g/m*3 10.09 C 0 km/h
2520 03-05-2018 00:00:00 9.53333 C 7.65 g/m*3 9.53 C 0 km/h
2521 03-05-2018 01:00:00 9.00833 C 7.57 g/m*3 9.01 C 0 km/h
2522 03-05-2018 02:00:00 8.60833 C 7.54 g/m*3 8.61 C 0.93333 km/h
2523 03-05-2018 03:00:00 8.20833 C 7.42 g/m*3 8.21 C 0 km/h
2524 03-05-2018 04:00:00 7.675 C 7.29 g/m*3 7.68 C 0 km/h
2525 03-05-2018 05:00:00 7.10833 C 7.13 g/m*3 7.11 C 0 km/h
Sensor: Nr:Datum:Temp:Abs-Feuchte:Windchill:Wind:
Aussen-T/F 2526 03-05-2018 06:00:00 6.975 C 7.17 g/m*3 6.98 C 1.73333 km/h
2527 03-05-2018 07:00:00 7.9 C 7.62 g/m*3 7.9 C 0.93333 km/h
2528 03-05-2018 08:00:00 8.725 C 7.98 g/m*3 8.73 C 0.13333 km/h
2529 03-05-2018 09:00:00 10.55 C 8.71 g/m*3 10.55 C 1.6 km/h
2530 03-05-2018 10:00:00 12.45 C 8.68 g/m*3 12.45 C 6.85 km/h
2531 03-05-2018 11:00:00 13.50833 C 7.79 g/m*3 13.51 C 10.48333 km/h
2532 03-05-2018 12:00:00 14.56667 C 7.27 g/m*3 14.57 C 12.9 km/h
2533 03-05-2018 13:00:00 15.53333 C 6.98 g/m*3 15.53 C 12.23333 km/h
2534 03-05-2018 14:00:00 16.43333 C 6.74 g/m*3 16.43 C 11.15833 km/h
2535 03-05-2018 15:00:00 17.675 C 6.78 g/m*3 17.68 C 14.76667 km/h
2536 03-05-2018 16:00:00 18.50833 C 6.9 g/m*3 18.51 C 14.1 km/h
2537 03-05-2018 17:00:00 18.59167 C 6.87 g/m*3 18.59 C 13.16667 km/h
2538 03-05-2018 18:00:00 18.54167 C 6.7 g/m*3 18.54 C 10.9 km/h
2539 03-05-2018 19:00:00 17.2 C 6.13 g/m*3 17.2 C 8.60833 km/h
2540 03-05-2018 20:00:00 15.18333 C 6.16 g/m*3 15.18 C 5.49167 km/h
2541 03-05-2018 21:00:00 12.96667 C 6.26 g/m*3 12.97 C 0.93333 km/h
2542 03-05-2018 22:00:00 11.18333 C 6.23 g/m*3 11.18 C 0.8 km/h
2543 03-05-2018 23:00:00 9.85 C 6.15 g/m*3 9.85 C 0.4 km/h
2544 04-05-2018 00:00:00 8.94167 C 6.11 g/m*3 8.94 C 0.26667 km/h
2545 04-05-2018 01:00:00 7.825 C 6.15 g/m*3 7.83 C 0 km/h
2546 04-05-2018 02:00:00 6.58333 C 6.09 g/m*3 6.58 C 0 km/h
2547 04-05-2018 03:00:00 6.03333 C 6.09 g/m*3 6.03 C 0 km/h
2548 04-05-2018 04:00:00 5.525 C 6.09 g/m*3 5.53 C 0.13333 km/h
2549 04-05-2018 05:00:00 5.025 C 6.03 g/m*3 5.03 C 0 km/h
2550 04-05-2018 06:00:00 4.71667 C 6.02 g/m*3 4.72 C 0.13333 km/h
Sensor: Nr:Datum:Temp:Abs-Feuchte:Windchill:Wind:
Aussen-T/F 2551 04-05-2018 07:00:00 5.175 C 6.3 g/m*3 5.18 C 0 km/h
2552 04-05-2018 08:00:00 6.175 C 6.73 g/m*3 6.18 C 0.13333 km/h
2553 04-05-2018 09:00:00 7.95833 C 7.39 g/m*3 7.96 C 0.53333 km/h
2554 04-05-2018 10:00:00 10.18333 C 7.78 g/m*3 10.18 C 1.2 km/h
2555 04-05-2018 11:00:00 13.20833 C 7.96 g/m*3 13.21 C 2 km/h
2556 04-05-2018 12:00:00 16.41667 C 7.4 g/m*3 16.42 C 8.99167 km/h
2557 04-05-2018 13:00:00 18.50833 C 7.32 g/m*3 18.51 C 10.20833 km/h
2558 04-05-2018 14:00:00 19.68333 C 7.45 g/m*3 19.68 C 12.63333 km/h
2559 04-05-2018 15:00:00 21.23333 C 7.52 g/m*3 21.23 C 12.49167 km/h
2560 04-05-2018 16:00:00 22.74167 C 7.71 g/m*3 22.74 C 11.3 km/h
2561 04-05-2018 17:00:00 22.96667 C 7.13 g/m*3 22.97 C 13.55833 km/h
2562 04-05-2018 18:00:00 23.2 C 7.26 g/m*3 23.2 C 11.55833 km/h
2563 04-05-2018 19:00:00 22.09167 C 7.58 g/m*3 22.09 C 8.74167 km/h
2564 04-05-2018 20:00:00 19.49167 C 8.02 g/m*3 19.49 C 2.8 km/h
2565 04-05-2018 21:00:00 15.43333 C 8.02 g/m*3 15.43 C 0 km/h
2566 04-05-2018 22:00:00 13.75 C 7.64 g/m*3 13.75 C 0.26667 km/h
2567 04-05-2018 23:00:00 12.64167 C 7.69 g/m*3 12.64 C 0 km/h
2568 05-05-2018 00:00:00 11.68333 C 7.57 g/m*3 11.68 C 0 km/h
2569 05-05-2018 01:00:00 10.90833 C 7.44 g/m*3 10.91 C 0 km/h
2570 05-05-2018 02:00:00 10.325 C 7.33 g/m*3 10.33 C 0.13333 km/h
2571 05-05-2018 03:00:00 9.725 C 7.18 g/m*3 9.73 C 0 km/h
2572 05-05-2018 04:00:00 9.55833 C 7.09 g/m*3 9.56 C 0 km/h
2573 05-05-2018 05:00:00 9.05 C 6.91 g/m*3 9.05 C 0.13333 km/h
2574 05-05-2018 06:00:00 8.00833 C 6.77 g/m*3 8.01 C 0 km/h
2575 05-05-2018 07:00:00 7.93333 C 7.02 g/m*3 7.93 C 0.13333 km/h
Sensor: Nr:Datum:Temp:Abs-Feuchte:Windchill:Wind:
Aussen-T/F 2576 05-05-2018 08:00:00 8.65 C 7.4 g/m*3 8.65 C 0 km/h
2577 05-05-2018 09:00:00 10.13333 C 7.98 g/m*3 10.13 C 0.26667 km/h
2578 05-05-2018 10:00:00 12.925 C 8.35 g/m*3 12.93 C 3.475 km/h
2579 05-05-2018 11:00:00 16.775 C 8.07 g/m*3 16.77 C 9.275 km/h
2580 05-05-2018 12:00:00 18.65833 C 8.07 g/m*3 18.66 C 10.75833 km/h
2581 05-05-2018 13:00:00 20.11667 C 8.44 g/m*3 20.12 C 14.225 km/h
2582 05-05-2018 14:00:00 21.25833 C 8.57 g/m*3 21.26 C 15.83333 km/h
2583 05-05-2018 15:00:00 23.05 C 8.83 g/m*3 23.05 C 12.9 km/h
2584 05-05-2018 16:00:00 24.09167 C 8.68 g/m*3 24.09 C 14.23333 km/h
2585 05-05-2018 17:00:00 24.2 C 8.49 g/m*3 24.2 C 14.9 km/h
2586 05-05-2018 18:00:00 24.18333 C 8.08 g/m*3 24.18 C 12.35833 km/h
2587 05-05-2018 19:00:00 23.275 C 7.52 g/m*3 23.28 C 8.46667 km/h
2588 05-05-2018 20:00:00 20.2 C 8.07 g/m*3 20.2 C 1.34167 km/h
2589 05-05-2018 21:00:00 16.59167 C 6.99 g/m*3 16.59 C 1.2 km/h
2590 05-05-2018 22:00:00 15.50833 C 7.13 g/m*3 15.51 C 1.46667 km/h
2591 05-05-2018 23:00:00 15.375 C 7.5 g/m*3 15.38 C 3.46667 km/h
2592 06-05-2018 00:00:00 14.85 C 7.8 g/m*3 14.85 C 1.875 km/h
2593 06-05-2018 01:00:00 13.03333 C 7.85 g/m*3 13.03 C 0.4 km/h
2594 06-05-2018 02:00:00 11.98333 C 7.8 g/m*3 11.98 C 0 km/h
2595 06-05-2018 03:00:00 10.73333 C 7.71 g/m*3 10.73 C 0 km/h
2596 06-05-2018 04:00:00 9.95 C 7.58 g/m*3 9.95 C 0.13333 km/h
2597 06-05-2018 05:00:00 9.35 C 7.47 g/m*3 9.35 C 0 km/h
2598 06-05-2018 06:00:00 8.7 C 7.43 g/m*3 8.7 C 0 km/h
2599 06-05-2018 07:00:00 9.05833 C 7.57 g/m*3 9.06 C 0.13333 km/h
2600 06-05-2018 08:00:00 9.825 C 7.84 g/m*3 9.82 C 0.53333 km/h
Sensor: Nr:Datum:Temp:Abs-Feuchte:Windchill:Wind:
Aussen-T/F 2601 06-05-2018 09:00:00 11.375 C 8.29 g/m*3 11.38 C 0.8 km/h
2602 06-05-2018 10:00:00 14.825 C 7.82 g/m*3 14.83 C 6.16667 km/h
2603 06-05-2018 11:00:00 18.08333 C 7.33 g/m*3 18.08 C 8.2 km/h
2604 06-05-2018 12:00:00 19.98333 C 7.18 g/m*3 19.98 C 9.40833 km/h
2605 06-05-2018 13:00:00 21.79167 C 7.19 g/m*3 21.79 C 12.36667 km/h
2606 06-05-2018 14:00:00 23.34167 C 7.14 g/m*3 23.34 C 14.63333 km/h
2607 06-05-2018 15:00:00 24.825 C 7.37 g/m*3 24.83 C 13.3 km/h
2608 06-05-2018 16:00:00 26.275 C 7.64 g/m*3 26.28 C 13.3 km/h
2609 06-05-2018 17:00:00 26.21667 C 7.54 g/m*3 26.22 C 16.1 km/h
2610 06-05-2018 18:00:00 26.10833 C 7.74 g/m*3 26.11 C 13.83333 km/h
2611 06-05-2018 19:00:00 24.81667 C 7.86 g/m*3 24.82 C 10.875 km/h
2612 06-05-2018 20:00:00 22.41667 C 8.47 g/m*3 22.42 C 4.3 km/h
2613 06-05-2018 21:00:00 18.19167 C 8.39 g/m*3 18.19 C 0.4 km/h
2614 06-05-2018 22:00:00 16.16667 C 8.44 g/m*3 16.17 C 0.4 km/h
2615 06-05-2018 23:00:00 16.24167 C 8.42 g/m*3 16.24 C 3.73333 km/h
2616 07-05-2018 00:00:00 16.175 C 8.4 g/m*3 16.18 C 3.20833 km/h
2617 07-05-2018 01:00:00 14.35 C 8.36 g/m*3 14.35 C 0.53333 km/h
2618 07-05-2018 02:00:00 12.88333 C 8.26 g/m*3 12.88 C 0 km/h
2619 07-05-2018 03:00:00 12.01667 C 8.18 g/m*3 12.02 C 0.13333 km/h
2620 07-05-2018 04:00:00 11.01667 C 8.07 g/m*3 11.02 C 0 km/h
2621 07-05-2018 05:00:00 10.05833 C 7.94 g/m*3 10.06 C 0 km/h
2622 07-05-2018 06:00:00 9.575 C 7.93 g/m*3 9.57 C 0 km/h
2623 07-05-2018 07:00:00 9.49167 C 8.07 g/m*3 9.49 C 0 km/h
2624 07-05-2018 08:00:00 10.09167 C 8.51 g/m*3 10.09 C 0 km/h
2625 07-05-2018 09:00:00 11.76667 C 9.24 g/m*3 11.77 C 0 km/h
Sensor: Nr:Datum:Temp:Abs-Feuchte:Windchill:Wind:
Aussen-T/F 2626 07-05-2018 10:00:00 15.19167 C 9.48 g/m*3 15.19 C 4.28333 km/h
2627 07-05-2018 11:00:00 18.98333 C 9.25 g/m*3 18.98 C 7.25 km/h
2628 07-05-2018 12:00:00 20.64167 C 9.14 g/m*3 20.64 C 11.15833 km/h
2629 07-05-2018 13:00:00 21.99167 C 8.78 g/m*3 21.99 C 10.61667 km/h
2630 07-05-2018 14:00:00 23.33333 C 8.2 g/m*3 23.33 C 9.81667 km/h
2631 07-05-2018 15:00:00 25.08333 C 8.04 g/m*3 25.08 C 12.1 km/h
2632 07-05-2018 16:00:00 26.425 C 8.62 g/m*3 26.43 C 12.09167 km/h
2633 07-05-2018 17:00:00 26.66667 C 8.27 g/m*3 26.67 C 12.49167 km/h
2634 07-05-2018 18:00:00 26.85 C 8.49 g/m*3 26.85 C 11.3 km/h
2635 07-05-2018 19:00:00 25.81667 C 9.62 g/m*3 25.82 C 5.76667 km/h
2636 07-05-2018 20:00:00 22.41667 C 10.27 g/m*3 22.42 C 0.53333 km/h
2637 07-05-2018 21:00:00 18.975 C 9.42 g/m*3 18.98 C 1.2 km/h
2638 07-05-2018 22:00:00 17.26667 C 9.42 g/m*3 17.27 C 0 km/h
2639 07-05-2018 23:00:00 15.40833 C 9.38 g/m*3 15.41 C 0 km/h
2640 08-05-2018 00:00:00 14.39167 C 9.31 g/m*3 14.39 C 0 km/h
2641 08-05-2018 01:00:00 14.425 C 9.17 g/m*3 14.43 C 1.2 km/h
2642 08-05-2018 02:00:00 14.13333 C 9.15 g/m*3 14.13 C 1.73333 km/h
2643 08-05-2018 03:00:00 12.46667 C 8.83 g/m*3 12.47 C 0 km/h
2644 08-05-2018 04:00:00 11.01667 C 8.61 g/m*3 11.02 C 0 km/h
2645 08-05-2018 05:00:00 9.96667 C 8.31 g/m*3 9.97 C 0 km/h
2646 08-05-2018 06:00:00 9.4 C 8.25 g/m*3 9.4 C 0.13333 km/h
2647 08-05-2018 07:00:00 9.45833 C 8.39 g/m*3 9.46 C 0 km/h
2648 08-05-2018 08:00:00 10.26667 C 8.94 g/m*3 10.27 C 0 km/h
2649 08-05-2018 09:00:00 12.1 C 9.87 g/m*3 12.1 C 0.13333 km/h
2650 08-05-2018 10:00:00 16.275 C 10.31 g/m*3 16.27 C 5.49167 km/h
Sensor: Nr:Datum:Temp:Abs-Feuchte:Windchill:Wind:
Aussen-T/F 2651 08-05-2018 11:00:00 20.23333 C 9.93 g/m*3 20.23 C 7.94167 km/h
2652 08-05-2018 12:00:00 21.98333 C 10.13 g/m*3 21.98 C 7.51667 km/h
2653 08-05-2018 13:00:00 23.40833 C 9.43 g/m*3 23.41 C 9.41667 km/h
2654 08-05-2018 14:00:00 24.825 C 8.38 g/m*3 24.83 C 12.49167 km/h
2655 08-05-2018 15:00:00 26.13333 C 8.5 g/m*3 26.13 C 9.675 km/h
2656 08-05-2018 16:00:00 27.65 C 7.85 g/m*3 27.65 C 12.09167 km/h
2657 08-05-2018 17:00:00 27.94167 C 7.88 g/m*3 27.94 C 9.14167 km/h
2658 08-05-2018 18:00:00 28.16667 C 7.96 g/m*3 28.17 C 8.61667 km/h
2659 08-05-2018 19:00:00 26.625 C 8.95 g/m*3 26.63 C 5.375 km/h
2660 08-05-2018 20:00:00 22.68333 C 9.67 g/m*3 22.68 C 1.06667 km/h
2661 08-05-2018 21:00:00 18.88333 C 8.58 g/m*3 18.88 C 1.73333 km/h
2662 08-05-2018 22:00:00 16.69167 C 8.68 g/m*3 16.69 C 0 km/h
2663 08-05-2018 23:00:00 14.85833 C 8.63 g/m*3 14.86 C 0 km/h
2664 09-05-2018 00:00:00 13.475 C 8.58 g/m*3 13.48 C 0.53333 km/h
2665 09-05-2018 01:00:00 12.6 C 8.56 g/m*3 12.6 C 0 km/h
2666 09-05-2018 02:00:00 11.725 C 8.49 g/m*3 11.73 C 0 km/h
2667 09-05-2018 03:00:00 11.05 C 8.5 g/m*3 11.05 C 0 km/h
2668 09-05-2018 04:00:00 10.16667 C 8.33 g/m*3 10.17 C 0 km/h
2669 09-05-2018 05:00:00 9.63333 C 8.29 g/m*3 9.63 C 0 km/h
2670 09-05-2018 06:00:00 9.35 C 8.26 g/m*3 9.35 C 0.13333 km/h
2671 09-05-2018 07:00:00 9.95 C 8.64 g/m*3 9.95 C 0 km/h
2672 09-05-2018 08:00:00 10.91667 C 9.22 g/m*3 10.92 C 0 km/h
2673 09-05-2018 09:00:00 12.58333 C 10.15 g/m*3 12.58 C 0 km/h
2674 09-05-2018 10:00:00 15.425 C 11.27 g/m*3 15.43 C 0.13333 km/h
2675 09-05-2018 11:00:00 18.86667 C 11.84 g/m*3 18.87 C 1.46667 km/h
Sensor: Nr:Datum:Temp:Abs-Feuchte:Windchill:Wind:
Aussen-T/F 2676 09-05-2018 12:00:00 22.425 C 10.47 g/m*3 22.43 C 5.75 km/h
2677 09-05-2018 13:00:00 24.05833 C 9.73 g/m*3 24.06 C 6.70833 km/h
2678 09-05-2018 14:00:00 25.18333 C 9.13 g/m*3 25.18 C 6.56667 km/h
2679 09-05-2018 15:00:00 26.99167 C 9.97 g/m*3 26.99 C 11.29167 km/h
2680 09-05-2018 16:00:00 26.99167 C 10.89 g/m*3 26.99 C 7.39167 km/h
2681 09-05-2018 17:00:00 24.5 C 12.63 g/m*3 24.5 C 0.4 km/h
2682 09-05-2018 18:00:00 23.80833 C 13.36 g/m*3 23.81 C 0.13333 km/h
2683 09-05-2018 19:00:00 22.65833 C 12.28 g/m*3 22.66 C 1.2 km/h
2684 09-05-2018 20:00:00 19.88333 C 11 g/m*3 19.88 C 0.53333 km/h
2685 09-05-2018 21:00:00 17.5 C 10.76 g/m*3 17.5 C 0 km/h
2686 09-05-2018 22:00:00 16.14167 C 10.47 g/m*3 16.14 C 0 km/h
2687 09-05-2018 23:00:00 15.11667 C 10.37 g/m*3 15.12 C 0 km/h
2688 10-05-2018 00:00:00 14.15833 C 10.2 g/m*3 14.16 C 0 km/h
2689 10-05-2018 01:00:00 13.65833 C 10.24 g/m*3 13.66 C 0.53333 km/h
2690 10-05-2018 02:00:00 13.78333 C 10.39 g/m*3 13.78 C 0.13333 km/h
2691 10-05-2018 03:00:00 14.58333 C 10.98 g/m*3 14.58 C 2 km/h
2692 10-05-2018 04:00:00 15.90833 C 11.2 g/m*3 15.91 C 2.13333 km/h
2693 10-05-2018 05:00:00 15.625 C 10.79 g/m*3 15.63 C 5.48333 km/h
2694 10-05-2018 06:00:00 15.275 C 10.52 g/m*3 15.28 C 6.83333 km/h
2695 10-05-2018 07:00:00 15.15 C 10.45 g/m*3 15.15 C 8.725 km/h
2696 10-05-2018 08:00:00 14.625 C 10.12 g/m*3 14.63 C 8.475 km/h
2697 10-05-2018 09:00:00 14.69167 C 10.11 g/m*3 14.69 C 3.2 km/h
2698 10-05-2018 10:00:00 14.90833 C 10.32 g/m*3 14.91 C 1.73333 km/h
2699 10-05-2018 11:00:00 14.50833 C 10.65 g/m*3 14.51 C 3.48333 km/h
2700 10-05-2018 12:00:00 13.55833 C 10.86 g/m*3 13.56 C 0.26667 km/h
Sensor: Nr:Datum:Temp:Abs-Feuchte:Windchill:Wind:
Aussen-T/F 2701 10-05-2018 13:00:00 13.25833 C 10.8 g/m*3 13.26 C 2.675 km/h
2702 10-05-2018 14:00:00 12.80833 C 10.59 g/m*3 12.81 C 0.93333 km/h
2703 10-05-2018 15:00:00 12.69167 C 10.4 g/m*3 12.69 C 4.41667 km/h
2704 10-05-2018 16:00:00 13.85 C 10.82 g/m*3 13.85 C 5.88333 km/h
2705 10-05-2018 17:00:00 14.7 C 11.26 g/m*3 14.7 C 3.61667 km/h
2706 10-05-2018 18:00:00 15.40833 C 11.21 g/m*3 15.41 C 2.13333 km/h
2707 10-05-2018 19:00:00 15.24167 C 11.29 g/m*3 15.24 C 0.26667 km/h
2708 10-05-2018 20:00:00 13.68333 C 10.64 g/m*3 13.68 C 0.66667 km/h
2709 10-05-2018 21:00:00 12.56667 C 9.99 g/m*3 12.57 C 0.13333 km/h
2710 10-05-2018 22:00:00 11.79167 C 9.67 g/m*3 11.79 C 0 km/h
2711 10-05-2018 23:00:00 11.79167 C 9.78 g/m*3 11.79 C 0 km/h
2712 11-05-2018 00:00:00 11.55833 C 9.64 g/m*3 11.56 C 0 km/h
2713 11-05-2018 01:00:00 10.75 C 9.16 g/m*3 10.75 C 0.13333 km/h
2714 11-05-2018 02:00:00 10.43333 C 9.07 g/m*3 10.43 C 0.13333 km/h
2715 11-05-2018 03:00:00 10.55833 C 9.17 g/m*3 10.56 C 0 km/h
2716 11-05-2018 04:00:00 10.4 C 9.02 g/m*3 10.4 C 0.13333 km/h
2717 11-05-2018 05:00:00 9.73333 C 8.58 g/m*3 9.73 C 0 km/h
2718 11-05-2018 06:00:00 8.975 C 8.22 g/m*3 8.98 C 0.4 km/h
2719 11-05-2018 07:00:00 9.36667 C 8.54 g/m*3 9.37 C 0.13333 km/h
2720 11-05-2018 08:00:00 10.34167 C 9.1 g/m*3 10.34 C 0.26667 km/h
2721 11-05-2018 09:00:00 11.23333 C 9.46 g/m*3 11.23 C 0.13333 km/h
2722 11-05-2018 10:00:00 12.99167 C 9.72 g/m*3 12.99 C 4.69167 km/h
2723 11-05-2018 11:00:00 15.3 C 9.36 g/m*3 15.3 C 8.06667 km/h
2724 11-05-2018 12:00:00 16.71667 C 8.74 g/m*3 16.72 C 9.01667 km/h
2725 11-05-2018 13:00:00 18.125 C 8.92 g/m*3 18.13 C 9.68333 km/h
Sensor: Nr:Datum:Temp:Abs-Feuchte:Windchill:Wind:
Aussen-T/F 2726 11-05-2018 14:00:00 19.03333 C 9.14 g/m*3 19.03 C 11.43333 km/h
2727 11-05-2018 15:00:00 19.675 C 9.28 g/m*3 19.68 C 7.91667 km/h
2728 11-05-2018 16:00:00 19.96667 C 9.7 g/m*3 19.97 C 7.375 km/h
2729 11-05-2018 17:00:00 20.55 C 10.05 g/m*3 20.55 C 4.825 km/h
2730 11-05-2018 18:00:00 21.56667 C 9.67 g/m*3 21.57 C 6.31667 km/h
2731 11-05-2018 19:00:00 21.05 C 9.72 g/m*3 21.05 C 6.44167 km/h
2732 11-05-2018 20:00:00 18.025 C 10.63 g/m*3 18.02 C 0.13333 km/h
2733 11-05-2018 21:00:00 14.71667 C 9.62 g/m*3 14.72 C 0.4 km/h
2734 11-05-2018 22:00:00 13.675 C 9.78 g/m*3 13.68 C 0.13333 km/h
2735 11-05-2018 23:00:00 12.76667 C 9.62 g/m*3 12.77 C 0 km/h
2736 12-05-2018 00:00:00 11.675 C 9.33 g/m*3 11.68 C 0 km/h
2737 12-05-2018 01:00:00 11.26667 C 9.19 g/m*3 11.27 C 0 km/h
2738 12-05-2018 02:00:00 10.73333 C 8.98 g/m*3 10.73 C 0 km/h
2739 12-05-2018 03:00:00 9.88333 C 8.62 g/m*3 9.88 C 0 km/h
2740 12-05-2018 04:00:00 9.10833 C 8.3 g/m*3 9.11 C 0 km/h
2741 12-05-2018 05:00:00 8.675 C 8.13 g/m*3 8.68 C 0 km/h
2742 12-05-2018 06:00:00 8.51667 C 8.12 g/m*3 8.52 C 0.13333 km/h
2743 12-05-2018 07:00:00 8.80833 C 8.28 g/m*3 8.81 C 0 km/h
2744 12-05-2018 08:00:00 9.74167 C 8.87 g/m*3 9.74 C 0 km/h
2745 12-05-2018 09:00:00 11.64167 C 10.02 g/m*3 11.64 C 0 km/h
2746 12-05-2018 10:00:00 14.09167 C 11.26 g/m*3 14.09 C 0 km/h
2747 12-05-2018 11:00:00 17.59167 C 11.21 g/m*3 17.59 C 3.34167 km/h
2748 12-05-2018 12:00:00 20.10833 C 10.42 g/m*3 20.11 C 6.70833 km/h
2749 12-05-2018 13:00:00 21.35833 C 10.32 g/m*3 21.36 C 7.79167 km/h
2750 12-05-2018 14:00:00 22.39167 C 10.52 g/m*3 22.39 C 8.06667 km/h
Sensor: Nr:Datum:Temp:Abs-Feuchte:Windchill:Wind:
Aussen-T/F 2751 12-05-2018 15:00:00 23.425 C 10.99 g/m*3 23.43 C 8.45833 km/h
2752 12-05-2018 16:00:00 24.80833 C 10.78 g/m*3 24.81 C 6.83333 km/h
2753 12-05-2018 17:00:00 26.10833 C 10.35 g/m*3 26.11 C 6.30833 km/h
2754 12-05-2018 18:00:00 25.825 C 10.53 g/m*3 25.83 C 7.66667 km/h
2755 12-05-2018 19:00:00 24.59167 C 11.94 g/m*3 24.59 C 3.35 km/h
2756 12-05-2018 20:00:00 20.88333 C 11.84 g/m*3 20.88 C 0.13333 km/h
2757 12-05-2018 21:00:00 18.29167 C 11.42 g/m*3 18.29 C 0.8 km/h
2758 12-05-2018 22:00:00 17.40833 C 11.49 g/m*3 17.41 C 0 km/h
2759 12-05-2018 23:00:00 16.48333 C 11.34 g/m*3 16.48 C 0 km/h
2760 13-05-2018 00:00:00 16.16667 C 11.29 g/m*3 16.17 C 0 km/h
2761 13-05-2018 01:00:00 16.28333 C 12.03 g/m*3 16.28 C 2 km/h
2762 13-05-2018 02:00:00 15.75833 C 12.06 g/m*3 15.76 C 1.33333 km/h
2763 13-05-2018 03:00:00 15.225 C 11.82 g/m*3 15.23 C 0.4 km/h
2764 13-05-2018 04:00:00 14.56667 C 11.47 g/m*3 14.57 C 3.48333 km/h
2765 13-05-2018 05:00:00 14.80833 C 11.59 g/m*3 14.81 C 2.00833 km/h
2766 13-05-2018 06:00:00 14.69167 C 11.67 g/m*3 14.69 C 0.13333 km/h
2767 13-05-2018 07:00:00 14.7 C 11.81 g/m*3 14.7 C 0 km/h
2768 13-05-2018 08:00:00 14.66667 C 11.91 g/m*3 14.67 C 0.26667 km/h
2769 13-05-2018 09:00:00 15.09167 C 12.33 g/m*3 15.09 C 0 km/h
2770 13-05-2018 10:00:00 15.275 C 12.46 g/m*3 15.28 C 0.13333 km/h
2771 13-05-2018 11:00:00 15.21667 C 12.42 g/m*3 15.22 C 1.46667 km/h
2772 13-05-2018 12:00:00 14.88333 C 12.18 g/m*3 14.88 C 4.3 km/h
2773 13-05-2018 13:00:00 13.95833 C 11.43 g/m*3 13.96 C 9.69167 km/h
2774 13-05-2018 14:00:00 13.76 C 11.29 g/m*3 13.76 C 7.38 km/h
2775 13-05-2018 15:00:00 14.08333 C 11.5 g/m*3 14.08 C 7.38333 km/h
Sensor: Nr:Datum:Temp:Abs-Feuchte:Windchill:Wind:
Aussen-T/F 2776 13-05-2018 16:00:00 14.075 C 11.37 g/m*3 14.08 C 10.89167 km/h
2777 13-05-2018 17:00:00 13.90833 C 11.23 g/m*3 13.91 C 8.48333 km/h
2778 13-05-2018 18:00:00 13.8 C 11.2 g/m*3 13.8 C 7.65 km/h
2779 13-05-2018 19:00:00 13.85 C 11.23 g/m*3 13.85 C 8.73333 km/h
2780 13-05-2018 20:00:00 13.9 C 11.31 g/m*3 13.9 C 4.83333 km/h
2781 13-05-2018 21:00:00 13.9 C 11.39 g/m*3 13.9 C 3.875 km/h
2782 13-05-2018 22:00:00 13.95833 C 11.43 g/m*3 13.96 C 7.925 km/h
2783 13-05-2018 23:00:00 13.91667 C 11.4 g/m*3 13.92 C 6.99167 km/h
2784 14-05-2018 00:00:00 13.725 C 11.27 g/m*3 13.73 C 4.95833 km/h
2785 14-05-2018 01:00:00 13.29167 C 10.97 g/m*3 13.29 C 7.125 km/h
2786 14-05-2018 02:00:00 12.94167 C 10.83 g/m*3 12.94 C 9.53333 km/h
2787 14-05-2018 03:00:00 12.875 C 10.8 g/m*3 12.88 C 6.44167 km/h
2788 14-05-2018 04:00:00 12.86667 C 10.8 g/m*3 12.87 C 5.88333 km/h
2789 14-05-2018 05:00:00 12.74167 C 10.71 g/m*3 12.74 C 4.95 km/h
2790 14-05-2018 06:00:00 12.83333 C 10.78 g/m*3 12.83 C 6.04167 km/h
2791 14-05-2018 07:00:00 12.96667 C 10.88 g/m*3 12.97 C 4.96667 km/h
2792 14-05-2018 08:00:00 13.5 C 11.35 g/m*3 13.5 C 1.2 km/h
2793 14-05-2018 09:00:00 13.84167 C 11.5 g/m*3 13.84 C 4.80833 km/h
2794 14-05-2018 10:00:00 14.99167 C 12.23 g/m*3 14.99 C 4.26667 km/h
2795 14-05-2018 11:00:00 16.225 C 12.71 g/m*3 16.23 C 6.45 km/h
2796 14-05-2018 12:00:00 17.86667 C 13.55 g/m*3 17.87 C 4.95 km/h
2797 14-05-2018 13:00:00 19.09167 C 14.05 g/m*3 19.09 C 6.71667 km/h
2798 14-05-2018 14:00:00 20.35 C 14.58 g/m*3 20.35 C 8.20833 km/h
2799 14-05-2018 15:00:00 21.6 C 15.06 g/m*3 21.6 C 10.75833 km/h
2800 14-05-2018 16:00:00 22.78333 C 15.43 g/m*3 22.78 C 11.3 km/h
Sensor: Nr:Datum:Temp:Abs-Feuchte:Windchill:Wind:
Aussen-T/F 2801 14-05-2018 17:00:00 23.86667 C 16.12 g/m*3 23.87 C 6.575 km/h
2802 14-05-2018 18:00:00 23.41667 C 16.26 g/m*3 23.42 C 3.89167 km/h
2803 14-05-2018 19:00:00 21.9 C 16.53 g/m*3 21.9 C 0 km/h
2804 14-05-2018 20:00:00 20.6 C 14.5 g/m*3 20.6 C 0.13333 km/h
2805 14-05-2018 21:00:00 17.475 C 12.48 g/m*3 17.48 C 0.13333 km/h
2806 14-05-2018 22:00:00 15.95833 C 11.7 g/m*3 15.96 C 0 km/h
2807 14-05-2018 23:00:00 14.85833 C 11.37 g/m*3 14.86 C 0 km/h
2808 15-05-2018 00:00:00 13.5 C 10.63 g/m*3 13.5 C 0 km/h
2809 15-05-2018 01:00:00 12.34167 C 9.91 g/m*3 12.34 C 0 km/h
2810 15-05-2018 02:00:00 11.35833 C 9.37 g/m*3 11.36 C 0 km/h
2811 15-05-2018 03:00:00 10.425 C 8.88 g/m*3 10.43 C 0 km/h
2812 15-05-2018 04:00:00 9.85 C 8.68 g/m*3 9.85 C 0 km/h
2813 15-05-2018 05:00:00 9.58333 C 8.6 g/m*3 9.58 C 0 km/h
2814 15-05-2018 06:00:00 9.41667 C 8.53 g/m*3 9.42 C 0 km/h
2815 15-05-2018 07:00:00 9.94167 C 8.89 g/m*3 9.94 C 0.13333 km/h
2816 15-05-2018 08:00:00 11.84167 C 10.02 g/m*3 11.84 C 0 km/h
2817 15-05-2018 09:00:00 14.025 C 10.9 g/m*3 14.03 C 0 km/h
2818 15-05-2018 10:00:00 14.99167 C 10.98 g/m*3 14.99 C 0.13333 km/h
2819 15-05-2018 11:00:00 17.25 C 10.31 g/m*3 17.25 C 5.35833 km/h
2820 15-05-2018 12:00:00 19.725 C 9.08 g/m*3 19.73 C 13.03333 km/h
2821 15-05-2018 13:00:00 20.74167 C 9.05 g/m*3 20.74 C 15.15833 km/h
2822 15-05-2018 14:00:00 21.59167 C 9.13 g/m*3 21.59 C 13.95 km/h
2823 15-05-2018 15:00:00 22.56667 C 9.01 g/m*3 22.57 C 12.76667 km/h
2824 15-05-2018 16:00:00 23.13333 C 9.1 g/m*3 23.13 C 9.00833 km/h
2825 15-05-2018 17:00:00 23.41667 C 9.66 g/m*3 23.42 C 6.725 km/h
Sensor: Nr:Datum:Temp:Abs-Feuchte:Windchill:Wind:
Aussen-T/F 2826 15-05-2018 18:00:00 22.9 C 10.25 g/m*3 22.9 C 6.15833 km/h
2827 15-05-2018 19:00:00 20.51667 C 11.95 g/m*3 20.52 C 1.06667 km/h
2828 15-05-2018 20:00:00 17.70833 C 11.28 g/m*3 17.71 C 0 km/h
2829 15-05-2018 21:00:00 16.08333 C 10.48 g/m*3 16.08 C 0 km/h
2830 15-05-2018 22:00:00 14.975 C 10.47 g/m*3 14.98 C 0 km/h
2831 15-05-2018 23:00:00 14.1 C 10.31 g/m*3 14.1 C 0.66667 km/h
2832 16-05-2018 00:00:00 13.95833 C 10.24 g/m*3 13.96 C 3.74167 km/h
2833 16-05-2018 01:00:00 13.8 C 10.23 g/m*3 13.8 C 1.06667 km/h
2834 16-05-2018 02:00:00 13.63333 C 10.43 g/m*3 13.63 C 0.93333 km/h
2835 16-05-2018 03:00:00 13.075 C 10.44 g/m*3 13.08 C 3.35 km/h
2836 16-05-2018 04:00:00 12.64167 C 10.4 g/m*3 12.64 C 0.13333 km/h
2837 16-05-2018 05:00:00 12.31667 C 10.27 g/m*3 12.32 C 0 km/h
2838 16-05-2018 06:00:00 12.425 C 10.41 g/m*3 12.43 C 0 km/h
2839 16-05-2018 07:00:00 12.36667 C 10.39 g/m*3 12.37 C 0 km/h
2840 16-05-2018 08:00:00 13.46667 C 11.19 g/m*3 13.47 C 0.53333 km/h
2841 16-05-2018 09:00:00 13.90833 C 11.44 g/m*3 13.91 C 0.53333 km/h
2842 16-05-2018 10:00:00 14.8 C 11.75 g/m*3 14.8 C 5.36667 km/h
2843 16-05-2018 11:00:00 16.39167 C 11.39 g/m*3 16.39 C 8.99167 km/h
2844 16-05-2018 12:00:00 17.39167 C 11.16 g/m*3 17.39 C 11.95833 km/h
2845 16-05-2018 13:00:00 18.25 C 10.98 g/m*3 18.25 C 11.425 km/h
2846 16-05-2018 14:00:00 18.80833 C 10.88 g/m*3 18.81 C 11.825 km/h
2847 16-05-2018 15:00:00 19.41667 C 11.05 g/m*3 19.42 C 12.475 km/h
2848 16-05-2018 16:00:00 19.34167 C 11.18 g/m*3 19.34 C 17.3 km/h
2849 16-05-2018 17:00:00 18.5 C 10.75 g/m*3 18.5 C 16.1 km/h
2850 16-05-2018 18:00:00 18.15833 C 10.92 g/m*3 18.16 C 7.925 km/h
Sensor: Nr:Datum:Temp:Abs-Feuchte:Windchill:Wind:
Aussen-T/F 2851 16-05-2018 19:00:00 17.30833 C 11.41 g/m*3 17.31 C 2.94167 km/h
2852 16-05-2018 20:00:00 16.13333 C 11.5 g/m*3 16.13 C 3.35 km/h
2853 16-05-2018 21:00:00 16.1 C 11.3 g/m*3 16.1 C 8.46667 km/h
2854 16-05-2018 22:00:00 15.24167 C 10.88 g/m*3 15.24 C 3.475 km/h
2855 16-05-2018 23:00:00 14.425 C 11.1 g/m*3 14.43 C 1.74167 km/h
2856 17-05-2018 00:00:00 13.61667 C 11 g/m*3 13.62 C 1.2 km/h
2857 17-05-2018 01:00:00 13.31667 C 10.82 g/m*3 13.32 C 7.26667 km/h
2858 17-05-2018 02:00:00 13.14167 C 10.36 g/m*3 13.14 C 9.675 km/h
2859 17-05-2018 03:00:00 12.65 C 9.85 g/m*3 12.65 C 7.38333 km/h
2860 17-05-2018 04:00:00 12.19167 C 9.36 g/m*3 12.19 C 9.28333 km/h
2861 17-05-2018 05:00:00 11.475 C 8.97 g/m*3 11.48 C 13.56667 km/h
2862 17-05-2018 06:00:00 10.59167 C 8.49 g/m*3 8.91 C 12.89167 km/h
2863 17-05-2018 07:00:00 10.20833 C 8.19 g/m*3 8.63 C 11.56667 km/h
2864 17-05-2018 08:00:00 10.325 C 7.84 g/m*3 8.49 C 13.56667 km/h
2865 17-05-2018 09:00:00 10.83333 C 7.8 g/m*3 9.29 C 12.23333 km/h
2866 17-05-2018 10:00:00 11.50833 C 8.07 g/m*3 11.51 C 13.16667 km/h
2867 17-05-2018 11:00:00 11.99167 C 8.07 g/m*3 11.99 C 14.5 km/h
2868 17-05-2018 12:00:00 12.86667 C 8.13 g/m*3 12.87 C 13.43333 km/h
2869 17-05-2018 13:00:00 14.05 C 8.21 g/m*3 14.05 C 16.1 km/h
2870 17-05-2018 14:00:00 15.51667 C 8.36 g/m*3 15.52 C 13.43333 km/h
2871 17-05-2018 15:00:00 17.225 C 8.45 g/m*3 17.23 C 13.96667 km/h
2872 17-05-2018 16:00:00 18.475 C 8.06 g/m*3 18.48 C 14.76667 km/h
2873 17-05-2018 17:00:00 18.99167 C 7.89 g/m*3 18.99 C 14.5 km/h
2874 17-05-2018 18:00:00 19.18333 C 7.92 g/m*3 19.18 C 12.23333 km/h
2875 17-05-2018 19:00:00 18.25 C 7.7 g/m*3 18.25 C 11.15833 km/h
Sensor: Nr:Datum:Temp:Abs-Feuchte:Windchill:Wind:
Aussen-T/F 2876 17-05-2018 20:00:00 16.8 C 7.79 g/m*3 16.8 C 4.29167 km/h
2877 17-05-2018 21:00:00 13.48333 C 8.29 g/m*3 13.48 C 1.06667 km/h
2878 17-05-2018 22:00:00 12.30833 C 8.44 g/m*3 12.31 C 1.33333 km/h
2879 17-05-2018 23:00:00 11.8 C 8.31 g/m*3 11.8 C 2.53333 km/h
2880 18-05-2018 00:00:00 11.225 C 8.17 g/m*3 11.23 C 3.73333 km/h
2881 18-05-2018 01:00:00 10.175 C 7.96 g/m*3 10.18 C 1.46667 km/h
2882 18-05-2018 02:00:00 9.275 C 7.75 g/m*3 9.28 C 3.61667 km/h
2883 18-05-2018 03:00:00 8.75 C 7.53 g/m*3 8.75 C 3.75 km/h
2884 18-05-2018 04:00:00 8.16667 C 7.47 g/m*3 8.17 C 0.8 km/h
2885 18-05-2018 05:00:00 8.61667 C 7.69 g/m*3 8.62 C 2.94167 km/h
2886 18-05-2018 06:00:00 9.225 C 7.76 g/m*3 8.73 C 5.48333 km/h
2887 18-05-2018 07:00:00 9.4 C 7.52 g/m*3 8.21 C 8.46667 km/h
2888 18-05-2018 08:00:00 9.475 C 7.43 g/m*3 8.59 C 7.1 km/h
2889 18-05-2018 09:00:00 9.63333 C 7.45 g/m*3 8.74 C 7.25 km/h
2890 18-05-2018 10:00:00 9.95833 C 7.51 g/m*3 8.76 C 9.00833 km/h
2891 18-05-2018 11:00:00 10.55833 C 7.58 g/m*3 9.82 C 7.25833 km/h
2892 18-05-2018 12:00:00 11.50833 C 7.72 g/m*3 11.51 C 8.33333 km/h
2893 18-05-2018 13:00:00 12.26667 C 7.69 g/m*3 12.27 C 8.20833 km/h
2894 18-05-2018 14:00:00 13.96667 C 7.97 g/m*3 13.97 C 8.34167 km/h
2895 18-05-2018 15:00:00 16.85833 C 8.31 g/m*3 16.86 C 9.00833 km/h
2896 18-05-2018 16:00:00 18.61667 C 8.26 g/m*3 18.62 C 9.95833 km/h
2897 18-05-2018 17:00:00 18.225 C 8.03 g/m*3 18.23 C 10.63333 km/h
2898 18-05-2018 18:00:00 18.24167 C 7.73 g/m*3 18.24 C 11.15833 km/h
2899 18-05-2018 19:00:00 16.8 C 7.77 g/m*3 16.8 C 7.66667 km/h
2900 18-05-2018 20:00:00 15.01667 C 8.9 g/m*3 15.02 C 0.53333 km/h
Sensor: Nr:Datum:Temp:Abs-Feuchte:Windchill:Wind:
Aussen-T/F 2901 18-05-2018 21:00:00 12.96667 C 8.41 g/m*3 12.97 C 2 km/h
2902 18-05-2018 22:00:00 11.75833 C 8.25 g/m*3 11.76 C 0.53333 km/h
2903 18-05-2018 23:00:00 10.86667 C 8.02 g/m*3 10.87 C 0 km/h
2904 19-05-2018 00:00:00 10.41667 C 8.1 g/m*3 10.42 C 0 km/h
2905 19-05-2018 01:00:00 9.86667 C 8.02 g/m*3 9.87 C 0 km/h
2906 19-05-2018 02:00:00 9.3 C 8.03 g/m*3 9.3 C 0 km/h
2907 19-05-2018 03:00:00 8.91667 C 7.93 g/m*3 8.92 C 0 km/h
2908 19-05-2018 04:00:00 8.34167 C 7.72 g/m*3 8.34 C 0 km/h
2909 19-05-2018 05:00:00 8.2 C 7.78 g/m*3 8.2 C 0 km/h
2910 19-05-2018 06:00:00 8.55833 C 7.98 g/m*3 8.56 C 0.26667 km/h
2911 19-05-2018 07:00:00 9.15833 C 8.16 g/m*3 9.16 C 2.53333 km/h
2912 19-05-2018 08:00:00 9.85833 C 8.21 g/m*3 9.86 C 4.00833 km/h
2913 19-05-2018 09:00:00 10.925 C 8.42 g/m*3 10.93 C 4.14167 km/h
2914 19-05-2018 10:00:00 12.39167 C 8.74 g/m*3 12.39 C 3.34167 km/h
2915 19-05-2018 11:00:00 14.275 C 9 g/m*3 14.28 C 6.85 km/h
2916 19-05-2018 12:00:00 15.54167 C 8.8 g/m*3 15.54 C 5.35833 km/h
2917 19-05-2018 13:00:00 16.50833 C 8.72 g/m*3 16.51 C 7.51667 km/h
2918 19-05-2018 14:00:00 17.44167 C 8.59 g/m*3 17.44 C 9.13333 km/h
2919 19-05-2018 15:00:00 18.75833 C 8.53 g/m*3 18.76 C 8.33333 km/h
2920 19-05-2018 16:00:00 20.45 C 8.74 g/m*3 20.45 C 10.1 km/h
2921 19-05-2018 17:00:00 21.00833 C 8.63 g/m*3 21.01 C 9.83333 km/h
2922 19-05-2018 18:00:00 20.95 C 8.83 g/m*3 20.95 C 9.40833 km/h
2923 19-05-2018 19:00:00 19.35833 C 8.71 g/m*3 19.36 C 8.73333 km/h
2924 19-05-2018 20:00:00 17.78333 C 8.86 g/m*3 17.78 C 4.69167 km/h
2925 19-05-2018 21:00:00 14.775 C 8.9 g/m*3 14.78 C 0.13333 km/h
Sensor: Nr:Datum:Temp:Abs-Feuchte:Windchill:Wind:
Aussen-T/F 2926 19-05-2018 22:00:00 12.65833 C 8.61 g/m*3 12.66 C 0.13333 km/h
2927 19-05-2018 23:00:00 11.75 C 8.55 g/m*3 11.75 C 0.4 km/h
2928 20-05-2018 00:00:00 10.9 C 8.34 g/m*3 10.9 C 0 km/h
2929 20-05-2018 01:00:00 9.65 C 8.01 g/m*3 9.65 C 0 km/h
2930 20-05-2018 02:00:00 8.63333 C 7.76 g/m*3 8.63 C 0 km/h
2931 20-05-2018 03:00:00 8.125 C 7.65 g/m*3 8.13 C 0 km/h
2932 20-05-2018 04:00:00 7.78333 C 7.58 g/m*3 7.78 C 0.13333 km/h
2933 20-05-2018 05:00:00 7.53333 C 7.51 g/m*3 7.53 C 0 km/h
2934 20-05-2018 06:00:00 7.45833 C 7.52 g/m*3 7.46 C 0.13333 km/h
2935 20-05-2018 07:00:00 8.33333 C 8.02 g/m*3 8.33 C 0 km/h
2936 20-05-2018 08:00:00 9.56667 C 8.68 g/m*3 9.57 C 0 km/h
2937 20-05-2018 09:00:00 11.4 C 9.39 g/m*3 11.4 C 1.2 km/h
2938 20-05-2018 10:00:00 14.10833 C 10.18 g/m*3 14.11 C 1.86667 km/h
2939 20-05-2018 11:00:00 17.01667 C 10.79 g/m*3 17.02 C 6.18333 km/h
2940 20-05-2018 12:00:00 19.45833 C 11.13 g/m*3 19.46 C 8.74167 km/h
2941 20-05-2018 13:00:00 20.95 C 11.22 g/m*3 20.95 C 8.86667 km/h
2942 20-05-2018 14:00:00 21.775 C 10.89 g/m*3 21.78 C 9.54167 km/h
2943 20-05-2018 15:00:00 22.975 C 10.57 g/m*3 22.98 C 13.3 km/h
2944 20-05-2018 16:00:00 19.95833 C 11.45 g/m*3 19.96 C 6.85 km/h
2945 20-05-2018 17:00:00 16.7 C 12.83 g/m*3 16.7 C 0.26667 km/h
2946 20-05-2018 18:00:00 16.96667 C 13.19 g/m*3 16.97 C 0.4 km/h
2947 20-05-2018 19:00:00 16.18333 C 12.49 g/m*3 16.18 C 0 km/h
2948 20-05-2018 20:00:00 15.975 C 12.57 g/m*3 15.98 C 0 km/h
2949 20-05-2018 21:00:00 15.30833 C 12.16 g/m*3 15.31 C 0 km/h
2950 20-05-2018 22:00:00 14.775 C 11.9 g/m*3 14.78 C 0 km/h
Sensor: Nr:Datum:Temp:Abs-Feuchte:Windchill:Wind:
Aussen-T/F 2951 20-05-2018 23:00:00 14.53333 C 11.84 g/m*3 14.53 C 0 km/h
2952 21-05-2018 00:00:00 13.65 C 11.19 g/m*3 13.65 C 0.53333 km/h
2953 21-05-2018 01:00:00 12.51667 C 10.42 g/m*3 12.52 C 0.66667 km/h
2954 21-05-2018 02:00:00 11.95833 C 10.1 g/m*3 11.96 C 0 km/h
2955 21-05-2018 03:00:00 11.40833 C 9.76 g/m*3 11.41 C 0 km/h
2956 21-05-2018 04:00:00 11.30833 C 9.7 g/m*3 11.31 C 0.26667 km/h
2957 21-05-2018 05:00:00 11.375 C 9.69 g/m*3 11.38 C 0 km/h
2958 21-05-2018 06:00:00 11.30833 C 9.58 g/m*3 11.31 C 0 km/h
2959 21-05-2018 07:00:00 11.75 C 9.73 g/m*3 11.75 C 0 km/h
2960 21-05-2018 08:00:00 12.05833 C 9.96 g/m*3 12.06 C 0 km/h
2961 21-05-2018 09:00:00 14.3 C 11.29 g/m*3 14.3 C 1.73333 km/h
2962 21-05-2018 10:00:00 17.53333 C 11.44 g/m*3 17.53 C 5.50833 km/h
2963 21-05-2018 11:00:00 18.91667 C 11.73 g/m*3 18.92 C 7.25 km/h
2964 21-05-2018 12:00:00 20.65 C 11.77 g/m*3 20.65 C 7.925 km/h
2965 21-05-2018 13:00:00 21.99167 C 11.82 g/m*3 21.99 C 10.35 km/h
2966 21-05-2018 14:00:00 23.66667 C 12.03 g/m*3 23.67 C 8.45 km/h
2967 21-05-2018 15:00:00 24.3 C 11.99 g/m*3 24.3 C 7.38333 km/h
2968 21-05-2018 16:00:00 24.50833 C 12.56 g/m*3 24.51 C 6.175 km/h
2969 21-05-2018 17:00:00 24.75833 C 13.34 g/m*3 24.76 C 2.80833 km/h
2970 21-05-2018 18:00:00 24.175 C 13.81 g/m*3 24.18 C 2.4 km/h
2971 21-05-2018 19:00:00 23.925 C 13.29 g/m*3 23.93 C 1.2 km/h
2972 21-05-2018 20:00:00 21.34167 C 13.14 g/m*3 21.34 C 0.13333 km/h
2973 21-05-2018 21:00:00 18.74167 C 11.9 g/m*3 18.74 C 0 km/h
2974 21-05-2018 22:00:00 16.725 C 11.56 g/m*3 16.73 C 0.4 km/h
2975 21-05-2018 23:00:00 15.65 C 11.34 g/m*3 15.65 C 0 km/h
Sensor: Nr:Datum:Temp:Abs-Feuchte:Windchill:Wind:
Aussen-T/F 2976 22-05-2018 00:00:00 14.51667 C 10.95 g/m*3 14.52 C 0 km/h
2977 22-05-2018 01:00:00 14.40833 C 11.13 g/m*3 14.41 C 0 km/h
2978 22-05-2018 02:00:00 14.1 C 10.92 g/m*3 14.1 C 0 km/h
2979 22-05-2018 03:00:00 13.81667 C 10.75 g/m*3 13.82 C 0 km/h
2980 22-05-2018 04:00:00 13.58333 C 10.56 g/m*3 13.58 C 0 km/h
2981 22-05-2018 05:00:00 12.60833 C 9.97 g/m*3 12.61 C 0 km/h
2982 22-05-2018 06:00:00 13.025 C 10.53 g/m*3 13.03 C 0.13333 km/h
2983 22-05-2018 07:00:00 14.09167 C 11.25 g/m*3 14.09 C 0 km/h
2984 22-05-2018 08:00:00 15.45833 C 11.79 g/m*3 15.46 C 0.53333 km/h
2985 22-05-2018 09:00:00 16.90833 C 11.96 g/m*3 16.91 C 1.86667 km/h
2986 22-05-2018 10:00:00 18.65 C 11.95 g/m*3 18.65 C 2.66667 km/h
2987 22-05-2018 11:00:00 20.26667 C 11.99 g/m*3 20.27 C 3.86667 km/h
2988 22-05-2018 12:00:00 21.7 C 11.73 g/m*3 21.7 C 8.46667 km/h
2989 22-05-2018 13:00:00 23.225 C 12.42 g/m*3 23.23 C 8.475 km/h
2990 22-05-2018 14:00:00 23.95 C 13.78 g/m*3 23.95 C 2.95 km/h
2991 22-05-2018 15:00:00 22.4 C 12.59 g/m*3 22.4 C 7.10833 km/h
2992 22-05-2018 16:00:00 21.45833 C 12.89 g/m*3 21.46 C 10.35 km/h
2993 22-05-2018 17:00:00 18.9 C 11.95 g/m*3 18.9 C 1.6 km/h
2994 22-05-2018 18:00:00 17.26667 C 12.77 g/m*3 17.27 C 0.53333 km/h
2995 22-05-2018 19:00:00 16.20833 C 12.65 g/m*3 16.21 C 0 km/h
2996 22-05-2018 20:00:00 15.71667 C 12.48 g/m*3 15.72 C 0 km/h
2997 22-05-2018 21:00:00 15.34167 C 12.31 g/m*3 15.34 C 0.8 km/h
2998 22-05-2018 22:00:00 15 C 12.13 g/m*3 15 C 0 km/h
2999 22-05-2018 23:00:00 14.9 C 12.11 g/m*3 14.9 C 0 km/h
3000 23-05-2018 00:00:00 14.75833 C 12 g/m*3 14.76 C 0 km/h
Sensor: Nr:Datum:Temp:Abs-Feuchte:Windchill:Wind:
Aussen-T/F 3001 23-05-2018 01:00:00 14.58333 C 11.89 g/m*3 14.58 C 0 km/h
3002 23-05-2018 02:00:00 14.54167 C 11.97 g/m*3 14.54 C 0 km/h
3003 23-05-2018 03:00:00 14.26667 C 11.77 g/m*3 14.27 C 0 km/h
3004 23-05-2018 04:00:00 14.15833 C 11.69 g/m*3 14.16 C 0 km/h
3005 23-05-2018 05:00:00 14.025 C 11.6 g/m*3 14.03 C 0 km/h
3006 23-05-2018 06:00:00 14.09167 C 11.66 g/m*3 14.09 C 0 km/h
3007 23-05-2018 07:00:00 14.66667 C 12.18 g/m*3 14.67 C 0 km/h
3008 23-05-2018 08:00:00 15.48333 C 12.8 g/m*3 15.48 C 0.4 km/h
3009 23-05-2018 09:00:00 15.86667 C 12.97 g/m*3 15.87 C 0.4 km/h
3010 23-05-2018 10:00:00 16.46667 C 13.25 g/m*3 16.47 C 1.06667 km/h
3011 23-05-2018 11:00:00 17.05 C 13.34 g/m*3 17.05 C 1.33333 km/h
3012 23-05-2018 12:00:00 17.375 C 13.13 g/m*3 17.38 C 0.8 km/h
3013 23-05-2018 13:00:00 17.11667 C 13.3 g/m*3 17.12 C 1.33333 km/h
3014 23-05-2018 14:00:00 17.85833 C 13.43 g/m*3 17.86 C 1.46667 km/h
3015 23-05-2018 15:00:00 19.84167 C 14.35 g/m*3 19.84 C 2.8 km/h
3016 23-05-2018 16:00:00 23.11667 C 15.55 g/m*3 23.12 C 2.4 km/h
3017 23-05-2018 17:00:00 25.06667 C 16.04 g/m*3 25.07 C 2.26667 km/h
3018 23-05-2018 18:00:00 25.15 C 15.24 g/m*3 25.15 C 4.69167 km/h
3019 23-05-2018 19:00:00 20.675 C 13.87 g/m*3 20.68 C 0 km/h
3020 23-05-2018 20:00:00 18.79167 C 13.07 g/m*3 18.79 C 0 km/h
3021 23-05-2018 21:00:00 17.75833 C 12.64 g/m*3 17.76 C 0 km/h
3022 23-05-2018 22:00:00 16.8 C 12.19 g/m*3 16.8 C 0 km/h
3023 23-05-2018 23:00:00 15.75 C 11.87 g/m*3 15.75 C 0 km/h
3024 24-05-2018 00:00:00 14.68333 C 11.42 g/m*3 14.68 C 0 km/h
3025 24-05-2018 01:00:00 14.69167 C 11.65 g/m*3 14.69 C 0 km/h
Sensor: Nr:Datum:Temp:Abs-Feuchte:Windchill:Wind:
Aussen-T/F 3026 24-05-2018 02:00:00 14.61667 C 11.62 g/m*3 14.62 C 0 km/h
3027 24-05-2018 03:00:00 13.66667 C 11.02 g/m*3 13.67 C 0 km/h
3028 24-05-2018 04:00:00 13.4 C 10.99 g/m*3 13.4 C 0 km/h
3029 24-05-2018 05:00:00 13.8 C 11.32 g/m*3 13.8 C 0 km/h
3030 24-05-2018 06:00:00 13.49167 C 11.11 g/m*3 13.49 C 0 km/h
3031 24-05-2018 07:00:00 13.65 C 11.28 g/m*3 13.65 C 0 km/h
3032 24-05-2018 08:00:00 14.825 C 12.14 g/m*3 14.83 C 0.13333 km/h
3033 24-05-2018 09:00:00 16.46667 C 12.81 g/m*3 16.47 C 2.66667 km/h
3034 24-05-2018 10:00:00 18.33333 C 13.06 g/m*3 18.33 C 6.85 km/h
3035 24-05-2018 11:00:00 19.74167 C 13.53 g/m*3 19.74 C 5.75833 km/h
3036 24-05-2018 12:00:00 19.66667 C 13.54 g/m*3 19.67 C 3.6 km/h
3037 24-05-2018 13:00:00 19.14167 C 13.57 g/m*3 19.14 C 1.86667 km/h
3038 24-05-2018 14:00:00 19.33333 C 13.66 g/m*3 19.33 C 6.30833 km/h
3039 24-05-2018 15:00:00 19.88333 C 13.97 g/m*3 19.88 C 7.66667 km/h
3040 24-05-2018 16:00:00 20.54167 C 14.43 g/m*3 20.54 C 5.89167 km/h
3041 24-05-2018 17:00:00 21.225 C 14.37 g/m*3 21.23 C 7.925 km/h
3042 24-05-2018 18:00:00 20.975 C 14.47 g/m*3 20.98 C 3.06667 km/h
3043 24-05-2018 19:00:00 20.275 C 14.94 g/m*3 20.27 C 0 km/h
3044 24-05-2018 20:00:00 19.05833 C 14.19 g/m*3 19.06 C 0 km/h
3045 24-05-2018 21:00:00 17.375 C 13.22 g/m*3 17.38 C 0 km/h
3046 24-05-2018 22:00:00 16.30833 C 12.69 g/m*3 16.31 C 0 km/h
3047 24-05-2018 23:00:00 15.85 C 12.55 g/m*3 15.85 C 0 km/h
3048 25-05-2018 00:00:00 15.325 C 12.24 g/m*3 15.33 C 0 km/h
3049 25-05-2018 01:00:00 14.8 C 11.96 g/m*3 14.8 C 0 km/h
3050 25-05-2018 02:00:00 14.74167 C 12.05 g/m*3 14.74 C 0 km/h
Sensor: Nr:Datum:Temp:Abs-Feuchte:Windchill:Wind:
Aussen-T/F 3051 25-05-2018 03:00:00 15.34167 C 12.57 g/m*3 15.34 C 0 km/h
3052 25-05-2018 04:00:00 15.63333 C 12.79 g/m*3 15.63 C 0 km/h
3053 25-05-2018 05:00:00 15.525 C 12.69 g/m*3 15.53 C 0 km/h
3054 25-05-2018 06:00:00 15.275 C 12.52 g/m*3 15.28 C 0.13333 km/h
3055 25-05-2018 07:00:00 15.91667 C 13.01 g/m*3 15.92 C 0.13333 km/h
3056 25-05-2018 08:00:00 16.725 C 13.51 g/m*3 16.73 C 0.66667 km/h
3057 25-05-2018 09:00:00 17.99167 C 13.92 g/m*3 17.99 C 0.4 km/h
3058 25-05-2018 10:00:00 19 C 13.8 g/m*3 19 C 1.2 km/h
3059 25-05-2018 11:00:00 20.075 C 13.87 g/m*3 20.08 C 4.26667 km/h
3060 25-05-2018 12:00:00 20.375 C 13.84 g/m*3 20.38 C 7.10833 km/h
3061 25-05-2018 13:00:00 21.56667 C 14.18 g/m*3 21.57 C 7.65 km/h
3062 25-05-2018 14:00:00 23.13333 C 14.27 g/m*3 23.13 C 6.01667 km/h
3063 25-05-2018 15:00:00 25.18333 C 14.03 g/m*3 25.18 C 4.66667 km/h
3064 25-05-2018 16:00:00 27.1 C 13.15 g/m*3 27.1 C 6.28333 km/h
3065 25-05-2018 17:00:00 27.76667 C 13.89 g/m*3 27.77 C 4.55 km/h
3066 25-05-2018 18:00:00 27.55 C 14.68 g/m*3 27.55 C 6.30833 km/h
3067 25-05-2018 19:00:00 26.09167 C 14.17 g/m*3 26.09 C 5.23333 km/h
3068 25-05-2018 20:00:00 23.875 C 14.62 g/m*3 23.88 C 0.26667 km/h
3069 25-05-2018 21:00:00 20.36667 C 13.57 g/m*3 20.37 C 0 km/h
3070 25-05-2018 22:00:00 18.6 C 13.28 g/m*3 18.6 C 0 km/h
3071 25-05-2018 23:00:00 17.70833 C 13.03 g/m*3 17.71 C 0 km/h
3072 26-05-2018 00:00:00 16.98333 C 12.83 g/m*3 16.98 C 0 km/h
3073 26-05-2018 01:00:00 16.06667 C 12.47 g/m*3 16.07 C 0 km/h
3074 26-05-2018 02:00:00 15.33333 C 12.14 g/m*3 15.33 C 0 km/h
3075 26-05-2018 03:00:00 14.81667 C 11.89 g/m*3 14.82 C 0 km/h
Sensor: Nr:Datum:Temp:Abs-Feuchte:Windchill:Wind:
Aussen-T/F 3076 26-05-2018 04:00:00 14.225 C 11.51 g/m*3 14.23 C 0 km/h
3077 26-05-2018 05:00:00 13.74167 C 11.24 g/m*3 13.74 C 0 km/h
3078 26-05-2018 06:00:00 13.75833 C 11.32 g/m*3 13.76 C 0 km/h
3079 26-05-2018 07:00:00 14.41667 C 11.88 g/m*3 14.42 C 0 km/h
3080 26-05-2018 08:00:00 15.71667 C 12.86 g/m*3 15.72 C 0 km/h
3081 26-05-2018 09:00:00 16.91667 C 13.79 g/m*3 16.92 C 0.66667 km/h
3082 26-05-2018 10:00:00 19.95833 C 14.75 g/m*3 19.96 C 5.23333 km/h
3083 26-05-2018 11:00:00 22.84167 C 14.82 g/m*3 22.84 C 8.05833 km/h
3084 26-05-2018 12:00:00 24.43333 C 14.62 g/m*3 24.43 C 8.60833 km/h
3085 26-05-2018 13:00:00 25.46667 C 14.43 g/m*3 25.47 C 7.525 km/h
3086 26-05-2018 14:00:00 26.35 C 14.13 g/m*3 26.35 C 6.55833 km/h
3087 26-05-2018 15:00:00 27.84167 C 14.38 g/m*3 27.84 C 6.975 km/h
3088 26-05-2018 16:00:00 29.1 C 14.15 g/m*3 29.1 C 7.525 km/h
3089 26-05-2018 17:00:00 29.175 C 13.53 g/m*3 29.18 C 8.19167 km/h
3090 26-05-2018 18:00:00 29.06667 C 14.51 g/m*3 29.07 C 4.675 km/h
3091 26-05-2018 19:00:00 27.84167 C 15.79 g/m*3 27.84 C 0.26667 km/h
3092 26-05-2018 20:00:00 25.10833 C 14.9 g/m*3 25.11 C 0.13333 km/h
3093 26-05-2018 21:00:00 21.86667 C 13.85 g/m*3 21.87 C 0 km/h
3094 26-05-2018 22:00:00 20.275 C 13.61 g/m*3 20.27 C 0 km/h
3095 26-05-2018 23:00:00 19.05833 C 13.37 g/m*3 19.06 C 0 km/h
3096 27-05-2018 00:00:00 18.03333 C 13.15 g/m*3 18.03 C 0 km/h
3097 27-05-2018 01:00:00 17.15833 C 12.75 g/m*3 17.16 C 0 km/h
3098 27-05-2018 02:00:00 16.25 C 12.37 g/m*3 16.25 C 0 km/h
3099 27-05-2018 03:00:00 15.55833 C 12.14 g/m*3 15.56 C 0 km/h
3100 27-05-2018 04:00:00 15.31667 C 12.19 g/m*3 15.32 C 0 km/h
Sensor: Nr:Datum:Temp:Abs-Feuchte:Windchill:Wind:
Aussen-T/F 3101 27-05-2018 05:00:00 15.525 C 12.41 g/m*3 15.53 C 0 km/h
3102 27-05-2018 06:00:00 15.60833 C 12.49 g/m*3 15.61 C 0 km/h
3103 27-05-2018 07:00:00 15.75 C 12.59 g/m*3 15.75 C 0 km/h
3104 27-05-2018 08:00:00 16.775 C 13.5 g/m*3 16.77 C 0 km/h
3105 27-05-2018 09:00:00 18.675 C 14.31 g/m*3 18.68 C 2.275 km/h
3106 27-05-2018 10:00:00 21.79167 C 14.72 g/m*3 21.79 C 4.26667 km/h
3107 27-05-2018 11:00:00 23.39167 C 15.59 g/m*3 23.39 C 2.26667 km/h
3108 27-05-2018 12:00:00 25.90833 C 15.7 g/m*3 25.91 C 6.3 km/h
3109 27-05-2018 13:00:00 27.275 C 15.11 g/m*3 27.28 C 4.55 km/h
3110 27-05-2018 14:00:00 27.41667 C 15.1 g/m*3 27.42 C 7.65 km/h
3111 27-05-2018 15:00:00 26.2 C 15.92 g/m*3 26.2 C 5.09167 km/h
3112 27-05-2018 16:00:00 28.99167 C 14.02 g/m*3 28.99 C 6.43333 km/h
3113 27-05-2018 17:00:00 26.75 C 15.88 g/m*3 26.75 C 0.53333 km/h
3114 27-05-2018 18:00:00 23.34167 C 15.93 g/m*3 23.34 C 1.2 km/h
3115 27-05-2018 19:00:00 20.4 C 15.58 g/m*3 20.4 C 1.06667 km/h
3116 27-05-2018 20:00:00 19.3 C 14.97 g/m*3 19.3 C 2.41667 km/h
3117 27-05-2018 21:00:00 18.075 C 14.28 g/m*3 18.08 C 0 km/h
3118 27-05-2018 22:00:00 17.40833 C 13.93 g/m*3 17.41 C 0 km/h
3119 27-05-2018 23:00:00 16.75833 C 13.41 g/m*3 16.76 C 0 km/h
3120 28-05-2018 00:00:00 16.175 C 13.04 g/m*3 16.18 C 0 km/h
3121 28-05-2018 01:00:00 16.53333 C 13.48 g/m*3 16.53 C 0 km/h
3122 28-05-2018 02:00:00 16.75833 C 13.69 g/m*3 16.76 C 1.74167 km/h
3123 28-05-2018 03:00:00 16.425 C 13.42 g/m*3 16.43 C 0 km/h
3124 28-05-2018 04:00:00 15.75 C 12.88 g/m*3 15.75 C 0 km/h
3125 28-05-2018 05:00:00 15.06667 C 12.36 g/m*3 15.07 C 0 km/h
Sensor: Nr:Datum:Temp:Abs-Feuchte:Windchill:Wind:
Aussen-T/F 3126 28-05-2018 06:00:00 15.09167 C 12.44 g/m*3 15.09 C 0 km/h
3127 28-05-2018 07:00:00 16.19167 C 13.37 g/m*3 16.19 C 0.66667 km/h
3128 28-05-2018 08:00:00 16.76667 C 13.84 g/m*3 16.77 C 0.53333 km/h
3129 28-05-2018 09:00:00 17.275 C 14.27 g/m*3 17.27 C 1.2 km/h
3130 28-05-2018 10:00:00 19.19167 C 15.89 g/m*3 19.19 C 0.26667 km/h
3131 28-05-2018 11:00:00 20.05 C 16.39 g/m*3 20.05 C 0 km/h
3132 28-05-2018 12:00:00 21.86667 C 17.09 g/m*3 21.87 C 0.93333 km/h
3133 28-05-2018 13:00:00 24.25833 C 17.64 g/m*3 24.26 C 2.13333 km/h
3134 28-05-2018 14:00:00 26.46667 C 16.41 g/m*3 26.47 C 6.025 km/h
3135 28-05-2018 15:00:00 28.69167 C 16.36 g/m*3 28.69 C 6.44167 km/h
3136 28-05-2018 16:00:00 30.35833 C 15.33 g/m*3 30.36 C 9.275 km/h
3137 28-05-2018 17:00:00 31.125 C 14.74 g/m*3 31.13 C 10.74167 km/h
3138 28-05-2018 18:00:00 30.95833 C 16.66 g/m*3 30.96 C 4.55 km/h
3139 28-05-2018 19:00:00 29.28333 C 17.62 g/m*3 29.28 C 1.075 km/h
3140 28-05-2018 20:00:00 25.26667 C 16.42 g/m*3 25.27 C 0 km/h
3141 28-05-2018 21:00:00 22.88333 C 15.53 g/m*3 22.88 C 0 km/h
3142 28-05-2018 22:00:00 21.775 C 15.1 g/m*3 21.78 C 0 km/h
3143 28-05-2018 23:00:00 21.09167 C 14.93 g/m*3 21.09 C 0 km/h
3144 29-05-2018 00:00:00 20.36667 C 14.83 g/m*3 20.37 C 0 km/h
3145 29-05-2018 01:00:00 19.10833 C 14.41 g/m*3